[[{"header":{"parameterUnit":"m.s-1","parameterCategory":1,"la1":31.0,"la2":29.5877,"lo1":-88.7671,"lo2":-86.6584,"dy":0.0162,"dx":0.0185,"nx":115,"ny":88,"refTime":"2023-10-20T18:00:00:Z","depth":0,"parameterNumber":2,"parameterNumberName":"U-component_of_WINDS"},"data":[0.0,0.0,0.0,0.0,0.0,0.0,0.0,0.0,0.0,0.0,0.0,0.0,0.0,0.0,0.0,0.0,0.0,0.0,0.0,0.0,0.0,0.0,0.0,0.0,0.0,0.0,0.0,0.0,0.0,0.0,0.0,0.0,0.0,0.0,0.0,0.0,0.0,0.0,0.0,0.0,0.0,0.0,0.0,0.0,0.0,0.0,0.0,0.0,0.0,0.0,0.0,0.0,0.0,0.0,0.0,0.0,0.0,0.0,0.0,0.0,0.0,0.0,0.0,0.0,0.0,0.0,0.0,0.0,0.0,0.0,0.0,0.0,0.0,0.0,0.0,0.0,0.0,0.0,0.0,0.0,0.0,0.0,0.0,0.0,0.0,0.0,0.0,0.0,0.0,0.0,0.0,0.0,0.0,0.0,0.0,0.0,0.0,0.0,0.0,0.0,0.0,0.0,0.0,0.0,0.0,0.0,0.0,0.0,0.0,0.0,0.0,0.0,0.0,0.0,0.0,0.0,0.0,0.0,0.0,0.0,0.0,0.0,0.0,0.0,0.0,0.0,0.0,0.0,0.0,0.0,0.0,0.0,0.0,0.0,0.0,0.0,0.0,0.0,0.0,0.0,0.0,0.0,0.0,0.0,0.0,0.0,0.0,0.0,0.0,0.0,0.0,0.0,0.0,0.0,0.0,0.0,0.0,0.0,0.0,0.0,0.0,0.0,0.0,0.0,0.0,0.0,0.0,0.0,0.0,0.0,0.0,0.0,0.0,0.0,0.0,0.0,0.0,0.0,0.0,0.0,0.0,0.0,0.0,0.0,0.0,0.0,0.0,0.0,0.0,0.0,0.0,0.0,0.0,0.0,0.0,0.0,0.0,0.0,0.0,0.0,0.0,0.0,0.0,0.0,0.0,0.0,0.0,0.0,0.0,0.0,0.0,0.0,0.0,0.0,0.0,0.0,0.0,0.0,0.0,0.0,0.0,0.0,0.0,0.0,0.0,0.0,0.0,0.0,0.0,0.0,0.0,0.0,0.0,0.0,0.0,0.0,0.0,0.0,0.0,0.0,0.0,0.0,0.0,0.0,0.0,0.0,0.0,0.0,0.0,0.0,0.0,0.0,0.0,0.0,0.0,0.0,0.0,0.0,0.0,0.0,0.0,0.0,0.0,0.0,0.0,0.0,0.0,0.0,0.0,0.0,0.0,0.0,0.0,0.0,0.0,0.0,0.0,0.0,0.0,0.0,0.0,0.0,0.0,0.0,0.0,0.0,0.0,0.0,0.0,0.0,0.0,0.0,0.0,0.0,0.0,0.0,0.0,0.0,0.0,0.0,0.0,0.0,0.0,0.0,0.0,0.0,0.0,0.0,0.0,0.0,0.0,0.0,0.0,0.0,0.0,0.0,0.0,0.0,0.0,0.0,0.0,0.0,0.0,0.0,0.0,0.0,0.0,0.0,0.0,0.0,0.0,0.0,0.0,0.0,0.0,0.0,0.0,0.0,0.0,0.0,0.0,0.0,0.0,0.0,0.0,0.0,0.0,0.0,0.0,0.0,0.0,0.0,0.0,0.0,0.0,0.0,0.0,0.0,0.0,0.0,0.0,0.0,0.0,0.0,0.0,0.0,0.0,0.0,0.0,0.0,0.0,0.0,0.0,0.0,0.0,0.0,0.0,0.0,0.0,0.0,0.0,0.0,0.0,0.0,0.0,0.0,0.0,0.0,0.0,0.0,0.0,0.0,0.0,0.0,0.0,0.0,0.0,0.0,0.0,0.0,0.0,0.0,0.0,0.0,0.0,0.0,0.0,0.0,0.0,0.0,0.0,0.0,0.0,0.0,0.0,0.0,0.0,0.0,0.0,0.0,0.0,0.0,0.0,0.0,0.0,0.0,0.0,0.0,0.0,0.0,0.0,0.0,0.0,0.0,0.0,0.0,0.0,0.0,0.0,0.0,0.0,0.0,0.0,0.0,0.0,0.0,0.0,0.0,0.0,0.0,0.0,0.0,0.0,0.0,0.0,0.0,0.0,0.0,0.0,0.0,0.0,0.0,0.0,0.0,0.0,0.0,0.0,0.0,0.0,0.0,0.0,0.0,0.0,0.0,0.0,0.0,0.0,0.0,0.0,0.0,0.0,0.0,0.0,0.0,0.0,0.0,0.0,0.0,0.0,0.0,0.0,0.0,0.0,0.0,0.0,0.0,0.0,0.0,0.0,0.0,0.0,0.0,0.0,0.0,0.0,0.0,0.0,0.0,0.0,0.0,0.0,0.0,0.0,0.0,0.0,0.0,0.0,0.0,0.0,0.0,0.0,0.0,0.0,0.0,0.0,0.0,0.0,0.0,0.0,0.0,0.0,0.0,0.0,0.0,0.0,0.0,0.0,0.0,0.0,0.0,0.0,0.0,0.0,0.0,0.0,0.0,0.0,0.0,0.0,0.0,0.0,0.0,0.0,0.0,0.0,0.0,0.0,0.0,0.0,0.0,0.0,0.0,0.0,0.0,0.0,0.0,0.0,0.0,0.0,0.0,0.0,0.0,0.0,0.0,0.0,0.0,0.0,0.0,0.0,0.0,0.0,0.0,0.0,0.0,0.0,0.0,0.0,0.0,0.0,0.0,0.0,0.0,0.0,0.0,0.0,0.0,0.0,0.0,0.0,0.0,0.0,0.0,0.0,0.0,0.0,0.0,0.0,0.0,0.0,0.0,0.0,0.0,0.0,0.0,0.0,0.0,0.0,0.0,0.0,0.0,0.0,0.0,0.0,0.0,0.0,0.0,0.0,0.0,0.0,0.0,0.0,0.0,0.0,0.0,0.0,0.0,0.0,0.0,0.0,0.0,0.0,0.0,0.0,0.0,0.0,0.0,0.0,0.0,0.0,0.0,0.0,0.0,0.0,0.0,0.0,0.0,0.0,0.0,0.0,0.0,0.0,0.0,0.0,0.0,0.0,0.0,0.0,0.0,0.0,0.0,0.0,0.0,0.0,0.0,0.0,0.0,0.0,0.0,0.0,0.0,0.0,0.0,0.0,0.0,0.0,0.0,0.0,0.0,0.0,0.0,0.0,0.0,0.0,0.0,0.0,0.0,0.0,0.0,0.0,0.0,0.0,0.0,0.0,0.0,0.0,0.0,0.0,0.0,0.0,0.0,0.0,0.0,0.0,0.0,0.0,0.0,0.0,0.0,0.0,0.0,0.0,0.0,0.0,0.0,0.0,0.0,0.0,0.0,0.0,0.0,0.0,0.0,0.0,0.0,0.0,0.0,0.0,0.0,0.0,0.0,0.0,0.0,0.0,0.0,0.0,0.0,0.0,0.0,0.0,0.0,0.0,0.0,0.0,0.0,0.0,0.0,0.0,0.0,0.0,0.0,0.0,0.0,0.0,0.0,0.0,0.0,0.0,0.0,0.0,0.0,0.0,0.0,0.0,0.0,0.0,0.0,0.0,0.0,0.0,0.0,0.0,0.0,0.0,0.0,0.0,0.0,0.0,0.0,0.0,0.0,0.0,0.0,0.0,0.0,0.0,0.0,0.0,0.0,0.0,0.0,0.0,0.0,0.0,0.0,0.0,0.0,0.0,0.0,0.0,0.0,0.0,0.0,0.0,0.0,0.0,0.0,0.0,0.0,0.0,0.0,0.0,0.0,0.0,0.0,0.0,0.0,0.0,0.0,0.0,0.0,0.0,0.0,0.0,0.0,0.0,0.0,0.0,0.0,0.0,0.0,0.0,0.0,0.0,0.0,0.0,0.0,0.0,0.0,0.0,0.0,0.0,0.0,0.0,0.0,0.0,0.0,0.0,0.0,0.0,0.0,0.0,0.0,0.0,0.0,0.0,0.0,0.0,0.0,0.0,0.0,0.0,0.0,0.0,0.0,0.0,0.0,0.0,0.0,0.0,0.0,0.0,0.0,0.0,0.0,0.0,0.0,0.0,0.0,0.0,0.0,0.0,0.0,0.0,0.0,0.0,0.0,0.0,0.0,0.0,0.0,0.0,0.0,0.0,0.0,0.0,0.0,0.0,0.0,0.0,0.0,0.0,0.0,0.0,0.0,0.0,0.0,0.0,0.0,0.0,0.0,0.0,0.0,0.0,0.0,0.0,0.0,0.0,0.0,0.0,0.0,0.0,0.0,0.0,0.0,0.0,0.0,0.0,0.0,0.0,0.0,0.0,0.0,0.0,0.0,0.0,0.0,0.0,0.0,0.0,0.0,0.0,0.0,0.0,0.0,0.0,0.0,0.0,0.0,0.0,0.0,0.0,0.0,0.0,0.0,0.0,0.0,-1.7772,0.0,0.0,0.0,0.0,0.0,0.0,0.0,0.0,0.0,0.0,0.0,0.0,0.0,0.0,0.0,0.0,0.0,0.0,0.0,0.0,0.0,0.0,0.0,0.0,0.0,0.0,0.0,0.0,0.0,0.0,0.0,0.0,0.0,0.0,0.0,0.0,0.0,0.0,0.0,0.0,0.0,0.0,0.0,0.0,0.0,0.0,0.0,0.0,0.0,0.0,0.0,0.0,0.0,0.0,0.0,0.0,0.0,0.0,0.0,0.0,0.0,0.0,0.0,0.0,0.0,0.0,0.0,0.0,0.0,0.0,0.0,0.0,0.0,0.0,0.0,0.0,0.0,0.0,0.0,0.0,0.0,0.0,0.0,0.0,0.0,0.0,0.0,0.0,0.0,0.0,0.0,0.0,0.0,0.0,0.0,0.0,0.0,0.0,0.0,0.0,0.0,0.0,0.0,0.0,0.0,0.0,0.0,0.0,0.0,0.0,-1.7305,-1.845,-1.7326,-1.7258,-1.8402,0.0,0.0,0.0,0.0,0.0,0.0,0.0,0.0,0.0,0.0,0.0,0.0,0.0,0.0,0.0,0.0,0.0,0.0,0.0,0.0,0.0,0.0,0.0,0.0,0.0,0.0,0.0,0.0,0.0,0.0,0.0,0.0,0.0,0.0,0.0,0.0,0.0,0.0,0.0,0.0,0.0,0.0,0.0,0.0,0.0,0.0,0.0,0.0,0.0,0.0,0.0,0.0,0.0,0.0,0.0,0.0,0.0,0.0,0.0,0.0,0.0,0.0,0.0,0.0,0.0,0.0,0.0,0.0,0.0,0.0,0.0,0.0,0.0,0.0,0.0,0.0,0.0,0.0,0.0,0.0,0.0,0.0,0.0,0.0,0.0,0.0,0.0,0.0,0.0,0.0,0.0,0.0,0.0,0.0,0.0,0.0,0.0,0.0,0.0,0.0,0.0,0.0,0.0,0.0,0.0,0.0,0.0,0.0,0.0,0.0,0.0,0.0,-1.8193,-1.8217,-1.9485,0.0,0.0,0.0,0.0,0.0,0.0,0.0,0.0,0.0,0.0,0.0,0.0,0.0,0.0,0.0,0.0,0.0,0.0,0.0,0.0,0.0,0.0,0.0,0.0,0.0,0.0,0.0,0.0,0.0,0.0,0.0,0.0,0.0,0.0,0.0,0.0,0.0,0.0,0.0,0.0,0.0,0.0,0.0,0.0,0.0,0.0,0.0,0.0,0.0,0.0,0.0,0.0,0.0,0.0,0.0,0.0,0.0,0.0,0.0,0.0,0.0,0.0,0.0,0.0,0.0,0.0,0.0,0.0,0.0,0.0,0.0,0.0,0.0,0.0,0.0,0.0,0.0,0.0,0.0,0.0,0.0,0.0,0.0,0.0,0.0,0.0,0.0,0.0,0.0,0.0,0.0,0.0,0.0,0.0,0.0,0.0,0.0,0.0,0.0,0.0,0.0,0.0,0.0,0.0,0.0,0.0,0.0,0.0,0.0,0.0,-1.9117,-2.1575,-2.1747,0.0,-2.1207,0.0,0.0,0.0,0.0,0.0,0.0,0.0,0.0,0.0,0.0,0.0,0.0,0.0,0.0,0.0,0.0,0.0,0.0,0.0,0.0,0.0,0.0,0.0,0.0,0.0,0.0,0.0,0.0,0.0,0.0,0.0,0.0,0.0,0.0,0.0,0.0,0.0,0.0,0.0,0.0,0.0,0.0,0.0,0.0,0.0,0.0,0.0,0.0,0.0,0.0,0.0,0.0,0.0,0.0,0.0,0.0,0.0,0.0,0.0,0.0,0.0,0.0,0.0,0.0,0.0,0.0,0.0,0.0,0.0,0.0,0.0,0.0,0.0,0.0,0.0,0.0,0.0,0.0,0.0,0.0,0.0,0.0,0.0,0.0,0.0,0.0,0.0,0.0,0.0,0.0,0.0,0.0,0.0,0.0,0.0,0.0,0.0,0.0,0.0,0.0,0.0,0.0,0.0,0.0,0.0,0.0,0.0,0.0,0.0,0.0,-1.9643,-2.1196,-2.1554,-2.1221,0.0,0.0,0.0,0.0,0.0,0.0,0.0,0.0,0.0,0.0,0.0,0.0,0.0,0.0,0.0,0.0,0.0,0.0,0.0,0.0,0.0,0.0,0.0,0.0,0.0,0.0,0.0,0.0,0.0,0.0,0.0,0.0,0.0,0.0,0.0,0.0,0.0,0.0,0.0,0.0,0.0,0.0,0.0,0.0,0.0,0.0,0.0,0.0,0.0,0.0,0.0,0.0,0.0,0.0,0.0,0.0,0.0,0.0,0.0,0.0,0.0,0.0,0.0,0.0,0.0,0.0,0.0,0.0,0.0,0.0,0.0,0.0,0.0,0.0,0.0,0.0,0.0,0.0,0.0,0.0,0.0,0.0,0.0,0.0,0.0,0.0,0.0,0.0,0.0,0.0,0.0,0.0,0.0,0.0,0.0,0.0,0.0,0.0,0.0,0.0,0.0,0.0,0.0,0.0,0.0,0.0,0.0,0.0,0.0,0.0,-1.9705,-2.0451,-2.1701,-2.1494,-2.0661,-1.9291,0.0,0.0,0.0,0.0,0.0,0.0,0.0,0.0,0.0,0.0,0.0,0.0,0.0,0.0,0.0,0.0,0.0,0.0,0.0,0.0,0.0,0.0,0.0,0.0,0.0,0.0,0.0,0.0,0.0,0.0,0.0,0.0,0.0,0.0,0.0,0.0,0.0,0.0,0.0,0.0,0.0,0.0,0.0,0.0,0.0,0.0,0.0,0.0,0.0,0.0,0.0,0.0,0.0,0.0,0.0,0.0,0.0,0.0,0.0,0.0,0.0,0.0,0.0,0.0,0.0,0.0,0.0,0.0,0.0,0.0,0.0,0.0,0.0,0.0,0.0,0.0,0.0,0.0,0.0,0.0,0.0,0.0,0.0,0.0,0.0,0.0,0.0,0.0,0.0,0.0,0.0,0.0,0.0,0.0,0.0,0.0,0.0,0.0,0.0,0.0,0.0,0.0,0.0,0.0,0.0,0.0,0.0,0.0,-2.3021,-2.1492,-2.1808,-2.429,-2.2497,-2.0913,0.0,0.0,0.0,0.0,0.0,0.0,0.0,0.0,0.0,0.0,0.0,0.0,0.0,0.0,0.0,0.0,0.0,0.0,0.0,0.0,0.0,0.0,0.0,0.0,0.0,0.0,0.0,0.0,0.0,0.0,0.0,0.0,0.0,0.0,0.0,0.0,0.0,0.0,0.0,0.0,0.0,0.0,0.0,0.0,0.0,0.0,0.0,0.0,0.0,0.0,0.0,0.0,0.0,0.0,0.0,0.0,0.0,0.0,0.0,0.0,0.0,0.0,0.0,0.0,0.0,0.0,0.0,0.0,0.0,0.0,0.0,0.0,0.0,0.0,0.0,0.0,0.0,0.0,0.0,0.0,0.0,0.0,0.0,0.0,0.0,0.0,0.0,0.0,0.0,0.0,0.0,0.0,0.0,0.0,0.0,0.0,0.0,0.0,0.0,0.0,0.0,0.0,0.0,0.0,0.0,0.0,0.0,0.0,0.0,-2.0072,-2.0443,-2.1622,-2.3625,-2.2032,-2.1117,0.0,0.0,0.0,0.0,0.0,0.0,0.0,0.0,0.0,0.0,0.0,0.0,0.0,0.0,0.0,0.0,0.0,0.0,0.0,0.0,0.0,0.0,0.0,0.0,0.0,0.0,0.0,0.0,0.0,0.0,0.0,0.0,0.0,0.0,0.0,0.0,0.0,0.0,0.0,0.0,0.0,0.0,0.0,0.0,0.0,0.0,0.0,0.0,0.0,0.0,0.0,0.0,0.0,0.0,0.0,0.0,0.0,0.0,0.0,0.0,0.0,0.0,0.0,0.0,0.0,0.0,0.0,0.0,0.0,0.0,0.0,0.0,0.0,0.0,0.0,0.0,0.0,0.0,0.0,0.0,0.0,0.0,0.0,0.0,0.0,0.0,0.0,0.0,0.0,0.0,0.0,0.0,0.0,0.0,0.0,0.0,0.0,0.0,0.0,0.0,0.0,0.0,0.0,0.0,0.0,0.0,0.0,0.0,0.0,-1.9324,0.0,-2.1831,-2.2741,-2.1383,-2.0548,0.0,0.0,0.0,0.0,0.0,0.0,0.0,0.0,0.0,0.0,0.0,0.0,0.0,0.0,0.0,0.0,0.0,0.0,0.0,0.0,0.0,0.0,0.0,0.0,0.0,0.0,0.0,0.0,0.0,0.0,0.0,0.0,0.0,0.0,0.0,0.0,0.0,0.0,0.0,0.0,0.0,0.0,0.0,0.0,0.0,0.0,0.0,0.0,0.0,0.0,0.0,0.0,0.0,0.0,0.0,0.0,0.0,0.0,0.0,0.0,0.0,0.0,0.0,0.0,0.0,0.0,0.0,0.0,0.0,0.0,0.0,0.0,0.0,0.0,0.0,0.0,0.0,0.0,0.0,0.0,0.0,0.0,0.0,0.0,0.0,0.0,0.0,0.0,0.0,0.0,0.0,0.0,0.0,0.0,0.0,0.0,0.0,0.0,0.0,0.0,0.0,0.0,0.0,0.0,0.0,0.0,0.0,0.0,-1.8504,-2.1455,-2.2355,-2.2524,-2.2025,-2.0636,-1.9117,0.0,0.0,0.0,0.0,0.0,0.0,0.0,0.0,0.0,0.0,0.0,0.0,0.0,0.0,0.0,0.0,0.0,0.0,0.0,0.0,0.0,0.0,0.0,0.0,0.0,0.0,0.0,0.0,0.0,0.0,0.0,0.0,0.0,0.0,0.0,0.0,0.0,0.0,0.0,0.0,0.0,0.0,0.0,0.0,0.0,0.0,0.0,0.0,0.0,0.0,0.0,0.0,0.0,0.0,0.0,0.0,0.0,0.0,0.0,0.0,0.0,0.0,0.0,0.0,0.0,0.0,0.0,0.0,0.0,0.0,0.0,0.0,0.0,0.0,0.0,0.0,0.0,0.0,0.0,0.0,0.0,0.0,0.0,0.0,0.0,0.0,0.0,0.0,0.0,0.0,0.0,0.0,0.0,0.0,0.0,0.0,0.0,0.0,0.0,0.0,0.0,0.0,0.0,0.0,0.0,0.0,0.0,0.0,0.0,-1.9282,-2.057,-2.201,-2.3446,-1.996,-1.9023,0.0,0.0,0.0,0.0,0.0,0.0,0.0,0.0,0.0,0.0,0.0,0.0,0.0,0.0,0.0,0.0,0.0,0.0,0.0,0.0,0.0,0.0,0.0,0.0,0.0,0.0,0.0,0.0,0.0,0.0,0.0,0.0,0.0,0.0,0.0,0.0,0.0,0.0,0.0,0.0,0.0,0.0,0.0,0.0,0.0,0.0,0.0,0.0,0.0,0.0,0.0,0.0,0.0,0.0,0.0,0.0,0.0,0.0,0.0,0.0,0.0,0.0,0.0,0.0,0.0,0.0,0.0,0.0,0.0,0.0,0.0,0.0,0.0,0.0,0.0,0.0,0.0,0.0,0.0,0.0,0.0,0.0,0.0,0.0,0.0,0.0,0.0,0.0,0.0,0.0,0.0,0.0,0.0,0.0,0.0,0.0,0.0,0.0,0.0,0.0,0.0,0.0,0.0,0.0,0.0,0.0,0.0,0.0,0.0,-1.9001,-2.077,-2.216,-2.2999,-1.9773,-1.893,-2.0776,0.0,0.0,0.0,0.0,0.0,0.0,0.0,0.0,0.0,0.0,0.0,0.0,0.0,0.0,0.0,0.0,0.0,0.0,0.0,0.0,0.0,0.0,0.0,0.0,0.0,0.0,0.0,0.0,0.0,0.0,0.0,0.0,0.0,0.0,0.0,0.0,0.0,0.0,0.0,0.0,0.0,0.0,0.0,0.0,0.0,0.0,0.0,0.0,0.0,0.0,0.0,0.0,0.0,0.0,0.0,0.0,0.0,0.0,0.0,0.0,0.0,0.0,0.0,0.0,0.0,0.0,0.0,0.0,0.0,0.0,0.0,0.0,0.0,0.0,0.0,0.0,0.0,0.0,0.0,0.0,0.0,0.0,0.0,0.0,0.0,0.0,0.0,0.0,0.0,0.0,0.0,0.0,0.0,0.0,0.0,0.0,0.0,0.0,0.0,0.0,0.0,0.0,0.0,0.0,0.0,0.0,0.0,0.0,-2.0137,-2.2667,-2.3085,-2.1113,-2.0061,-1.8906,0.0,0.0,0.0,0.0,0.0,0.0,0.0,0.0,0.0,0.0,0.0,0.0,0.0,0.0,0.0,0.0,0.0,0.0,0.0,0.0,0.0,0.0,0.0,0.0,0.0,0.0,0.0,0.0,0.0,0.0,0.0,0.0,0.0,0.0,0.0,0.0,0.0,0.0,0.0,0.0,0.0,0.0,0.0,0.0,0.0,0.0,0.0,0.0,0.0,0.0,0.0,0.0,0.0,0.0,0.0,0.0,0.0,0.0,0.0,0.0,0.0,0.0,0.0,0.0,0.0,0.0,0.0,0.0,0.0,0.0,0.0,0.0,0.0,0.0,0.0,0.0,0.0,0.0,0.0,0.0,0.0,0.0,0.0,0.0,0.0,0.0,0.0,0.0,0.0,0.0,0.0,0.0,0.0,0.0,0.0,0.0,0.0,0.0,0.0,0.0,0.0,0.0,0.0,0.0,0.0,0.0,0.0,0.0,0.0,-2.0767,-2.3853,-2.5192,-2.4395,-2.0788,-1.952,0.0,0.0,0.0,0.0,0.0,0.0,0.0,0.0,0.0,0.0,0.0,0.0,0.0,0.0,0.0,0.0,0.0,0.0,0.0,0.0,0.0,0.0,0.0,0.0,0.0,0.0,0.0,0.0,0.0,0.0,0.0,0.0,0.0,0.0,0.0,0.0,0.0,0.0,0.0,0.0,0.0,0.0,0.0,0.0,0.0,0.0,0.0,0.0,0.0,0.0,0.0,0.0,0.0,0.0,0.0,0.0,0.0,0.0,0.0,0.0,0.0,0.0,0.0,0.0,0.0,0.0,0.0,0.0,0.0,0.0,0.0,0.0,0.0,0.0,0.0,0.0,0.0,0.0,0.0,0.0,0.0,0.0,0.0,0.0,0.0,0.0,0.0,0.0,0.0,0.0,0.0,0.0,0.0,0.0,0.0,0.0,0.0,0.0,0.0,0.0,0.0,0.0,0.0,0.0,0.0,0.0,0.0,0.0,-2.0439,-2.1797,-2.4923,-2.644,-2.6109,-2.2811,-2.0862,0.0,0.0,0.0,0.0,0.0,0.0,0.0,0.0,0.0,0.0,0.0,0.0,0.0,0.0,0.0,0.0,0.0,0.0,0.0,0.0,0.0,0.0,0.0,0.0,0.0,0.0,0.0,0.0,0.0,0.0,0.0,0.0,0.0,0.0,0.0,0.0,0.0,0.0,0.0,0.0,0.0,0.0,0.0,0.0,0.0,0.0,0.0,0.0,0.0,0.0,0.0,0.0,0.0,0.0,0.0,0.0,0.0,0.0,0.0,0.0,0.0,0.0,0.0,0.0,0.0,0.0,0.0,0.0,0.0,0.0,0.0,0.0,0.0,0.0,0.0,0.0,0.0,0.0,0.0,0.0,0.0,0.0,0.0,0.0,0.0,0.0,0.0,0.0,0.0,0.0,0.0,0.0,0.0,0.0,0.0,0.0,0.0,0.0,0.0,0.0,0.0,0.0,0.0,0.0,0.0,0.0,0.0,0.0,-2.1479,-2.2845,-2.5777,-2.7043,-2.6428,-2.5023,-2.24,0.0,0.0,0.0,0.0,0.0,0.0,0.0,0.0,0.0,0.0,0.0,0.0,0.0,0.0,0.0,0.0,0.0,0.0,0.0,0.0,0.0,0.0,0.0,0.0,0.0,0.0,0.0,0.0,0.0,0.0,0.0,0.0,0.0,0.0,0.0,0.0,0.0,0.0,0.0,0.0,0.0,0.0,0.0,0.0,0.0,0.0,0.0,0.0,0.0,0.0,0.0,0.0,0.0,0.0,0.0,0.0,0.0,0.0,0.0,0.0,0.0,0.0,0.0,0.0,0.0,0.0,0.0,0.0,0.0,0.0,0.0,0.0,0.0,0.0,0.0,0.0,0.0,0.0,0.0,0.0,0.0,0.0,0.0,0.0,0.0,0.0,0.0,0.0,0.0,0.0,0.0,0.0,0.0,0.0,0.0,0.0,0.0,0.0,0.0,0.0,0.0,0.0,0.0,0.0,0.0,0.0,0.0,0.0,-2.0787,-2.2141,-2.5521,-2.6933,-2.6199,-2.3694,-2.1704,0.0,0.0,0.0,0.0,0.0,0.0,0.0,0.0,0.0,0.0,0.0,0.0,0.0,0.0,0.0,0.0,0.0,0.0,0.0,0.0,0.0,0.0,0.0,0.0,0.0,0.0,0.0,0.0,0.0,0.0,0.0,0.0,0.0,0.0,0.0,0.0,0.0,0.0,0.0,0.0,0.0,0.0,0.0,0.0,0.0,0.0,0.0,0.0,-1.1533,0.0,0.0,0.0,0.0,0.0,0.0,0.0,0.0,0.0,0.0,0.0,0.0,0.0,0.0,0.0,0.0,0.0,0.0,0.0,0.0,0.0,0.0,0.0,0.0,0.0,0.0,0.0,0.0,0.0,0.0,0.0,0.0,0.0,0.0,0.0,0.0,0.0,0.0,0.0,0.0,0.0,0.0,0.0,0.0,0.0,0.0,0.0,0.0,0.0,0.0,0.0,0.0,0.0,0.0,0.0,0.0,0.0,0.0,0.0,-2.1278,-2.3123,-2.5857,-2.6919,-2.6057,-2.3658,-2.2,0.0,0.0,0.0,0.0,0.0,0.0,0.0,0.0,0.0,0.0,0.0,0.0,0.0,0.0,0.0,0.0,0.0,0.0,0.0,0.0,0.0,0.0,0.0,0.0,0.0,0.0,0.0,0.0,0.0,0.0,0.0,0.0,0.0,0.0,0.0,0.0,0.0,0.0,0.0,0.0,0.0,0.0,0.0,0.0,0.0,0.0,0.0,0.0,0.0,0.0,0.0,0.0,0.0,0.0,0.0,0.0,0.0,0.0,0.0,0.0,0.0,0.0,0.0,0.0,0.0,0.0,0.0,0.0,0.0,0.0,0.0,0.0,0.0,0.0,0.0,0.0,0.0,0.0,0.0,0.0,0.0,0.0,0.0,0.0,0.0,0.0,0.0,0.0,0.0,0.0,0.0,0.0,0.0,0.0,0.0,0.0,0.0,0.0,0.0,0.0,0.0,0.0,0.0,0.0,0.0,0.0,0.0,-2.0423,-2.2068,-2.4282,-2.6127,-2.673,-2.5937,-2.3685,-2.2195,-2.1641,0.0,0.0,0.0,0.0,0.0,0.0,0.0,0.0,0.0,0.0,0.0,0.0,0.0,0.0,0.0,0.0,0.0,0.0,0.0,0.0,0.0,0.0,0.0,0.0,0.0,0.0,0.0,0.0,0.0,0.0,0.0,0.0,0.0,0.0,0.0,0.0,0.0,0.0,-1.207,-1.2514,0.0,0.0,0.0,0.0,0.0,0.0,0.0,0.0,-1.1774,0.0,0.0,0.0,0.0,0.0,0.0,0.0,0.0,0.0,0.0,0.0,0.0,0.0,0.0,0.0,0.0,0.0,0.0,0.0,0.0,0.0,0.0,0.0,0.0,0.0,0.0,0.0,0.0,0.0,0.0,0.0,0.0,0.0,0.0,0.0,0.0,0.0,0.0,0.0,0.0,0.0,0.0,0.0,0.0,0.0,0.0,0.0,0.0,0.0,0.0,0.0,0.0,0.0,0.0,0.0,0.0,-2.001,-2.0826,-2.2004,-2.3553,-2.5339,-2.5954,-2.5126,-2.1861,-2.062,-2.1692,0.0,0.0,0.0,0.0,0.0,0.0,0.0,0.0,0.0,0.0,0.0,0.0,0.0,0.0,0.0,0.0,0.0,0.0,0.0,0.0,0.0,0.0,0.0,0.0,0.0,0.0,0.0,0.0,0.0,0.0,0.0,0.0,0.0,0.0,0.0,0.0,0.0,0.0,0.0,-1.2586,-1.2885,0.0,0.0,0.0,0.0,0.0,0.0,0.0,0.0,-1.1463,0.0,0.0,0.0,0.0,0.0,0.0,0.0,0.0,0.0,0.0,0.0,0.0,0.0,0.0,0.0,0.0,0.0,0.0,0.0,0.0,0.0,0.0,0.0,0.0,0.0,0.0,0.0,0.0,0.0,0.0,0.0,0.0,0.0,0.0,0.0,0.0,0.0,0.0,0.0,0.0,0.0,0.0,0.0,0.0,0.0,0.0,0.0,0.0,0.0,0.0,0.0,0.0,0.0,0.0,0.0,-1.9838,-2.0665,-2.1864,-2.3557,-2.4849,-2.5029,-2.3927,-2.073,-1.958,0.0,0.0,0.0,0.0,0.0,0.0,0.0,0.0,0.0,0.0,0.0,0.0,0.0,0.0,0.0,0.0,0.0,0.0,0.0,0.0,0.0,0.0,0.0,0.0,0.0,0.0,0.0,0.0,0.0,0.0,0.0,0.0,0.0,0.0,0.0,0.0,0.0,0.0,0.0,0.0,-1.2855,-1.3139,-1.2585,0.0,0.0,0.0,0.0,0.0,0.0,-1.2131,-1.2008,0.0,0.0,0.0,0.0,0.0,0.0,0.0,0.0,0.0,0.0,0.0,0.0,0.0,0.0,0.0,0.0,0.0,0.0,0.0,0.0,0.0,0.0,0.0,0.0,0.0,0.0,0.0,0.0,0.0,0.0,0.0,0.0,0.0,0.0,0.0,0.0,0.0,0.0,0.0,0.0,0.0,0.0,0.0,0.0,0.0,0.0,0.0,0.0,0.0,0.0,0.0,0.0,0.0,0.0,0.0,-1.9624,-2.0471,-2.1769,-2.3512,-2.4229,-2.3908,-2.2531,-1.9632,-1.848,0.0,0.0,0.0,0.0,0.0,0.0,0.0,0.0,0.0,0.0,0.0,0.0,0.0,0.0,0.0,0.0,0.0,0.0,0.0,0.0,0.0,0.0,0.0,0.0,0.0,0.0,0.0,0.0,0.0,0.0,0.0,0.0,0.0,0.0,0.0,0.0,0.0,0.0,0.0,0.0,0.0,-1.351,-1.2596,-1.3619,0.0,0.0,0.0,0.0,-1.3388,-1.2881,0.0,0.0,0.0,0.0,0.0,0.0,0.0,0.0,0.0,0.0,0.0,0.0,0.0,0.0,0.0,0.0,0.0,0.0,0.0,0.0,0.0,0.0,0.0,0.0,0.0,0.0,0.0,0.0,0.0,0.0,0.0,0.0,0.0,0.0,0.0,0.0,0.0,0.0,0.0,0.0,0.0,0.0,0.0,0.0,0.0,0.0,0.0,0.0,0.0,0.0,0.0,0.0,0.0,0.0,0.0,0.0,-1.9667,-2.0666,-2.1693,-2.2771,-2.2892,-2.2323,-2.097,-1.8102,-1.6939,0.0,0.0,0.0,0.0,0.0,0.0,0.0,0.0,0.0,0.0,0.0,0.0,0.0,0.0,0.0,0.0,0.0,0.0,0.0,0.0,0.0,0.0,0.0,0.0,0.0,0.0,0.0,0.0,0.0,0.0,0.0,0.0,0.0,0.0,0.0,0.0,0.0,0.0,0.0,0.0,0.0,-1.4065,-1.3444,-1.4233,-1.4661,0.0,0.0,-1.3244,-1.3307,-1.3178,0.0,0.0,0.0,0.0,0.0,0.0,0.0,0.0,0.0,0.0,0.0,0.0,0.0,0.0,0.0,0.0,0.0,0.0,0.0,0.0,0.0,0.0,0.0,0.0,0.0,0.0,0.0,0.0,0.0,0.0,0.0,0.0,0.0,0.0,0.0,0.0,0.0,0.0,0.0,0.0,0.0,0.0,0.0,0.0,0.0,0.0,0.0,0.0,0.0,0.0,0.0,0.0,0.0,0.0,0.0,-1.7922,-1.9009,-1.9572,-2.0381,-2.1342,-2.098,-2.0385,-1.9585,-1.6112,-1.5276,0.0,0.0,0.0,0.0,0.0,0.0,0.0,0.0,0.0,0.0,0.0,0.0,0.0,0.0,0.0,0.0,0.0,0.0,0.0,0.0,0.0,0.0,0.0,0.0,0.0,0.0,0.0,0.0,0.0,0.0,0.0,0.0,0.0,0.0,0.0,0.0,0.0,0.0,0.0,0.0,0.0,0.0,-1.3504,-1.4425,0.0,0.0,0.0,-1.3962,-1.3662,0.0,0.0,0.0,0.0,0.0,0.0,0.0,0.0,0.0,0.0,0.0,0.0,0.0,0.0,0.0,0.0,0.0,0.0,0.0,0.0,0.0,0.0,0.0,0.0,0.0,0.0,0.0,0.0,0.0,0.0,0.0,0.0,0.0,0.0,0.0,0.0,0.0,0.0,0.0,0.0,0.0,0.0,0.0,0.0,0.0,0.0,0.0,0.0,0.0,0.0,0.0,0.0,0.0,0.0,0.0,0.0,0.0,-1.8576,-1.8427,-1.9011,-2.0325,-1.9481,-1.8704,-1.802,-1.4591,0.0,0.0,0.0,0.0,0.0,0.0,0.0,0.0,0.0,0.0,0.0,0.0,0.0,0.0,0.0,0.0,0.0,0.0,0.0,0.0,0.0,0.0,0.0,0.0,0.0,0.0,0.0,-1.1608,0.0,0.0,0.0,0.0,0.0,0.0,0.0,0.0,0.0,0.0,0.0,0.0,0.0,0.0,-1.4573,-1.3729,-1.4705,-1.5182,0.0,0.0,-1.4542,-1.3868,-1.402,-1.4026,0.0,0.0,0.0,0.0,0.0,0.0,0.0,0.0,0.0,0.0,0.0,0.0,0.0,0.0,0.0,0.0,0.0,0.0,0.0,0.0,0.0,0.0,0.0,0.0,0.0,0.0,0.0,0.0,0.0,0.0,0.0,0.0,0.0,0.0,0.0,0.0,0.0,0.0,0.0,0.0,0.0,0.0,0.0,0.0,0.0,0.0,0.0,0.0,0.0,0.0,0.0,0.0,0.0,0.0,0.0,-1.8735,-1.7535,-1.8007,-2.0257,-1.8999,-1.7636,-1.6291,-1.4,-1.32,0.0,0.0,0.0,0.0,0.0,0.0,0.0,0.0,0.0,0.0,0.0,0.0,0.0,0.0,0.0,0.0,0.0,0.0,0.0,0.0,0.0,0.0,0.0,0.0,0.0,0.0,0.0,0.0,0.0,0.0,0.0,0.0,0.0,0.0,0.0,0.0,0.0,0.0,0.0,0.0,0.0,-1.5118,-1.4482,-1.5227,-1.55,0.0,0.0,-1.4645,-1.3755,-1.4345,-1.4604,-1.3714,0.0,0.0,0.0,0.0,0.0,0.0,0.0,0.0,0.0,0.0,0.0,0.0,0.0,0.0,0.0,0.0,0.0,0.0,0.0,0.0,0.0,0.0,0.0,0.0,0.0,0.0,0.0,0.0,0.0,0.0,0.0,0.0,0.0,0.0,0.0,0.0,0.0,0.0,0.0,0.0,0.0,0.0,0.0,0.0,0.0,0.0,0.0,0.0,0.0,0.0,0.0,0.0,0.0,-1.6399,-1.8183,-1.6846,-1.7106,-1.8879,-1.7532,-1.63,-1.5451,-1.3531,-1.2486,0.0,0.0,0.0,0.0,0.0,0.0,0.0,0.0,0.0,0.0,0.0,0.0,0.0,0.0,0.0,0.0,0.0,0.0,0.0,0.0,0.0,0.0,0.0,0.0,0.0,0.0,0.0,0.0,-1.0085,-0.9965,-1.0428,0.0,0.0,0.0,0.0,0.0,0.0,0.0,0.0,0.0,0.0,-1.4328,-1.4343,-1.4655,0.0,0.0,-1.4697,-1.4676,-1.3765,-1.4159,-1.4252,-1.3341,-1.3331,0.0,0.0,0.0,0.0,0.0,0.0,0.0,0.0,0.0,0.0,0.0,0.0,0.0,0.0,0.0,0.0,0.0,0.0,0.0,0.0,0.0,0.0,0.0,0.0,0.0,0.0,0.0,0.0,0.0,0.0,0.0,0.0,0.0,0.0,0.0,0.0,0.0,0.0,0.0,0.0,0.0,0.0,0.0,0.0,0.0,0.0,0.0,0.0,0.0,0.0,0.0,0.0,-1.5807,-1.7543,-1.5735,-1.5691,-1.7466,-1.6207,-1.5107,-1.4267,-1.2998,-1.206,0.0,0.0,0.0,0.0,0.0,0.0,0.0,0.0,0.0,0.0,0.0,0.0,0.0,0.0,0.0,0.0,0.0,0.0,0.0,0.0,0.0,0.0,0.0,0.0,0.0,0.0,0.0,0.0,-1.0133,-1.0312,-1.0673,0.0,0.0,0.0,0.0,0.0,0.0,0.0,0.0,0.0,0.0,-1.3941,-1.4262,-1.4542,-1.4666,-1.4531,-1.4904,-1.4883,-1.3962,-1.4097,-1.4035,-1.3258,0.0,0.0,0.0,0.0,0.0,0.0,0.0,0.0,0.0,0.0,0.0,0.0,0.0,0.0,0.0,0.0,0.0,0.0,0.0,0.0,0.0,0.0,0.0,0.0,0.0,0.0,0.0,0.0,0.0,0.0,-2.1078,0.0,0.0,0.0,0.0,0.0,0.0,0.0,0.0,0.0,0.0,0.0,0.0,0.0,0.0,0.0,0.0,0.0,0.0,0.0,0.0,0.0,0.0,-1.4779,-1.693,-1.4142,-1.371,-1.5881,-1.5228,-1.4139,-1.2653,-1.2379,-1.2008,-1.1456,0.0,0.0,0.0,0.0,0.0,0.0,0.0,0.0,0.0,0.0,0.0,0.0,0.0,0.0,0.0,0.0,0.0,0.0,0.0,0.0,0.0,0.0,0.0,0.0,0.0,0.0,-1.2035,-1.0365,-0.9404,0.0,0.0,0.0,0.0,0.0,0.0,0.0,0.0,0.0,0.0,-1.3714,-1.4283,-1.4283,-1.5049,-1.5401,-1.4997,-1.5339,-1.5318,-1.4397,-1.4283,-1.4148,0.0,0.0,0.0,0.0,0.0,0.0,0.0,0.0,0.0,0.0,0.0,0.0,0.0,0.0,0.0,0.0,0.0,0.0,0.0,0.0,0.0,0.0,0.0,0.0,0.0,0.0,0.0,-2.2517,-2.3202,0.0,0.0,0.0,0.0,0.0,0.0,0.0,0.0,0.0,0.0,0.0,-1.9611,-1.9592,0.0,0.0,0.0,0.0,0.0,0.0,0.0,0.0,0.0,0.0,0.0,0.0,-1.5245,-1.6794,-1.4486,-1.404,-1.5813,-1.5123,-1.4021,-1.2534,-1.1638,-1.1395,-1.1861,0.0,0.0,0.0,0.0,0.0,0.0,0.0,0.0,0.0,0.0,0.0,0.0,0.0,0.0,0.0,0.0,0.0,0.0,0.0,0.0,0.0,0.0,0.0,0.0,0.0,-1.1893,0.0,0.0,0.0,0.0,0.0,0.0,0.0,0.0,0.0,0.0,0.0,-1.2482,-1.2482,-1.3279,-1.3734,-1.3434,-1.3921,-1.4252,0.0,0.0,0.0,0.0,0.0,0.0,0.0,0.0,0.0,0.0,0.0,0.0,0.0,0.0,-1.4883,-1.3758,-1.3163,-1.2871,-1.3025,0.0,0.0,0.0,0.0,0.0,0.0,0.0,0.0,0.0,0.0,0.0,0.0,0.0,0.0,-2.207,0.0,-2.2718,0.0,0.0,0.0,0.0,0.0,0.0,0.0,0.0,-2.0481,-2.0695,-2.042,-2.0406,-2.0257,0.0,-1.9265,-1.8599,0.0,0.0,0.0,0.0,0.0,0.0,0.0,0.0,-1.5262,-1.6107,-1.4211,-1.3798,-1.502,-1.459,-1.3609,-1.2155,-1.0791,-1.0221,-1.0514,-1.0596,-1.1071,0.0,0.0,0.0,0.0,0.0,0.0,0.0,0.0,0.0,0.0,0.0,0.0,0.0,0.0,0.0,0.0,0.0,0.0,0.0,0.0,0.0,0.0,0.0,-1.1618,0.0,0.0,0.0,0.0,0.0,0.0,0.0,0.0,0.0,-1.1851,-1.2256,-1.2492,-1.2536,-1.301,-1.332,-1.3186,0.0,0.0,0.0,0.0,0.0,0.0,0.0,-1.4035,-1.389,-1.4242,-1.4552,-1.4552,-1.5049,-1.5442,-1.5452,0.0,0.0,-1.4469,-1.376,-1.349,-1.4016,-1.3263,-1.2698,-1.3192,-1.2748,-1.2341,0.0,0.0,0.0,0.0,0.0,0.0,0.0,0.0,-2.1395,-2.1812,0.0,-2.2585,0.0,0.0,0.0,0.0,0.0,-2.0982,0.0,0.0,-2.0653,-2.0578,-1.9899,-1.9886,-1.9456,-1.8752,-1.9882,-1.9738,-1.8434,-1.7184,0.0,0.0,0.0,0.0,0.0,0.0,-1.4848,-1.4831,-1.3415,-1.2914,-1.3605,-1.3639,-1.2914,-1.1443,-0.9956,-0.8729,-0.783,-1.0025,-1.1356,-1.1477,-1.4143,0.0,0.0,0.0,0.0,0.0,0.0,0.0,0.0,0.0,0.0,0.0,0.0,0.0,0.0,0.0,0.0,0.0,0.0,0.0,0.0,-1.2588,0.0,0.0,0.0,0.0,0.0,0.0,0.0,0.0,0.0,0.0,-1.2488,-1.2746,-1.2962,-1.2962,0.0,0.0,0.0,0.0,-1.3776,-1.42,-1.4656,-1.478,-1.4345,-1.4656,-1.48,-1.4366,0.0,0.0,-1.5038,-1.5049,-1.509,-1.5059,-1.509,-1.5163,-1.5577,-1.4904,-1.448,-1.4852,-1.4184,-1.3755,-1.4037,-1.3695,-1.3266,-2.5483,0.0,0.0,0.0,0.0,-2.4419,-2.4176,-2.4109,-2.2887,-2.2824,-2.3513,-2.2918,0.0,0.0,0.0,0.0,0.0,0.0,-2.117,-2.1536,-2.2289,-2.2555,-2.2335,-2.2335,-2.2223,-2.198,-2.0583,-1.9694,-1.9199,-1.7725,-1.7587,-1.8667,0.0,0.0,0.0,0.0,-1.559,-1.5538,-1.4641,-1.395,-1.3605,-1.3605,-1.2897,-1.1443,-1.0411,-0.9496,-0.8719,-0.9368,-1.0526,-1.2103,-1.294,0.0,0.0,0.0,0.0,0.0,0.0,0.0,0.0,0.0,0.0,0.0,0.0,0.0,0.0,0.0,0.0,0.0,0.0,0.0,-1.405,-1.295,-1.2542,0.0,0.0,0.0,0.0,0.0,0.0,0.0,0.0,0.0,-1.4261,-1.4115,-1.3981,0.0,0.0,-1.4438,-1.4294,-1.4222,-1.4125,-1.3845,-1.398,0.0,-1.3828,-1.42,-1.4459,-1.4324,-1.4966,-1.5597,-1.5929,-1.598,-1.5991,-1.596,-1.5722,-1.5535,-1.5608,-1.5214,-1.4873,-1.4945,-1.4779,-1.4614,-1.4736,-1.4609,-1.435,-2.598,-2.5642,-2.5658,-2.5437,-2.5033,-2.4496,-2.4308,-2.4341,-2.3257,-2.3248,-2.4004,-2.3467,-2.293,-2.2412,-2.2,0.0,0.0,0.0,-2.1975,-2.2745,-2.3214,-2.3611,-2.3896,-2.3917,-2.373,-2.3371,-2.1901,-2.0956,-2.0555,-1.897,-1.8915,-2.0163,0.0,0.0,-1.8164,-1.7081,-1.6341,-1.5992,-1.5211,-1.4571,-1.4087,-1.3515,-1.2771,-1.1888,-1.0786,-1.0135,-1.0025,-0.942,-1.0135,-1.2393,-1.2456,-1.2927,0.0,0.0,0.0,0.0,0.0,0.0,0.0,0.0,0.0,0.0,0.0,-1.3987,0.0,0.0,0.0,0.0,-1.2032,-1.2568,-1.262,-1.2861,0.0,0.0,0.0,0.0,0.0,0.0,0.0,-1.5167,-1.5116,-1.5191,-1.5588,-1.5405,-1.5116,-1.4769,-1.4817,-1.4878,-1.4755,0.0,-1.4098,-1.3909,-1.381,-1.3716,-1.3621,-1.4003,-1.4366,-1.4552,-1.5028,-1.5484,-1.5763,-1.5835,-1.5825,-1.5804,-1.5608,-1.5421,-1.5411,-1.5183,-1.4997,-1.4987,-1.4852,-1.478,-1.4945,-1.5142,-1.5142,-2.6419,-2.5707,-2.5642,-2.5157,-2.4413,-2.435,-2.3872,-2.3118,-2.3062,-2.3404,-2.4064,-2.4034,-2.3967,-2.3851,-2.2997,0.0,-2.3591,-2.2835,-2.2908,-2.3596,-2.3614,-2.3994,-2.4689,-2.4679,-2.432,-2.3581,-2.3461,-2.3004,-2.2152,-2.0564,-2.0537,-2.1792,-1.9387,-1.8073,-1.7989,-1.7629,-1.7064,-1.6341,-1.547,-1.4933,-1.4778,-1.3424,-1.2644,-1.2589,-1.1162,-1.0704,-1.1322,-0.9973,-1.0215,-1.2344,-1.2396,-1.3074,-1.4555,0.0,0.0,0.0,0.0,0.0,0.0,0.0,0.0,0.0,0.0,0.0,0.0,0.0,0.0,0.0,-1.0765,0.0,-0.9967,-1.2667,0.0,0.0,0.0,-1.6683,-1.6049,-1.6098,-1.6256,-1.6509,0.0,0.0,-1.6479,-1.6522,-1.6207,-1.5379,-1.4946,-1.4873,-1.5232,-1.4485,-1.3994,-1.4365,-1.3999,-1.3621,-1.3631,-1.4003,-1.4459,-1.4863,-1.4997,-1.5038,-1.5049,-1.5049,-1.5018,-1.5059,-1.4976,-1.4945,-1.4945,-1.4883,-1.4883,-1.4842,-1.4624,-1.4521,-1.4914,-1.5287,-1.5411,-2.5896,-2.5697,-2.5689,-2.5566,-2.5366,-2.535,-2.5188,-2.4944,-2.4888,-2.4574,-2.4111,-2.4075,-2.3685,-2.2997,-2.2727,-2.3023,-2.3739,-2.3428,-2.3752,-2.4478,-2.4437,-2.452,-2.4689,-2.4692,-2.4598,-2.4388,-2.3787,-2.3345,-2.3,-2.1461,-2.084,-2.1086,-1.9857,-1.9413,-1.9709,-1.8351,-1.755,-1.7337,-1.701,-1.6203,-1.4846,-1.3861,-1.3117,-1.2532,-1.2155,-1.1775,-1.1408,-1.0475,-1.0722,-1.2362,-1.1585,-1.1244,-1.1613,-1.1471,0.0,0.0,0.0,0.0,0.0,0.0,0.0,0.0,0.0,-1.4602,-1.4437,0.0,-1.4436,0.0,-1.0767,-1.1204,-1.4941,-1.4072,0.0,0.0,-1.6512,-1.6909,-1.6709,-1.6701,-1.6735,-1.6791,-1.6748,-1.6705,-1.6791,-1.6833,-1.6778,-1.6509,-1.6323,-1.6262,-1.6487,-1.5733,-1.4992,-1.4687,-1.4233,-1.3868,-1.3805,-1.4063,-1.4449,-1.4925,-1.4987,-1.4997,-1.4997,-1.4997,-1.4997,-1.4976,-1.4697,-1.45,-1.4469,-1.419,-1.3972,-1.3993,-1.4397,-1.4852,-1.4976,-1.509,-1.5028,-2.6053,-2.57,-2.5696,-2.5693,-2.5689,-2.5701,-2.5671,-2.5639,-2.5565,-2.5254,-2.4755,-2.4742,-2.444,-2.3948,-2.3842,-2.4022,-2.4396,-2.4322,-2.4477,-2.4832,-2.4779,-2.4753,-2.4753,-2.4723,-2.4673,-2.4673,-2.4238,-2.4016,-2.3911,-2.2693,-2.205,-2.1988,-2.0784,-2.0321,-2.0504,-1.9043,-1.8441,-1.8767,-1.7524,-1.6062,-1.4443,-1.3908,-1.3617,-1.3548,-1.286,-1.2635,-1.2877,-1.1498,-1.1615,-1.338,-1.25,-1.1326,-1.0014,-0.9895,-1.1058,0.0,0.0,0.0,0.0,0.0,0.0,0.0,0.0,0.0,0.0,0.0,-1.5591,-1.4846,-1.2464,-1.2568,-1.648,-1.5358,-1.5021,-1.6554,-1.6931,-1.7031,-1.696,-1.7002,-1.6989,-1.6918,-1.6918,-1.6918,-1.6918,-1.6931,-1.696,-1.6931,-1.6888,-1.6863,-1.6873,-1.6279,-1.5656,-1.5062,-1.4628,-1.4186,-1.3858,-1.3876,-1.4086,-1.4314,-1.4386,-1.4386,-1.4386,-1.4386,-1.4386,-1.4366,-1.4169,-1.4003,-1.3993,-1.3807,-1.3621,-1.3683,-1.4014,-1.4335,-1.4386,-1.4542,-1.4552,-2.6561,-2.5856,-2.5756,-2.5696,-2.5696,-2.5691,-2.5687,-2.5705,-2.5639,-2.5601,-2.5598,-2.5535,-2.5499,-2.5479,-2.5354,-2.5265,-2.5214,-2.5156,-2.5044,-2.4902,-2.4818,-2.4794,-2.4779,-2.4719,-2.4673,-2.4673,-2.4673,-2.4676,-2.466,-2.3836,-2.3412,-2.3329,-2.1726,-2.0933,-2.0908,-1.9685,-1.9288,-1.9777,-1.7595,-1.58,-1.4502,-1.4176,-1.4371,-1.4932,-1.3478,-1.3277,-1.4519,-1.2653,-1.2497,-1.4468,-1.3967,-1.2534,-1.0197,-1.0402,-1.2137,0.0,-1.6024,0.0,0.0,0.0,0.0,0.0,0.0,0.0,0.0,-1.5878,-1.6702,-1.716,-1.4768,-1.4114,-1.6297,-1.6375,-1.6336,-1.6493,-1.6911,-1.7157,-1.7031,-1.7115,-1.7115,-1.696,-1.7002,-1.7002,-1.6973,-1.6918,-1.696,-1.7002,-1.7031,-1.7015,-1.6918,-1.6509,-1.5996,-1.5567,-1.5073,-1.449,-1.3905,-1.3726,-1.3652,-1.3641,-1.3683,-1.361,-1.3672,-1.3662,-1.3641,-1.3641,-1.3662,-1.3641,-1.361,-1.3621,-1.3621,-1.3621,-1.3672,-1.3683,-1.3703,-1.3962,-1.4066,-2.6914,-2.6679,-2.5995,-2.5702,-2.5701,-2.5696,-2.5691,-2.5705,-2.5639,-2.5601,-2.5598,-2.5526,-2.5479,-2.5426,-2.5346,-2.5265,-2.5198,-2.5132,-2.5006,-2.4902,-2.4837,-2.4783,-2.4723,-2.4707,-2.4673,-2.4673,-2.4673,-2.4673,-2.4673,-2.3881,-2.3457,-2.3352,-2.1718,-2.1241,-2.1719,0.0,0.0,0.0,-1.8387,-1.8163,-1.7536,-1.6463,-1.5848,-1.5766,-1.4291,0.0,-1.3777,-1.2828,-1.2759,-1.3743,-1.3674,0.0,0.0,0.0,0.0,0.0,0.0,0.0,0.0,0.0,0.0,0.0,-1.7684,-1.7491,-1.6658,-1.6877,-1.7081,-1.7146,-1.5853,-1.5565,-1.6898,-1.6205,-1.6036,-1.6937,-1.7146,-1.7199,-1.7157,-1.7199,-1.7212,-1.7157,-1.717,-1.717,-1.717,-1.7157,-1.717,-1.717,-1.7157,-1.7157,-1.717,-1.6723,-1.6423,-1.6238,-1.549,-1.4582,-1.3752,-1.3705,-1.3716,-1.3668,-1.361,-1.361,-1.361,-1.361,-1.361,-1.361,-1.361,-1.361,-1.361,-1.361,-1.361,-1.361,-1.361,-1.361,-1.3621,-1.3683,-1.3724,-2.6738,0.0,-2.5878,-2.5702,0.0,-2.567,-2.5664,-2.5689,-2.5676,-2.5639,-2.5598,-2.5546,-2.548,-2.5452,-2.5343,-2.5274,-2.5254,-2.5184,-2.512,-2.5044,-2.4907,-2.4837,-2.479,-2.4719,-2.4673,-2.4673,-2.4673,-2.4673,-2.4689,-2.4276,-2.3675,-2.2857,-2.1952,-2.1344,-2.0882,-1.977,-1.8533,-1.7167,-1.7464,-1.7168,-1.6203,-1.5496,-1.5412,-1.5975,-1.4881,0.0,0.0,0.0,0.0,0.0,0.0,0.0,0.0,-1.6419,0.0,-1.6995,-1.6843,-1.6993,-1.7669,-1.7945,-1.8157,-1.8329,-1.8673,-1.8491,-1.7639,-1.7301,-1.7196,-1.7242,-1.6205,-1.5957,-1.7029,-1.6441,-1.6284,-1.7081,-1.7212,-1.7212,-1.7212,-1.7212,-1.7212,-1.7212,-1.7212,-1.7212,-1.7212,-1.7212,-1.7212,-1.7212,-1.7212,-1.7212,-1.7212,-1.6989,-1.6778,-1.6509,-1.5522,-1.4674,-1.4201,-1.3847,-1.3716,-1.361,-1.361,-1.361,-1.361,-1.361,-1.361,-1.361,-1.361,-1.361,-1.361,-1.361,-1.361,-1.361,-1.361,-1.361,-1.361,-1.361,-1.361,-2.6719,-2.5898,-2.576,-2.57,-2.5677,-2.5637,-2.5634,-2.5687,0.0,0.0,0.0,-2.5532,-2.5479,-2.548,-2.534,-2.5301,-2.5263,-2.5067,-2.495,-2.4939,-2.462,-2.4555,-2.4661,-2.4553,-2.4576,-2.4692,-2.4673,-2.4692,-2.4676,-2.4676,-2.402,-2.2768,-2.2364,-2.1307,-1.9742,-1.9286,-1.8326,-1.6817,-1.6816,-1.6237,-1.4974,-1.4746,-1.5274,-1.6482,-1.554,-1.5332,-1.5974,-1.5936,-1.5899,-1.5916,-1.6484,-1.6844,-1.6901,-1.708,-1.6881,-1.6281,-1.6819,-1.7208,-1.7224,-1.8282,-1.903,-1.9308,-1.9466,-1.9207,-1.8249,-1.7611,-1.7322,-1.7451,-1.6256,-1.5956,-1.7006,-1.6585,-1.6493,-1.712,-1.7212,-1.7212,-1.7212,-1.7212,-1.7212,-1.7212,-1.7212,-1.7212,-1.7212,-1.7212,-1.7212,-1.7212,-1.7212,-1.7212,-1.7212,-1.7199,-1.6976,-1.6466,-1.5599,-1.488,-1.4617,-1.4118,-1.3705,-1.361,-1.361,-1.361,-1.361,-1.361,-1.361,-1.361,-1.361,-1.361,-1.361,-1.361,-1.361,-1.361,-1.361,-1.361,-1.361,-1.361,-1.361,-2.7576,-2.6688,-2.5976,-2.5673,-2.5609,-2.5668,-2.5664,-2.5613,-2.5609,-2.5605,-2.5598,-2.5526,-2.5473,-2.5403,-2.5335,-2.5264,-2.5175,-2.443,-2.4038,-2.3953,-2.3198,-2.3208,-2.3846,-2.3771,-2.4061,-2.4586,-2.4692,-2.4626,-2.4545,-2.4528,-2.4398,-2.4008,-2.275,-2.1176,-1.9643,-1.9292,-1.8683,-1.7671,-1.8843,-1.9282,-1.8889,-1.8376,-1.8074,-1.8007,-1.6603,-1.587,-1.5973,-1.5953,-1.5899,-1.5916,-1.6002,-1.6308,-1.6857,-1.7044,-1.7035,-1.6896,-1.7058,-1.7208,-1.7224,-1.7884,-1.8852,-1.9993,-2.0174,-1.9732,-1.8727,-1.8168,-1.7791,-1.7539,-1.6268,-1.5849,-1.6688,-1.615,-1.6075,-1.7042,-1.7212,-1.7212,-1.7212,-1.7212,-1.7212,-1.7212,-1.7212,-1.7212,-1.7212,-1.7212,-1.7212,-1.7212,-1.7212,-1.7212,-1.7212,-1.7212,-1.6976,-1.6454,-1.5964,-1.5377,-1.4835,-1.4222,-1.3952,-1.361,-1.3668,-1.3658,-1.361,-1.361,-1.361,-1.361,-1.361,-1.361,-1.361,-1.361,-1.361,-1.361,-1.361,-1.361,-1.361,-1.361,-1.361,-2.7929,-2.6335,-2.6365,-2.6082,-2.5598,-2.5639,-2.5632,-2.56,-2.5535,-2.5492,-2.5486,-2.5418,-2.5374,-2.5339,-2.5265,-2.5225,-2.5154,-2.4304,-2.3877,-2.3835,-2.3419,-2.3396,-2.3746,-2.4095,-2.4358,-2.4588,-2.4657,-2.4626,-2.4512,-2.4578,-2.4337,-2.3768,-2.211,-2.0674,-1.961,-1.9232,-1.8888,-1.8509,-1.8627,-1.8412,-1.78,-1.7524,-1.7524,-1.778,-1.704,-1.6653,-1.6653,-1.6956,-1.6932,-1.6519,-1.6915,-1.7274,-1.7517,-1.7679,-1.755,-1.7133,-1.755,-1.7822,-1.7746,-1.8729,-1.9592,-2.0258,-2.0304,-1.9947,-1.9101,-1.8237,-1.7777,-1.7705,-1.6033,-1.5497,-1.6756,-1.608,-1.5996,-1.7177,-1.7253,-1.7212,-1.7212,-1.7212,-1.7212,-1.7212,-1.7212,-1.7212,-1.7212,-1.7212,-1.7212,-1.7212,-1.7212,-1.7212,-1.7212,-1.7212,-1.7115,-1.6795,-1.6367,-1.5964,-1.5499,-1.5062,-1.4617,-1.4154,-1.4107,-1.3967,-1.3705,-1.361,-1.361,-1.361,-1.361,-1.361,-1.361,-1.361,-1.361,-1.361,-1.361,-1.361,-1.361,-1.361,-1.361,-2.8141,-2.6344,-2.6553,-2.6266,-2.5632,-2.5993,-2.5918,-2.5593,-2.565,-2.5556,-2.5393,-2.5322,-2.5313,-2.5284,-2.5233,-2.5212,-2.5086,-2.4304,-2.39,-2.3869,-2.361,-2.3562,-2.3765,-2.4242,-2.4376,-2.43,-2.4465,-2.447,-2.4236,-2.4468,-2.4169,-2.3233,-2.1826,-2.0812,-2.0154,-1.9747,-1.9559,-1.9574,-1.8789,-1.7932,-1.701,-1.6993,-1.7256,-1.7781,-1.758,-1.7437,-1.7474,-1.7928,-1.7914,-1.7346,-1.7845,-1.8172,-1.8087,-1.8234,-1.7936,-1.7272,-1.7748,-1.8084,-1.8038,-1.8977,-1.9749,-2.0073,-2.0073,-1.9857,-1.93,-1.8488,-1.7855,-1.7475,-1.596,-1.5442,-1.6504,-1.6211,-1.6179,-1.7205,-1.724,-1.7212,-1.7212,-1.7212,-1.7212,-1.7212,-1.7212,-1.7212,-1.7212,-1.7212,-1.7212,-1.7212,-1.7212,-1.7212,-1.7212,-1.7212,-1.7212,-1.7115,-1.671,-1.6312,-1.6269,-1.5644,-1.5062,-1.4549,-1.4376,-1.4061,-1.3752,-1.361,-1.361,-1.361,-1.361,-1.361,-1.361,-1.361,-1.361,-1.361,-1.361,-1.361,-1.361,-1.361,-1.361,-2.8176,-2.7733,-2.6373,-2.5683,-2.5751,-2.7036,-2.679,-2.5669,-2.6188,-2.6034,-2.5341,-2.5313,-2.5313,-2.5284,-2.5233,-2.5212,-2.5124,-2.4285,-2.39,-2.3782,-2.2942,-2.2925,-2.3566,-2.3468,-2.3295,-2.3305,-2.3988,-2.4005,-2.3433,-2.4025,-2.3985,-2.3328,-2.2866,-2.235,-2.1845,-2.1386,-2.1132,-2.1167,-2.0938,-2.0327,-1.9453,-1.938,-1.9415,-1.945,-1.863,-1.8186,-1.8151,-1.8205,-1.8155,-1.8107,-1.8138,-1.819,-1.8117,-1.8234,-1.7953,-1.7166,-1.729,-1.7358,-1.7316,-1.7408,-1.8146,-1.9225,-1.9441,-1.941,-1.9317,-1.9192,-1.8416,-1.7136,-1.6378,-1.6178,-1.6182,-1.6302,-1.6586,-1.7177,-1.7253,-1.7212,-1.7212,-1.7212,-1.7212,-1.7212,-1.7212,-1.7212,-1.7212,-1.7212,-1.7212,-1.7212,-1.7212,-1.7212,-1.7212,-1.7212,-1.7212,-1.7115,-1.6765,-1.6509,-1.6312,-1.5555,-1.5062,-1.4641,-1.4212,-1.3941,-1.3752,-1.361,-1.361,-1.361,-1.361,-1.361,-1.361,-1.361,-1.361,-1.361,-1.361,-1.361,-1.361,-1.361,-1.361,-2.8343,-2.7332,-2.6645,-2.6052,-2.569,-2.6199,-2.6051,-2.5498,-2.5736,-2.561,-2.5322,-2.5313,-2.5313,-2.5303,-2.5233,-2.5212,-2.5143,-2.4304,-2.39,-2.3839,-2.3335,-2.3283,-2.3596,-2.3833,-2.3819,-2.3732,-2.4118,-2.4082,-2.3823,-2.4025,-2.3842,-2.3228,-2.2978,-2.2626,-2.2117,-2.1624,-2.1423,-2.1442,-2.159,-2.1436,-2.107,-2.0574,-2.0135,-1.9714,-1.9283,-1.8784,-1.8342,-1.826,-1.8232,-1.8211,-1.819,-1.819,-1.8168,-1.8676,-1.8463,-1.7305,-1.72,-1.7222,-1.7208,-1.7961,-1.8685,-1.9256,-1.9672,-1.9734,-1.9333,-1.9287,-1.8742,-1.755,-1.6958,-1.6782,-1.6872,-1.6748,-1.6877,-1.7341,-1.7391,-1.7308,-1.7308,-1.7253,-1.7212,-1.7212,-1.7212,-1.7212,-1.7212,-1.7212,-1.7212,-1.7212,-1.7212,-1.7212,-1.7212,-1.7212,-1.7212,-1.7212,-1.7031,-1.6892,-1.6752,-1.6527,-1.5908,-1.5242,-1.488,-1.4617,-1.3752,-1.361,-1.361,-1.361,-1.3621,-1.3621,-1.361,-1.361,-1.361,-1.361,-1.361,-1.361,-1.361,-1.361,-1.361,-2.8727,-2.7536,-2.7073,-2.6201,-2.5182,-2.534,-2.5252,-2.5097,-2.5216,-2.5313,-2.5303,-2.5303,-2.5293,-2.5293,-2.5233,-2.5212,-2.5124,-2.4533,-2.4221,-2.4124,-2.3958,-2.3813,-2.3814,-2.4126,-2.4118,-2.3878,-2.4081,-2.4172,-2.4113,-2.4152,-2.3897,-2.3491,-2.329,-2.3051,-2.2687,-2.2227,-2.2016,-2.2112,-2.2251,-2.2294,-2.2206,-2.1733,-2.1065,-2.0381,-1.9829,-1.9297,-1.8679,-1.8409,-1.8277,-1.8232,-1.8232,-1.8172,-1.8121,-1.8626,-1.8323,-1.7203,-1.7133,-1.7208,-1.7238,-1.8177,-1.8901,-1.9271,-1.978,-1.9826,-1.9441,-1.9472,-1.9043,-1.8019,-1.7709,-1.7648,-1.739,-1.7276,-1.7342,-1.7612,-1.7515,-1.7432,-1.7419,-1.7337,-1.7253,-1.7253,-1.7253,-1.7212,-1.7212,-1.7212,-1.7212,-1.7212,-1.7212,-1.7212,-1.7212,-1.7212,-1.7212,-1.7212,-1.7199,-1.7115,-1.7031,-1.671,-1.6324,-1.5656,-1.5073,-1.4571,-1.3847,-1.3763,-1.3668,-1.3716,-1.3668,-1.3621,-1.3621,-1.361,-1.361,-1.361,-1.361,-1.361,-1.361,-1.361,-1.361,-2.9363,-2.8981,-2.7416,-2.5759,-2.4312,-2.5007,-2.4904,-2.421,-2.4908,-2.5245,-2.5226,-2.5244,-2.5292,-2.5292,-2.5241,-2.5182,-2.516,-2.4992,-2.4764,-2.4585,-2.4471,-2.4364,-2.4174,-2.4117,-2.3617,-2.2915,-2.3634,-2.4039,-2.4075,-2.4228,-2.4284,-2.4211,-2.4043,-2.4043,-2.3989,-2.3539,-2.345,-2.3397,-2.3147,-2.3014,-2.3007,-2.2972,-2.254,-2.1785,-2.0447,-1.965,-1.944,-1.8732,-1.8322,-1.8277,-1.8277,-1.8151,-1.789,-1.7699,-1.7354,-1.6807,-1.7027,-1.7253,-1.7312,-1.7483,-1.8007,-1.9071,-1.9425,-1.9379,-1.9441,-1.9857,-1.9585,-1.8279,-1.8637,-1.8547,-1.7745,-1.7824,-1.7892,-1.7571,-1.7529,-1.7488,-1.7488,-1.7419,-1.7404,-1.7363,-1.7295,-1.7212,-1.7212,-1.7212,-1.7212,-1.7212,-1.7212,-1.7212,-1.7212,-1.7212,-1.7212,-1.7212,-1.7157,-1.7073,-1.6637,-1.6552,-1.592,-1.5389,-1.5073,-1.4398,-1.415,-1.3973,-1.3926,-1.3868,-1.3868,-1.381,-1.3668,-1.361,-1.361,-1.361,-1.361,-1.361,-1.361,-1.361,-1.361,-2.8701,-2.7574,-2.6428,-2.5224,-2.4157,-2.3909,-2.3593,-2.3298,-2.3581,-2.3996,-2.4418,-2.4475,-2.4743,-2.5239,-2.5209,-2.4892,-2.4345,-2.3796,-2.3473,-2.3366,-2.3159,-2.3,-2.2827,-2.2609,-2.2356,-2.2153,-2.2826,-2.346,-2.3881,-2.3958,-2.4037,-2.4153,-2.4133,-2.4153,-2.4191,-2.3837,-2.3646,-2.3649,-2.3301,-2.3119,-2.3119,-2.3119,-2.2979,-2.2698,-2.1715,-2.0657,-1.9615,-1.9297,-1.8889,-1.8333,-1.8315,-1.8439,-1.8711,-1.8676,-1.8708,-1.8719,-1.8188,-1.7884,-1.8022,-1.8362,-1.8747,-1.9225,-1.9703,-1.9919,-1.998,-2.015,-2.0058,-1.9612,-1.9424,-1.9163,-1.8607,-1.8246,-1.7989,-1.7788,-1.7666,-1.7625,-1.7625,-1.7543,-1.7447,-1.7447,-1.7378,-1.7295,-1.7253,-1.7212,-1.7212,-1.7212,-1.7212,-1.7212,-1.7212,-1.7212,-1.7212,-1.7212,-1.7199,-1.7031,-1.6552,-1.668,-1.6539,-1.6039,-1.5644,-1.5287,-1.504,-1.4536,-1.4398,-1.4316,-1.4233,-1.4093,-1.3931,-1.3742,-1.3695,-1.361,-1.361,-1.361,-1.361,-1.361,-1.361,-2.8318,-2.6704,-2.5815,-2.4775,-2.3689,-2.311,-2.2844,-2.2829,-2.3063,-2.3343,-2.3602,-2.3831,-2.4156,-2.4317,-2.4096,-2.3856,-2.3482,-2.3106,-2.2821,-2.2488,-2.2273,-2.2116,-2.1987,-2.1797,-2.1678,-2.1735,-2.2351,-2.3089,-2.3723,-2.3795,-2.3876,-2.3978,-2.3996,-2.4037,-2.4077,-2.3795,-2.3624,-2.3558,-2.3295,-2.3119,-2.3119,-2.3119,-2.3119,-2.3049,-2.2628,-2.1727,-2.0403,-2.0105,-1.9673,-1.9113,-1.9005,-1.912,-1.9379,-1.9405,-1.9444,-1.9505,-1.8998,-1.8624,-1.8749,-1.9104,-1.9412,-1.961,-2.0011,-2.0304,-2.0304,-2.0304,-2.0235,-2.008,-1.9747,-1.9347,-1.8898,-1.8293,-1.7922,-1.7882,-1.7801,-1.776,-1.776,-1.7666,-1.757,-1.7488,-1.7461,-1.7378,-1.7295,-1.7253,-1.7253,-1.7212,-1.7212,-1.7212,-1.7212,-1.7212,-1.7212,-1.7212,-1.7212,-1.7073,-1.685,-1.6947,-1.6625,-1.6182,-1.6039,-1.582,-1.5688,-1.5197,-1.488,-1.4812,-1.4628,-1.4444,-1.4212,-1.3967,-1.3789,-1.3658,-1.361,-1.361,-1.361,-1.361,-1.361,-2.8289,-2.6676,-2.5762,-2.4519,-2.3179,-2.2893,-2.2799,-2.2928,-2.3525,-2.3448,-2.315,-2.359,-2.3618,-2.291,-2.2583,-2.2152,-2.2734,-2.3359,-2.3082,-2.2192,-2.2135,-2.1977,-2.1754,-2.1847,-2.1765,-2.1644,-2.2351,-2.3071,-2.365,-2.3759,-2.3816,-2.3816,-2.3834,-2.3855,-2.3798,-2.3638,-2.3517,-2.3453,-2.3241,-2.3119,-2.3119,-2.3119,-2.3119,-2.3119,-2.3049,-2.2614,-2.1831,-2.1115,-2.0598,-2.0391,-2.0368,-2.0157,-1.9777,-1.9744,-1.9421,-1.9136,-1.9249,-1.9418,-1.9448,-1.9462,-1.9754,-2.0107,-2.0273,-2.0304,-2.0304,-2.0304,-2.0166,-1.9869,-1.9472,-1.9026,-1.863,-1.8214,-1.7963,-1.7922,-1.7882,-1.7882,-1.7882,-1.776,-1.7638,-1.7529,-1.7488,-1.7502,-1.7432,-1.7391,-1.735,-1.7253,-1.7212,-1.7212,-1.7212,-1.7212,-1.7212,-1.7212,-1.7212,-1.7115,-1.7157,-1.7157,-1.6625,-1.6182,-1.6139,-1.6051,-1.6051,-1.5732,-1.5543,-1.5421,-1.5028,-1.4789,-1.4571,-1.434,-1.3931,-1.3752,-1.3705,-1.361,-1.361,-1.361,-1.361,-2.8251,-2.6602,-2.5734,-2.4752,-2.3685,-2.3071,-2.2803,-2.2804,-2.3036,-2.3255,-2.3522,-2.3788,-2.3758,-2.3681,-2.3815,-2.349,-2.2724,-2.332,-2.2943,-2.184,-2.2028,-2.1821,-2.1331,-2.1657,-2.1766,-2.1698,-2.233,-2.2817,-2.3107,-2.356,-2.3795,-2.3795,-2.3795,-2.3795,-2.3795,-2.3594,-2.3494,-2.3471,-2.3241,-2.3119,-2.3119,-2.3119,-2.3119,-2.3119,-2.3102,-2.293,-2.2586,-2.1895,-2.1202,-2.0599,-2.0506,-2.0529,-2.0622,-2.0842,-2.0823,-2.0494,-2.0256,-2.0215,-2.0264,-2.0198,-2.0177,-2.0342,-2.0354,-2.0354,-2.0304,-2.0304,-2.0235,-2.0096,-1.9762,-1.9347,-1.8936,-1.8553,-1.8214,-1.7922,-1.7922,-1.7922,-1.7922,-1.7842,-1.776,-1.7666,-1.7625,-1.7584,-1.7502,-1.7461,-1.7404,-1.735,-1.7253,-1.7199,-1.7212,-1.7212,-1.7212,-1.7212,-1.7212,-1.7212,-1.7212,-1.7212,-1.6934,-1.6625,-1.6539,-1.6454,-1.6411,-1.6324,-1.617,-1.594,-1.5543,-1.5231,-1.5017,-1.4663,-1.4247,-1.3836,-1.3705,-1.3658,-1.361,-1.361,-1.361,-2.774,-2.6169,-2.5948,-2.5139,-2.412,-2.3746,-2.3496,-2.3285,-2.3523,-2.373,-2.3908,-2.419,-2.43,-2.439,-2.4847,-2.4454,-2.3493,-2.3882,-2.3291,-2.2077,-2.2012,-2.1793,-2.126,-2.1574,-2.1898,-2.2023,-2.2453,-2.2709,-2.2745,-2.3397,-2.3668,-2.3451,-2.365,-2.3795,-2.3795,-2.366,-2.3544,-2.3476,-2.3271,-2.3168,-2.3119,-2.3119,-2.3119,-2.3119,-2.3119,-2.3045,-2.2917,-2.2506,-2.2021,-2.144,-2.1146,-2.1181,-2.1461,-2.1394,-2.1276,-2.1198,-2.0877,-2.0613,-2.0644,-2.0545,-2.0543,-2.0441,-2.0423,-2.0373,-2.0339,-2.0304,-2.0304,-2.0235,-1.994,-1.9545,-1.9139,-1.8731,-1.8319,-1.7963,-1.7922,-1.7922,-1.7922,-1.7922,-1.7882,-1.7801,-1.776,-1.772,-1.7584,-1.7556,-1.7487,-1.7404,-1.735,-1.724,-1.7253,-1.7212,-1.7199,-1.7199,-1.7212,-1.7212,-1.7212,-1.7212,-1.7212,-1.7115,-1.7073,-1.6976,-1.6892,-1.6808,-1.6667,-1.6625,-1.6312,-1.6039,-1.5776,-1.5197,-1.4698,-1.4236,-1.3789,-1.3658,-1.3668,-1.3621,-1.361,-2.6882,-2.5582,-2.6187,-2.5542,-2.4303,-2.4781,-2.4626,-2.4173,-2.4728,-2.4671,-2.4302,-2.4759,-2.5037,-2.5007,-2.5187,-2.5035,-2.4791,-2.481,-2.4435,-2.3512,-2.2885,-2.2356,-2.213,-2.2044,-2.2244,-2.2546,-2.2672,-2.2709,-2.2725,-2.3306,-2.3433,-2.3053,-2.3542,-2.3795,-2.3792,-2.3725,-2.3634,-2.3522,-2.336,-2.3217,-2.3144,-2.3119,-2.3119,-2.3119,-2.3119,-2.3052,-2.3003,-2.2908,-2.2857,-2.2712,-2.2095,-2.1883,-2.196,-2.1323,-2.1007,-2.1151,-2.0909,-2.0728,-2.0595,-2.0628,-2.066,-2.0543,-2.0491,-2.0423,-2.0407,-2.0339,-2.0304,-2.0304,-2.001,-1.9581,-1.9176,-1.8822,-1.8411,-1.8003,-1.7922,-1.7922,-1.7922,-1.7922,-1.7882,-1.7882,-1.7882,-1.7842,-1.772,-1.7679,-1.761,-1.7487,-1.7446,-1.735,-1.7295,-1.7282,-1.724,-1.724,-1.7282,-1.7253,-1.7295,-1.7212,-1.7212,-1.7212,-1.7212,-1.7199,-1.7157,-1.7073,-1.7031,-1.7031,-1.6892,-1.6667,-1.6256,-1.5543,-1.496,-1.4468,-1.4107,-1.3847,-1.3668,-1.3621,-1.361,-2.6314,-2.5389,-2.5571,-2.5358,-2.4915,-2.5133,-2.5083,-2.4881,-2.5069,-2.5328,-2.5583,-2.5684,-2.5825,-2.5905,-2.623,-2.6105,-2.5804,-2.5984,-2.6079,-2.563,-2.4816,-2.4061,-2.3564,-2.3264,-2.3002,-2.2781,-2.2727,-2.2709,-2.2707,-2.2872,-2.3107,-2.3524,-2.3578,-2.3777,-2.3792,-2.3725,-2.37,-2.3611,-2.3407,-2.3289,-2.3241,-2.3144,-2.3119,-2.3119,-2.3119,-2.3052,-2.2995,-2.297,-2.2893,-2.279,-2.2364,-2.2039,-2.1911,-2.1417,-2.1055,-2.0958,-2.086,-2.0794,-2.0728,-2.0728,-2.0744,-2.0644,-2.0626,-2.0577,-2.046,-2.0407,-2.0373,-2.0339,-2.02,-1.9833,-1.925,-1.8988,-1.8606,-1.8043,-1.7922,-1.7922,-1.7922,-1.7922,-1.7922,-1.7922,-1.7922,-1.7882,-1.7842,-1.776,-1.7692,-1.761,-1.7556,-1.7461,-1.7406,-1.7406,-1.7352,-1.7365,-1.7406,-1.7391,-1.735,-1.7253,-1.7212,-1.7212,-1.7212,-1.7212,-1.7199,-1.7157,-1.7157,-1.7157,-1.6905,-1.668,-1.6182,-1.5511,-1.505,-1.4824,-1.4247,-1.3894,-1.3716,-1.361,-1.361,-2.5755,-2.5311,-2.5262,-2.5241,-2.5209,-2.5206,-2.5214,-2.5214,-2.5229,-2.5806,-2.6536,-2.6575,-2.6946,-2.7646,-2.7774,-2.7436,-2.6879,-2.6708,-2.6342,-2.5777,-2.4944,-2.434,-2.3974,-2.3819,-2.356,-2.3161,-2.2815,-2.251,-2.2256,-2.2202,-2.2455,-2.2763,-2.318,-2.3467,-2.3768,-2.375,-2.3682,-2.3611,-2.3499,-2.343,-2.3289,-2.3217,-2.3168,-2.3119,-2.3119,-2.3077,-2.3045,-2.2977,-2.2902,-2.2747,-2.2364,-2.2039,-2.194,-2.137,-2.1071,-2.099,-2.0893,-2.081,-2.081,-2.081,-2.081,-2.0744,-2.0711,-2.066,-2.0577,-2.0509,-2.0441,-2.0388,-2.0373,-1.9995,-1.9347,-1.895,-1.8503,-1.8043,-1.7922,-1.7922,-1.7922,-1.7922,-1.7922,-1.7922,-1.7922,-1.7922,-1.7922,-1.7842,-1.776,-1.772,-1.7638,-1.7543,-1.7488,-1.7516,-1.7516,-1.7529,-1.7488,-1.7461,-1.7419,-1.7365,-1.7295,-1.7253,-1.7212,-1.7212,-1.7212,-1.7212,-1.7212,-1.7157,-1.6947,-1.6693,-1.6312,-1.5996,-1.5788,-1.5377,-1.4617,-1.4165,-1.4025,-1.3894,-1.3847,-2.5293,-2.5301,-2.5241,-2.522,-2.5206,-2.5203,-2.521,-2.521,-2.5363,-2.6123,-2.7108,-2.7326,-2.8049,-2.9608,-2.888,-2.8584,-2.7846,-2.7236,-2.6352,-2.5601,-2.4813,-2.4287,-2.4127,-2.3871,-2.3759,-2.3542,-2.298,-2.2347,-2.1894,-2.164,-2.1477,-2.1858,-2.2437,-2.2994,-2.344,-2.3681,-2.3707,-2.3616,-2.3634,-2.3544,-2.3383,-2.3289,-2.3217,-2.3119,-2.3119,-2.3119,-2.3077,-2.3028,-2.297,-2.2919,-2.2281,-2.2084,-2.2022,-2.1291,-2.1007,-2.1087,-2.0925,-2.081,-2.081,-2.081,-2.081,-2.081,-2.0744,-2.0711,-2.0677,-2.061,-2.0509,-2.0388,-2.0475,-2.0135,-1.9536,-1.8822,-1.845,-1.8214,-1.8109,-1.7963,-1.7963,-1.7922,-1.7922,-1.7963,-1.7963,-1.7922,-1.7922,-1.7882,-1.7828,-1.7801,-1.772,-1.7706,-1.7652,-1.7652,-1.7652,-1.7611,-1.757,-1.7529,-1.7529,-1.7488,-1.7419,-1.7337,-1.7253,-1.7212,-1.7212,-1.7212,-1.7212,-1.7157,-1.7031,-1.7031,-1.6976,-1.671,-1.6367,-1.592,-1.5197,-1.488,-1.4606,-1.4433,-1.4305,-2.5264,-2.5222,-2.5212,-2.5209,-2.5203,-2.521,-2.521,-2.5287,-2.5848,-2.6464,-2.7226,-2.7819,-2.8447,-2.9196,-2.8872,-2.8517,-2.7857,-2.7747,-2.7677,-2.6897,-2.6059,-2.5316,-2.4737,-2.4176,-2.3813,-2.3487,-2.2383,-2.2002,-2.2021,-2.1169,-2.0898,-2.1514,-2.2147,-2.2761,-2.2958,-2.3536,-2.3795,-2.3728,-2.3703,-2.3611,-2.3476,-2.336,-2.3241,-2.3119,-2.3119,-2.3119,-2.3095,-2.3045,-2.2995,-2.285,-2.2527,-2.2136,-2.1895,-2.1462,-2.1119,-2.0925,-2.086,-2.081,-2.081,-2.081,-2.081,-2.081,-2.0794,-2.0761,-2.0761,-2.0711,-2.0543,-2.0407,-2.0426,-2.0273,-1.9773,-1.9317,-1.8959,-1.8755,-1.8539,-1.8411,-1.8333,-1.8109,-1.8029,-1.8175,-1.8069,-1.7922,-1.7922,-1.7922,-1.7882,-1.7842,-1.7842,-1.7828,-1.7788,-1.7788,-1.7747,-1.7747,-1.7706,-1.7666,-1.7611,-1.757,-1.7502,-1.7419,-1.7323,-1.7253,-1.7253,-1.7253,-1.7253,-1.7253,-1.7212,-1.7199,-1.7199,-1.685,-1.6411,-1.6095,-1.5864,-1.5511,-1.5152,-1.4994,-1.4766,-2.5273,-2.5212,-2.5212,-2.5198,-2.521,-2.521,-2.5401,-2.5707,-2.5784,-2.6401,-2.7009,-2.697,-2.7399,-2.8526,-2.7699,-2.7222,-2.751,-2.7058,-2.6656,-2.6149,-2.5751,-2.5606,-2.5516,-2.4701,-2.4067,-2.3288,-2.2111,-2.1695,-2.1242,-2.0572,-2.0137,-2.0952,-2.1749,-2.2289,-2.2682,-2.3371,-2.3732,-2.3728,-2.3721,-2.3656,-2.3567,-2.3453,-2.3289,-2.3144,-2.3119,-2.3119,-2.3095,-2.307,-2.2995,-2.285,-2.2537,-2.2203,-2.1882,-2.1526,-2.1151,-2.0876,-2.081,-2.081,-2.081,-2.081,-2.081,-2.081,-2.081,-2.081,-2.0794,-2.0761,-2.0677,-2.0543,-2.0543,-2.0444,-1.9859,-1.9624,-1.9369,-1.902,-1.8921,-1.8884,-1.8884,-1.8411,-1.7963,-1.8135,-1.8029,-1.7922,-1.7922,-1.7922,-1.7922,-1.7882,-1.7882,-1.7882,-1.7882,-1.7842,-1.7882,-1.7842,-1.7801,-1.7801,-1.7747,-1.7666,-1.7584,-1.7502,-1.7447,-1.7378,-1.735,-1.7295,-1.7282,-1.724,-1.7212,-1.7212,-1.7157,-1.6808,-1.6667,-1.6625,-1.6411,-1.602,-1.57,-1.5466,-1.5242,-2.5264,-2.5212,-2.5212,-2.5198,-2.521,-2.521,-2.5535,-2.5982,-2.565,-2.6142,-2.6835,-2.5623,-2.6628,-2.7306,-2.6399,-2.6457,-2.684,-2.6041,-2.5443,-2.6168,-2.5914,-2.5914,-2.5914,-2.5371,-2.4411,-2.2944,-2.2165,-2.1477,-2.0662,-1.9739,-1.9775,-2.0246,-2.0934,-2.162,-2.2353,-2.3106,-2.3581,-2.371,-2.3725,-2.3721,-2.3656,-2.3544,-2.3378,-2.3168,-2.3119,-2.307,-2.3045,-2.302,-2.297,-2.2816,-2.2537,-2.2265,-2.1924,-2.154,-2.1151,-2.0827,-2.081,-2.081,-2.081,-2.081,-2.081,-2.081,-2.081,-2.081,-2.0794,-2.0794,-2.0695,-2.0644,-2.0577,-2.0392,-1.9904,-1.9833,-1.9603,-1.9295,-1.9295,-1.9406,-1.9442,-1.8707,-1.8175,-1.8149,-1.8069,-1.7922,-1.7922,-1.7922,-1.7922,-1.7922,-1.7922,-1.7922,-1.7922,-1.7922,-1.7922,-1.7922,-1.7882,-1.7801,-1.776,-1.7747,-1.7638,-1.7584,-1.7529,-1.7488,-1.7432,-1.7391,-1.7337,-1.7253,-1.7212,-1.7212,-1.7212,-1.7073,-1.7031,-1.7115,-1.6934,-1.6539,-1.6269,-1.5983,-1.5688,-2.5283,-2.5212,-2.5212,-2.5198,-2.521,-2.521,-2.5325,-2.5497,-2.5963,-2.6186,-2.6265,-2.6643,-2.6497,-2.6689,-2.6683,-2.6826,-2.6609,-2.5701,-2.5932,-2.7145,-2.7055,-2.6783,-2.6403,-2.6149,-2.5172,-2.3813,-2.2962,-2.2274,-2.1296,-2.0536,-2.0083,-1.9703,-2.03,-2.1115,-2.1873,-2.247,-2.3337,-2.3717,-2.3771,-2.3747,-2.37,-2.3567,-2.3378,-2.3144,-2.3119,-2.302,-2.2893,-2.2868,-2.2825,-2.279,-2.2552,-2.2298,-2.1998,-2.157,-2.1151,-2.0925,-2.0843,-2.0827,-2.0794,-2.081,-2.081,-2.081,-2.081,-2.081,-2.081,-2.081,-2.0728,-2.0527,-2.0373,-2.02,-2.0273,-2.022,-2.0289,-2.017,-1.9909,-1.9717,-1.9609,-1.9072,-1.8567,-1.8644,-1.8307,-1.7922,-1.7922,-1.7922,-1.7922,-1.7922,-1.7922,-1.7922,-1.7922,-1.7922,-1.7922,-1.7922,-1.7922,-1.7801,-1.772,-1.772,-1.7666,-1.7611,-1.7557,-1.757,-1.7502,-1.7446,-1.7363,-1.7308,-1.7253,-1.7212,-1.7212,-1.7212,-1.7212,-1.7157,-1.7073,-1.7018,-1.6752,-1.6398,-1.5952,-2.5273,-2.5212,-2.522,-2.5206,-2.521,-2.521,-2.5707,-2.6326,-2.5907,-2.5796,-2.5679,-2.5122,-2.4657,-2.4524,-2.419,-2.4584,-2.5198,-2.5353,-2.5914,-2.7091,-2.7327,-2.7544,-2.7236,-2.7037,-2.6457,-2.5642,-2.4882,-2.356,-2.2256,-2.1785,-2.1025,-2.0735,-2.1151,-2.1767,-2.22,-2.2919,-2.3355,-2.3738,-2.3771,-2.375,-2.3725,-2.3589,-2.336,-2.3168,-2.3095,-2.2995,-2.2842,-2.279,-2.2668,-2.2436,-2.2141,-2.1911,-2.1675,-2.1386,-2.1023,-2.0958,-2.0958,-2.0893,-2.0827,-2.081,-2.081,-2.081,-2.081,-2.081,-2.081,-2.081,-2.0728,-2.0628,-2.0527,-2.0392,-2.0376,-2.0494,-2.0543,-2.0426,-2.022,-2.0065,-1.9788,-1.9207,-1.9087,-1.9026,-1.8425,-1.8003,-1.7922,-1.7922,-1.7922,-1.7922,-1.7922,-1.7922,-1.7922,-1.7922,-1.7922,-1.7922,-1.7922,-1.7882,-1.7801,-1.776,-1.776,-1.7706,-1.7652,-1.7652,-1.7625,-1.7556,-1.7446,-1.735,-1.7308,-1.7253,-1.7212,-1.7212,-1.7212,-1.7212,-1.7157,-1.7115,-1.7031,-1.6808,-1.6312,-2.5271,-2.5212,-2.5209,-2.5214,-2.521,-2.521,-2.5918,-2.6702,-2.5615,-2.5213,-2.5263,-2.3694,-2.2861,-2.2591,-2.2502,-2.2826,-2.4212,-2.5063,-2.5932,-2.6946,-2.7471,-2.799,-2.7997,-2.7834,-2.7236,-2.691,-2.6258,-2.5063,-2.3288,-2.2835,-2.2327,-2.1638,-2.211,-2.258,-2.2684,-2.2965,-2.3476,-2.3728,-2.3703,-2.3682,-2.3642,-2.3526,-2.3354,-2.3144,-2.3095,-2.2995,-2.2738,-2.2712,-2.2517,-2.2198,-2.1866,-2.1628,-2.1432,-2.1166,-2.1055,-2.1135,-2.1135,-2.099,-2.0941,-2.0876,-2.0876,-2.0827,-2.081,-2.081,-2.081,-2.081,-2.0761,-2.0728,-2.0695,-2.0595,-2.046,-2.0595,-2.0595,-2.0543,-2.0441,-2.0304,-2.008,-1.9711,-1.9273,-1.8936,-1.8372,-1.8189,-1.8163,-1.8123,-1.8163,-1.8123,-1.8123,-1.8043,-1.8043,-1.7922,-1.7922,-1.7922,-1.7922,-1.7922,-1.7882,-1.7882,-1.7842,-1.7842,-1.7788,-1.7788,-1.776,-1.7692,-1.7556,-1.7474,-1.7378,-1.7323,-1.7282,-1.7212,-1.7212,-1.7212,-1.7212,-1.7212,-1.7115,-1.6892,-1.6441,-2.5271,-2.5212,-2.5198,-2.5214,-2.521,-2.521,-2.5287,-2.5535,-2.5271,-2.4669,-2.4187,-2.4186,-2.3307,-2.2438,-2.2427,-2.3762,-2.5226,-2.5914,-2.6584,-2.7598,-2.8141,-2.8105,-2.77,-2.7483,-2.7538,-2.7411,-2.6711,-2.5298,-2.4121,-2.3777,-2.2991,-2.2066,-2.1998,-2.2016,-2.2851,-2.2937,-2.3013,-2.3552,-2.3589,-2.3476,-2.3389,-2.336,-2.3265,-2.3144,-2.3077,-2.2927,-2.2659,-2.2579,-2.2381,-2.2124,-2.1899,-2.1853,-2.1924,-2.1794,-2.1556,-2.134,-2.1183,-2.1087,-2.1038,-2.1006,-2.0941,-2.0827,-2.0827,-2.081,-2.0843,-2.081,-2.0728,-2.0444,-2.0478,-2.0512,-2.0478,-2.0444,-2.0561,-2.061,-2.061,-2.0577,-2.0426,-1.994,-1.9545,-1.9362,-1.895,-1.8659,-1.8503,-1.8478,-1.8439,-1.8361,-1.8282,-1.8202,-1.8163,-1.8083,-1.7963,-1.8003,-1.7963,-1.7963,-1.7922,-1.7922,-1.7922,-1.7922,-1.7882,-1.7882,-1.7842,-1.776,-1.772,-1.7584,-1.7488,-1.7406,-1.7323,-1.724,-1.7253,-1.7212,-1.7212,-1.7212,-1.7212,-1.6892,-1.6612,-2.522,-2.5209,-2.5195,-2.5203,-2.521,-2.521,-2.5478,-2.5588,-2.4784,-2.4069,-2.3526,-2.3169,-2.2763,-2.2337,-2.2204,-2.3035,-2.4719,-2.5787,-2.6512,-2.7471,-2.8069,-2.8334,-2.8207,-2.808,-2.8062,-2.7725,-2.7254,-2.6457,-2.5353,-2.4661,-2.4111,-2.3858,-2.3142,-2.3174,-2.341,-2.3227,-2.3316,-2.3513,-2.3522,-2.3448,-2.3336,-2.3289,-2.3241,-2.3119,-2.3119,-2.2944,-2.2712,-2.2542,-2.2371,-2.2113,-2.184,-2.1708,-2.1738,-2.1648,-2.1464,-2.1511,-2.1419,-2.1262,-2.1006,-2.0958,-2.0893,-2.0893,-2.0893,-2.0958,-2.0958,-2.086,-2.0794,-2.0662,-2.0613,-2.0613,-2.0628,-2.0628,-2.0695,-2.0728,-2.0677,-2.0595,-2.0494,-2.015,-1.9762,-1.9654,-1.9523,-1.925,-1.8965,-1.8774,-1.8659,-1.8503,-1.8464,-1.84,-1.8361,-1.8361,-1.8242,-1.8109,-1.8069,-1.8029,-1.7963,-1.7922,-1.7922,-1.7922,-1.7922,-1.7882,-1.7882,-1.7842,-1.776,-1.772,-1.7625,-1.7502,-1.7406,-1.7337,-1.7308,-1.7253,-1.724,-1.7253,-1.7212,-1.7157,-1.6795,-2.5206,-2.5195,-2.5203,-2.521,-2.521,-2.521,-2.5363,-2.5531,-2.4347,-2.3404,-2.2628,-2.1758,-2.1679,-2.2351,-2.204,-2.2475,-2.394,-2.5484,-2.6077,-2.6711,-2.7435,-2.7997,-2.7797,-2.7852,-2.7827,-2.8015,-2.6838,-2.6512,-2.6276,-2.5565,-2.5122,-2.5673,-2.4365,-2.4208,-2.4254,-2.3791,-2.3394,-2.3365,-2.336,-2.3313,-2.3265,-2.3223,-2.3193,-2.3144,-2.3095,-2.302,-2.2816,-2.2623,-2.2371,-2.2113,-2.184,-2.1678,-2.1678,-2.1617,-2.1542,-2.1589,-2.1559,-2.1404,-2.1135,-2.099,-2.0909,-2.0893,-2.0958,-2.1023,-2.099,-2.0893,-2.0827,-2.0794,-2.0761,-2.0794,-2.081,-2.081,-2.081,-2.0728,-2.0662,-2.0545,-2.0444,-2.0204,-2.008,-1.9975,-1.9869,-1.9777,-1.9472,-1.9139,-1.8912,-1.8683,-1.862,-1.8542,-1.8556,-1.8556,-1.84,-1.8228,-1.8149,-1.8109,-1.7949,-1.7922,-1.7922,-1.7922,-1.7922,-1.7922,-1.7882,-1.7882,-1.7842,-1.7801,-1.776,-1.7706,-1.7625,-1.7515,-1.7404,-1.735,-1.7295,-1.7253,-1.7212,-1.7212,-1.7073,-2.5214,-2.521,-2.5191,-2.521,-2.5191,-2.521,-2.4771,-2.4289,-2.3919,-2.2748,-2.126,-2.0142,-2.0843,-2.2061,-2.2187,-2.2476,-2.3943,-2.5542,-2.6118,-2.6512,-2.6982,-2.7145,-2.6982,-2.6801,-2.6566,-2.6439,-2.5932,-2.6258,-2.6584,-2.5534,-2.5122,-2.491,-2.4959,-2.4818,-2.4575,-2.4093,-2.3389,-2.3252,-2.3193,-2.3193,-2.3144,-2.3126,-2.3119,-2.3119,-2.3095,-2.302,-2.2816,-2.2632,-2.2415,-2.2169,-2.1928,-2.1768,-2.1738,-2.1691,-2.1694,-2.1634,-2.165,-2.1481,-2.1294,-2.1183,-2.1087,-2.0974,-2.0974,-2.1071,-2.1023,-2.1055,-2.099,-2.086,-2.086,-2.0827,-2.0843,-2.081,-2.081,-2.0777,-2.0728,-2.0695,-2.0628,-2.0512,-2.0376,-2.0308,-2.0204,-2.0115,-1.9955,-1.9617,-1.9288,-1.9049,-1.8798,-1.876,-1.8659,-1.8634,-1.8464,-1.8347,-1.8242,-1.8163,-1.7949,-1.7922,-1.7922,-1.7922,-1.7922,-1.7922,-1.7922,-1.7882,-1.7882,-1.7882,-1.7842,-1.7842,-1.7828,-1.7638,-1.7487,-1.7404,-1.735,-1.7253,-1.717,-1.7073,-1.7073,-2.4408,-2.4454,-2.4962,-2.521,-2.5153,-2.4626,-2.4205,-2.3831,-2.329,-2.2237,-2.0736,-2.0228,-2.088,-2.215,-2.2566,-2.3073,-2.4447,-2.5103,-2.5973,-2.6548,-2.6801,-2.6783,-2.6602,-2.6367,-2.6204,-2.5968,-2.5407,-2.5135,-2.5624,-2.5407,-2.5547,-2.552,-2.5618,-2.5839,-2.5511,-2.4562,-2.3721,-2.3197,-2.3119,-2.3119,-2.3119,-2.3119,-2.3119,-2.3119,-2.3119,-2.307,-2.297,-2.279,-2.2579,-2.2343,-2.2084,-2.194,-2.1811,-2.1781,-2.1768,-2.1708,-2.1708,-2.1634,-2.1481,-2.1371,-2.1294,-2.1309,-2.1199,-2.1135,-2.1151,-2.1262,-2.1151,-2.1055,-2.099,-2.0958,-2.0827,-2.081,-2.081,-2.081,-2.081,-2.081,-2.0761,-2.0646,-2.0613,-2.0527,-2.0512,-2.0478,-2.0289,-2.0045,-1.9726,-1.9384,-1.9161,-1.8936,-1.8874,-1.8774,-1.8659,-1.8489,-1.8425,-1.8282,-1.8069,-1.8003,-1.7922,-1.7922,-1.7922,-1.7963,-1.7963,-1.7922,-1.7922,-1.7922,-1.7922,-1.7882,-1.7842,-1.7692,-1.7597,-1.7515,-1.7391,-1.7295,-1.717,-1.7031,-1.7031,-2.3528,-2.3556,-2.3911,-2.4388,-2.4683,-2.4114,-2.3519,-2.2981,-2.2348,-2.1567,-2.0609,-2.0439,-2.0862,-2.1858,-2.2584,-2.2835,-2.3744,-2.4414,-2.5466,-2.5842,-2.5878,-2.6059,-2.6168,-2.5914,-2.5244,-2.5371,-2.5335,-2.5081,-2.519,-2.5497,-2.586,-2.6162,-2.6381,-2.6641,-2.6286,-2.5243,-2.3942,-2.3295,-2.3144,-2.3119,-2.3119,-2.3119,-2.3119,-2.3119,-2.3119,-2.3095,-2.3045,-2.2868,-2.2703,-2.247,-2.226,-2.1998,-2.1869,-2.1781,-2.1781,-2.1781,-2.1797,-2.1738,-2.1617,-2.1464,-2.1388,-2.1356,-2.1388,-2.1356,-2.1419,-2.1419,-2.1325,-2.1199,-2.1167,-2.1103,-2.0925,-2.0941,-2.086,-2.086,-2.081,-2.081,-2.081,-2.0728,-2.0761,-2.0728,-2.0728,-2.0662,-2.0527,-2.0289,-1.9925,-1.9603,-1.9384,-1.9236,-1.9199,-1.9064,-1.8912,-1.876,-1.8644,-1.845,-1.8228,-1.8228,-1.8202,-1.8043,-1.8043,-1.8029,-1.8029,-1.7963,-1.7922,-1.7922,-1.7922,-1.7922,-1.7842,-1.776,-1.7679,-1.7625,-1.7461,-1.735,-1.7323,-1.7199,-1.7044,-2.2679,-2.2524,-2.1923,-2.2534,-2.3774,-2.3745,-2.2773,-2.1637,-2.1108,-2.0734,-2.0342,-2.0262,-2.03,-2.0862,-2.1968,-2.2458,-2.2511,-2.3365,-2.4399,-2.4972,-2.4375,-2.4447,-2.4556,-2.4429,-2.3868,-2.4049,-2.4223,-2.4508,-2.4747,-2.561,-2.6157,-2.6302,-2.6363,-2.6741,-2.6746,-2.5283,-2.4,-2.3249,-2.3241,-2.3005,-2.3151,-2.3056,-2.2968,-2.3144,-2.3119,-2.3119,-2.307,-2.297,-2.2764,-2.2497,-2.2298,-2.2056,-2.184,-2.1781,-2.1781,-2.1781,-2.1781,-2.1781,-2.1751,-2.1464,-2.1402,-2.1433,-2.1481,-2.1511,-2.1419,-2.145,-2.1528,-2.1356,-2.1325,-2.123,-2.1167,-2.1071,-2.099,-2.0925,-2.0893,-2.0876,-2.0909,-2.0876,-2.0909,-2.0843,-2.081,-2.0777,-2.0695,-2.0512,-2.01,-1.9803,-1.9588,-1.9442,-1.942,-1.9273,-1.9049,-1.9011,-1.886,-1.8707,-1.8528,-1.8503,-1.8425,-1.8282,-1.8202,-1.8149,-1.8069,-1.7949,-1.7922,-1.7922,-1.7922,-1.7922,-1.7922,-1.7882,-1.7801,-1.7706,-1.7515,-1.7391,-1.7365,-1.731,-1.7115,-2.1828,-2.1818,-2.2095,-2.2199,-2.2227,-2.2091,-2.1933,-2.1758,-2.1026,-2.0268,-1.9868,-2.0063,-2.03,-2.0681,-2.1333,-2.2004,-2.231,-2.1912,-2.2944,-2.461,-2.3198,-2.3343,-2.3487,-2.3107,-2.2419,-2.247,-2.2911,-2.3454,-2.3163,-2.4841,-2.5201,-2.5159,-2.5384,-2.5625,-2.5153,-2.407,-2.297,-2.3076,-2.262,-2.2229,-2.3147,-2.2841,-2.2741,-2.3223,-2.3168,-2.3119,-2.3102,-2.302,-2.2842,-2.2552,-2.2371,-2.2186,-2.1899,-2.184,-2.1827,-2.1827,-2.1827,-2.1781,-2.1797,-2.1678,-2.1631,-2.1617,-2.1587,-2.1634,-2.1617,-2.1678,-2.1617,-2.1526,-2.1481,-2.1419,-2.1277,-2.123,-2.1183,-2.1183,-2.1151,-2.1087,-2.1055,-2.1038,-2.1006,-2.0876,-2.081,-2.0728,-2.0646,-2.0745,-2.0462,-2.0154,-1.9894,-1.9551,-1.942,-1.9273,-1.9139,-1.9161,-1.9087,-1.8959,-1.8846,-1.8745,-1.8542,-1.8321,-1.8268,-1.8293,-1.8175,-1.8029,-1.7922,-1.7922,-1.7922,-1.7922,-1.7922,-1.7922,-1.7882,-1.7801,-1.7638,-1.7502,-1.7488,-1.7352,-1.7089,-2.0948,-2.1044,-2.1521,-2.1415,-2.0955,-2.1066,-2.1237,-2.1106,-2.036,-1.9705,-1.9476,-1.9973,-2.0101,-2.0246,-2.0988,-2.1387,-2.1858,-2.1441,-2.2057,-2.3723,-2.2111,-2.231,-2.2546,-2.2182,-2.1978,-2.1882,-2.2529,-2.3043,-2.2513,-2.3993,-2.4574,-2.4338,-2.3642,-2.3397,-2.3196,-2.2823,-2.2624,-2.2709,-2.2282,-2.2178,-2.2741,-2.2873,-2.2916,-2.3212,-2.3289,-2.3241,-2.3151,-2.3052,-2.2944,-2.2685,-2.2497,-2.236,-2.2118,-2.2032,-2.2003,-2.1957,-2.1857,-2.1811,-2.1797,-2.1797,-2.1751,-2.1751,-2.1708,-2.1708,-2.1768,-2.1751,-2.1738,-2.1678,-2.1664,-2.1573,-2.145,-2.1419,-2.1388,-2.1388,-2.1309,-2.1246,-2.123,-2.1167,-2.1103,-2.0974,-2.0925,-2.0778,-2.0712,-2.0811,-2.0844,-2.0563,-2.0243,-1.9909,-1.9551,-1.9457,-1.9384,-1.9457,-1.9347,-1.9147,-1.9035,-1.8959,-1.8707,-1.8361,-1.8386,-1.8514,-1.8307,-1.8163,-1.8043,-1.7922,-1.7922,-1.7922,-1.7922,-1.7922,-1.7922,-1.7882,-1.776,-1.7666,-1.7652,-1.7434,-1.7214,-2.0089,-2.0173,-2.0117,-2.0087,-2.0069,-2.0651,-2.0318,-1.9324,-1.9261,-1.9211,-1.9158,-1.9883,-1.9829,-1.9558,-2.0699,-2.0916,-2.0499,-2.0318,-2.126,-2.1821,-2.0934,-2.1568,-2.1785,-2.1603,-2.1182,-2.2189,-2.282,-2.2458,-2.2189,-2.3637,-2.4331,-2.3649,-2.1978,-2.1924,-2.2136,-2.215,-2.2282,-2.2353,-2.2052,-2.2177,-2.2726,-2.3039,-2.3195,-2.3405,-2.3471,-2.336,-2.3271,-2.3144,-2.2995,-2.279,-2.2615,-2.2542,-2.2487,-2.2487,-2.2343,-2.2141,-2.1957,-2.1899,-2.184,-2.184,-2.1811,-2.1811,-2.1797,-2.1781,-2.1781,-2.1781,-2.1768,-2.1768,-2.1738,-2.1694,-2.165,-2.1573,-2.1542,-2.1481,-2.1371,-2.1356,-2.1325,-2.1294,-2.123,-2.1199,-2.1183,-2.1151,-2.1119,-2.1183,-2.1103,-2.0942,-2.073,-2.063,-2.0292,-1.9925,-1.9889,-1.9904,-1.9747,-1.942,-1.9295,-1.9258,-1.8921,-1.8606,-1.8669,-1.8745,-1.8528,-1.8321,-1.8242,-1.8123,-1.7989,-1.7949,-1.8083,-1.8083,-1.8003,-1.7963,-1.7989,-1.7868,-1.7828,-1.7693,-1.7462,-2.0079,-2.019,-2.0011,-1.9981,-2.0068,-2.0161,-1.9881,-1.943,-1.9827,-1.9813,-1.9253,-1.9391,-1.9357,-1.9177,-1.9576,-1.9612,-1.9558,-1.9576,-2.0101,-2.0228,-2.0083,-2.0355,-2.0427,-2.0337,-1.9975,-2.0356,-2.0986,-2.1534,-2.0592,-2.2212,-2.3377,-2.2863,-2.1071,-2.1324,-2.1614,-2.1578,-2.1866,-2.2046,-2.1689,-2.2175,-2.2728,-2.3063,-2.3293,-2.3486,-2.3544,-2.3476,-2.3336,-2.3336,-2.3168,-2.2868,-2.285,-2.279,-2.2487,-2.2487,-2.2415,-2.2415,-2.2332,-2.2231,-2.2056,-2.201,-2.1969,-2.1869,-2.184,-2.1781,-2.1781,-2.1811,-2.1811,-2.1781,-2.1781,-2.1738,-2.1724,-2.1678,-2.1648,-2.1617,-2.1556,-2.1526,-2.1542,-2.1481,-2.1419,-2.134,-2.1371,-2.1356,-2.1388,-2.134,-2.1261,-2.1214,-2.1183,-2.1103,-2.0942,-2.0545,-2.0308,-2.0342,-2.0115,-1.9747,-1.9726,-1.9726,-1.931,-1.8936,-1.8997,-1.8921,-1.8683,-1.8517,-1.84,-1.8321,-1.8202,-1.8242,-1.8361,-1.8282,-1.8202,-1.8282,-1.8321,-1.8163,-1.8003,-1.7868,-1.7693,-1.9958,-2.0011,-1.9877,-1.9843,-1.9843,-1.9781,-1.9609,-1.9509,-1.9911,-1.9755,-1.9319,-1.9239,-1.9155,-1.9104,-1.9176,-1.9176,-1.9176,-1.9196,-1.9503,-1.9576,-1.934,-1.9522,-1.9485,-1.9396,-1.9327,-1.9477,-1.9854,-2.0465,-1.9539,-1.946,-2.0455,-2.1551,-2.0278,-2.0692,-2.0982,-2.0823,-2.1169,-2.1585,-2.1912,-2.2256,-2.2668,-2.3133,-2.344,-2.3559,-2.3598,-2.3526,-2.343,-2.3476,-2.3271,-2.307,-2.3119,-2.2952,-2.2764,-2.2764,-2.2712,-2.2668,-2.2554,-2.2473,-2.233,-2.2313,-2.2209,-2.213,-2.2084,-2.2153,-2.201,-2.1982,-2.1853,-2.1781,-2.1781,-2.1797,-2.1781,-2.1781,-2.1781,-2.1781,-2.1768,-2.1768,-2.1708,-2.1694,-2.1634,-2.1526,-2.1495,-2.1511,-2.1511,-2.1495,-2.1479,-2.1509,-2.1509,-2.1495,-2.1293,-2.0974,-2.0778,-2.0745,-2.0426,-2.008,-2.0096,-1.999,-1.9617,-1.9273,-1.9258,-1.9161,-1.8851,-1.8659,-1.8581,-1.8503,-1.8439,-1.8478,-1.8517,-1.8478,-1.8439,-1.8517,-1.8517,-1.8361,-1.8202,-1.8083,-1.7853,-1.9738,-1.9802,-1.9738,-1.9676,-1.9545,-1.9564,-1.9546,-1.9431,-1.9564,-1.9423,-1.9314,-1.9285,-1.9204,-1.9122,-1.9104,-1.9232,-1.9232,-1.9232,-1.9268,-1.9196,-1.9159,-1.9214,-1.9196,-1.9106,-1.9093,-1.9608,-1.9974,-1.9998,-1.9155,-1.8955,-1.9213,-1.993,-1.9342,-1.9649,-2.0517,-2.0626,-2.1224,-2.2147,-2.2526,-2.287,-2.2955,-2.3373,-2.3774,-2.3692,-2.3667,-2.3664,-2.3571,-2.3463,-2.3335,-2.3295,-2.3217,-2.307,-2.307,-2.307,-2.2995,-2.2977,-2.2841,-2.2643,-2.259,-2.252,-2.251,-2.25,-2.2554,-2.252,-2.2341,-2.2169,-2.2061,-2.2027,-2.2056,-2.1969,-2.194,-2.1882,-2.1882,-2.184,-2.1797,-2.1768,-2.1768,-2.1738,-2.1708,-2.1648,-2.1617,-2.1634,-2.1648,-2.1631,-2.1631,-2.1721,-2.1721,-2.1738,-2.1617,-2.1309,-2.1151,-2.1039,-2.0728,-2.0357,-2.0096,-1.9955,-1.9833,-1.9639,-1.953,-1.9332,-1.9011,-1.8874,-1.876,-1.8721,-1.8697,-1.8634,-1.8634,-1.8673,-1.8659,-1.8659,-1.862,-1.8503,-1.8386,-1.8254,-1.7889,-1.9738,-1.9809,-1.9832,-1.9774,-1.9688,-1.9821,-1.9774,-1.9682,-1.9656,-1.9513,-1.9314,-1.9204,-1.9155,-1.9122,-1.9104,-1.9322,-1.9775,-1.934,-1.9522,-1.9576,-1.9467,-1.9177,-1.9123,-1.9162,-1.9039,-1.9025,-1.9349,-1.971,-1.9273,-1.8807,-1.8874,-2.022,-1.9615,-1.9667,-2.1185,-2.1367,-2.1747,-2.2705,-2.3138,-2.3271,-2.3271,-2.3316,-2.3508,-2.3376,-2.3307,-2.3283,-2.3206,-2.3164,-2.3035,-2.2919,-2.2893,-2.2919,-2.3045,-2.307,-2.307,-2.3077,-2.3109,-2.291,-2.2703,-2.2634,-2.2651,-2.2537,-2.252,-2.2608,-2.2556,-2.2436,-2.2343,-2.2364,-2.2292,-2.2153,-2.2068,-2.2039,-2.1969,-2.1899,-2.1811,-2.1811,-2.1781,-2.1781,-2.1781,-2.1768,-2.1768,-2.1768,-2.1797,-2.1781,-2.1781,-2.1781,-2.1781,-2.1768,-2.1738,-2.1526,-2.1309,-2.1166,-2.0925,-2.0595,-2.0289,-2.0115,-2.0045,-1.9726,-1.9457,-1.931,-1.9161,-1.9011,-1.8912,-1.8988,-1.9003,-1.8889,-1.8851,-1.8965,-1.8965,-1.8788,-1.8808,-1.8679,-1.8588,-1.8496,-1.7921,-1.9499,-1.9545,-1.9612,-1.958,-1.9545,-1.9625,-1.9599,-1.9523,-1.9452,-1.9353,-1.9235,-1.9186,-1.9153,-1.9104,-1.9104,-1.9522,-2.0047,-1.9449,-1.9666,-1.9884,-1.9776,-1.9415,-1.9306,-1.929,-1.9021,-1.8882,-1.8704,-1.8824,-1.9077,-1.8965,-1.9104,-2.0018,-1.9671,-2.0372,-2.1985,-2.188,-2.2222,-2.3052,-2.3466,-2.3495,-2.3371,-2.3371,-2.3435,-2.3301,-2.3157,-2.3109,-2.3157,-2.314,-2.301,-2.2902,-2.2902,-2.279,-2.2893,-2.2919,-2.2995,-2.3045,-2.307,-2.307,-2.279,-2.2712,-2.2799,-2.2712,-2.2773,-2.2975,-2.3194,-2.306,-2.279,-2.2747,-2.249,-2.2343,-2.2347,-2.232,-2.2153,-2.2027,-2.1969,-2.194,-2.1869,-2.1781,-2.1781,-2.1797,-2.1768,-2.1797,-2.1781,-2.1781,-2.1781,-2.1781,-2.1781,-2.1781,-2.1768,-2.1724,-2.1495,-2.1324,-2.1119,-2.0893,-2.061,-2.046,-2.0426,-1.9995,-1.953,-1.9362,-1.9273,-1.9176,-1.9116,-1.9101,-1.9101,-1.9078,-1.9078,-1.9116,-1.884,-1.8563,-1.8737,-1.8925,-1.8797,-1.8684,-1.8289,-1.9168,-1.9152,-1.9259,-1.9286,-1.9289,-1.9295,-1.9246,-1.9232,-1.917,-1.912,-1.9139,-1.9237,-1.9204,-1.912,-1.914,-1.9685,-1.9829,-1.9377,-1.9666,-2.0029,-1.9939,-1.9686,-1.9542,-1.9507,-1.9179,-1.8924,-1.8767,-1.8603,-1.8606,-1.8775,-1.9192,-1.951,-2.0157,-2.0921,-2.1338,-2.1789,-2.2416,-2.2776,-2.3074,-2.3248,-2.3277,-2.3301,-2.3324,-2.3295,-2.3182,-2.3157,-2.3182,-2.314,-2.301,-2.291,-2.2799,-2.2721,-2.2738,-2.279,-2.2842,-2.2919,-2.2977,-2.2919,-2.2764,-2.2764,-2.2919,-2.3028,-2.3217,-2.336,-2.3544,-2.3504,-2.3236,-2.3042,-2.2799,-2.2632,-2.2634,-2.2563,-2.2402,-2.2141,-2.2084,-2.1998,-2.1899,-2.1781,-2.1797,-2.1797,-2.1797,-2.1797,-2.1811,-2.1811,-2.1781,-2.1781,-2.1781,-2.1781,-2.1768,-2.1708,-2.1587,-2.1495,-2.1371,-2.1151,-2.0794,-2.0695,-2.0595,-2.041,-1.998,-1.9675,-1.9398,-1.9288,-1.9176,-1.9101,-1.9101,-1.9139,-1.9116,-1.9116,-1.8767,-1.8462,-1.8738,-1.8991,-1.8815,-1.8679,-1.8664,-1.8931,-1.8896,-1.9109,-1.9216,-1.9231,-1.9423,-1.9471,-1.935,-1.9264,-1.9221,-1.9139,-1.9104,-1.9104,-1.9104,-1.9104,-1.9522,-2.0047,-1.945,-1.9666,-2.0156,-1.9759,-1.9758,-1.965,-1.9272,-1.9266,-1.9213,-1.9281,-1.959,-1.9183,-1.9437,-1.979,-2.0052,-2.0233,-2.0947,-2.1709,-2.2107,-2.2341,-2.27,-2.2887,-2.306,-2.296,-2.296,-2.3003,-2.285,-2.2605,-2.2525,-2.2497,-2.2487,-2.246,-2.2449,-2.246,-2.2497,-2.2579,-2.2642,-2.2685,-2.2738,-2.2825,-2.2738,-2.2659,-2.2659,-2.279,-2.301,-2.3133,-2.3301,-2.3481,-2.3611,-2.3463,-2.3491,-2.3277,-2.3028,-2.2985,-2.2935,-2.2782,-2.2309,-2.2056,-2.194,-2.184,-2.1827,-2.1827,-2.1827,-2.1827,-2.1857,-2.1869,-2.1869,-2.184,-2.184,-2.184,-2.1811,-2.1811,-2.1751,-2.1678,-2.1587,-2.1526,-2.1103,-2.0646,-2.0695,-2.0646,-2.053,-2.0326,-1.9839,-1.953,-1.9398,-1.9288,-1.9176,-1.9176,-1.9176,-1.9176,-1.9153,-1.8993,-1.8775,-1.8912,-1.902,-1.8801,-1.8705,-1.865]},{"header":{"parameterUnit":"m.s-1","parameterCategory":1,"la1":31.0,"la2":29.5877,"lo1":-88.7671,"lo2":-86.6584,"dy":0.0162,"dx":0.0185,"nx":115,"ny":88,"refTime":"2023-10-20T18:00:00:Z","depth":0,"parameterNumber":3,"parameterNumberName":"V-component_of_WINDS"},"data":[0.0,0.0,0.0,0.0,0.0,0.0,0.0,0.0,0.0,0.0,0.0,0.0,0.0,0.0,0.0,0.0,0.0,0.0,0.0,0.0,0.0,0.0,0.0,0.0,0.0,0.0,0.0,0.0,0.0,0.0,0.0,0.0,0.0,0.0,0.0,0.0,0.0,0.0,0.0,0.0,0.0,0.0,0.0,0.0,0.0,0.0,0.0,0.0,0.0,0.0,0.0,0.0,0.0,0.0,0.0,0.0,0.0,0.0,0.0,0.0,0.0,0.0,0.0,0.0,0.0,0.0,0.0,0.0,0.0,0.0,0.0,0.0,0.0,0.0,0.0,0.0,0.0,0.0,0.0,0.0,0.0,0.0,0.0,0.0,0.0,0.0,0.0,0.0,0.0,0.0,0.0,0.0,0.0,0.0,0.0,0.0,0.0,0.0,0.0,0.0,0.0,0.0,0.0,0.0,0.0,0.0,0.0,0.0,0.0,0.0,0.0,0.0,0.0,0.0,0.0,0.0,0.0,0.0,0.0,0.0,0.0,0.0,0.0,0.0,0.0,0.0,0.0,0.0,0.0,0.0,0.0,0.0,0.0,0.0,0.0,0.0,0.0,0.0,0.0,0.0,0.0,0.0,0.0,0.0,0.0,0.0,0.0,0.0,0.0,0.0,0.0,0.0,0.0,0.0,0.0,0.0,0.0,0.0,0.0,0.0,0.0,0.0,0.0,0.0,0.0,0.0,0.0,0.0,0.0,0.0,0.0,0.0,0.0,0.0,0.0,0.0,0.0,0.0,0.0,0.0,0.0,0.0,0.0,0.0,0.0,0.0,0.0,0.0,0.0,0.0,0.0,0.0,0.0,0.0,0.0,0.0,0.0,0.0,0.0,0.0,0.0,0.0,0.0,0.0,0.0,0.0,0.0,0.0,0.0,0.0,0.0,0.0,0.0,0.0,0.0,0.0,0.0,0.0,0.0,0.0,0.0,0.0,0.0,0.0,0.0,0.0,0.0,0.0,0.0,0.0,0.0,0.0,0.0,0.0,0.0,0.0,0.0,0.0,0.0,0.0,0.0,0.0,0.0,0.0,0.0,0.0,0.0,0.0,0.0,0.0,0.0,0.0,0.0,0.0,0.0,0.0,0.0,0.0,0.0,0.0,0.0,0.0,0.0,0.0,0.0,0.0,0.0,0.0,0.0,0.0,0.0,0.0,0.0,0.0,0.0,0.0,0.0,0.0,0.0,0.0,0.0,0.0,0.0,0.0,0.0,0.0,0.0,0.0,0.0,0.0,0.0,0.0,0.0,0.0,0.0,0.0,0.0,0.0,0.0,0.0,0.0,0.0,0.0,0.0,0.0,0.0,0.0,0.0,0.0,0.0,0.0,0.0,0.0,0.0,0.0,0.0,0.0,0.0,0.0,0.0,0.0,0.0,0.0,0.0,0.0,0.0,0.0,0.0,0.0,0.0,0.0,0.0,0.0,0.0,0.0,0.0,0.0,0.0,0.0,0.0,0.0,0.0,0.0,0.0,0.0,0.0,0.0,0.0,0.0,0.0,0.0,0.0,0.0,0.0,0.0,0.0,0.0,0.0,0.0,0.0,0.0,0.0,0.0,0.0,0.0,0.0,0.0,0.0,0.0,0.0,0.0,0.0,0.0,0.0,0.0,0.0,0.0,0.0,0.0,0.0,0.0,0.0,0.0,0.0,0.0,0.0,0.0,0.0,0.0,0.0,0.0,0.0,0.0,0.0,0.0,0.0,0.0,0.0,0.0,0.0,0.0,0.0,0.0,0.0,0.0,0.0,0.0,0.0,0.0,0.0,0.0,0.0,0.0,0.0,0.0,0.0,0.0,0.0,0.0,0.0,0.0,0.0,0.0,0.0,0.0,0.0,0.0,0.0,0.0,0.0,0.0,0.0,0.0,0.0,0.0,0.0,0.0,0.0,0.0,0.0,0.0,0.0,0.0,0.0,0.0,0.0,0.0,0.0,0.0,0.0,0.0,0.0,0.0,0.0,0.0,0.0,0.0,0.0,0.0,0.0,0.0,0.0,0.0,0.0,0.0,0.0,0.0,0.0,0.0,0.0,0.0,0.0,0.0,0.0,0.0,0.0,0.0,0.0,0.0,0.0,0.0,0.0,0.0,0.0,0.0,0.0,0.0,0.0,0.0,0.0,0.0,0.0,0.0,0.0,0.0,0.0,0.0,0.0,0.0,0.0,0.0,0.0,0.0,0.0,0.0,0.0,0.0,0.0,0.0,0.0,0.0,0.0,0.0,0.0,0.0,0.0,0.0,0.0,0.0,0.0,0.0,0.0,0.0,0.0,0.0,0.0,0.0,0.0,0.0,0.0,0.0,0.0,0.0,0.0,0.0,0.0,0.0,0.0,0.0,0.0,0.0,0.0,0.0,0.0,0.0,0.0,0.0,0.0,0.0,0.0,0.0,0.0,0.0,0.0,0.0,0.0,0.0,0.0,0.0,0.0,0.0,0.0,0.0,0.0,0.0,0.0,0.0,0.0,0.0,0.0,0.0,0.0,0.0,0.0,0.0,0.0,0.0,0.0,0.0,0.0,0.0,0.0,0.0,0.0,0.0,0.0,0.0,0.0,0.0,0.0,0.0,0.0,0.0,0.0,0.0,0.0,0.0,0.0,0.0,0.0,0.0,0.0,0.0,0.0,0.0,0.0,0.0,0.0,0.0,0.0,0.0,0.0,0.0,0.0,0.0,0.0,0.0,0.0,0.0,0.0,0.0,0.0,0.0,0.0,0.0,0.0,0.0,0.0,0.0,0.0,0.0,0.0,0.0,0.0,0.0,0.0,0.0,0.0,0.0,0.0,0.0,0.0,0.0,0.0,0.0,0.0,0.0,0.0,0.0,0.0,0.0,0.0,0.0,0.0,0.0,0.0,0.0,0.0,0.0,0.0,0.0,0.0,0.0,0.0,0.0,0.0,0.0,0.0,0.0,0.0,0.0,0.0,0.0,0.0,0.0,0.0,0.0,0.0,0.0,0.0,0.0,0.0,0.0,0.0,0.0,0.0,0.0,0.0,0.0,0.0,0.0,0.0,0.0,0.0,0.0,0.0,0.0,0.0,0.0,0.0,0.0,0.0,0.0,0.0,0.0,0.0,0.0,0.0,0.0,0.0,0.0,0.0,0.0,0.0,0.0,0.0,0.0,0.0,0.0,0.0,0.0,0.0,0.0,0.0,0.0,0.0,0.0,0.0,0.0,0.0,0.0,0.0,0.0,0.0,0.0,0.0,0.0,0.0,0.0,0.0,0.0,0.0,0.0,0.0,0.0,0.0,0.0,0.0,0.0,0.0,0.0,0.0,0.0,0.0,0.0,0.0,0.0,0.0,0.0,0.0,0.0,0.0,0.0,0.0,0.0,0.0,0.0,0.0,0.0,0.0,0.0,0.0,0.0,0.0,0.0,0.0,0.0,0.0,0.0,0.0,0.0,0.0,0.0,0.0,0.0,0.0,0.0,0.0,0.0,0.0,0.0,0.0,0.0,0.0,0.0,0.0,0.0,0.0,0.0,0.0,0.0,0.0,0.0,0.0,0.0,0.0,0.0,0.0,0.0,0.0,0.0,0.0,0.0,0.0,0.0,0.0,0.0,0.0,0.0,0.0,0.0,0.0,0.0,0.0,0.0,0.0,0.0,0.0,0.0,0.0,0.0,0.0,0.0,0.0,0.0,0.0,0.0,0.0,0.0,0.0,0.0,0.0,0.0,0.0,0.0,0.0,0.0,0.0,0.0,0.0,0.0,0.0,0.0,0.0,0.0,0.0,0.0,0.0,0.0,0.0,0.0,0.0,0.0,0.0,0.0,0.0,0.0,0.0,0.0,0.0,0.0,0.0,0.0,0.0,0.0,0.0,0.0,0.0,0.0,0.0,0.0,0.0,0.0,0.0,0.0,0.0,0.0,0.0,0.0,0.0,0.0,0.0,0.0,0.0,0.0,0.0,0.0,0.0,0.0,0.0,0.0,0.0,0.0,0.0,0.0,0.0,0.0,0.0,0.0,0.0,0.0,0.0,0.0,0.0,0.0,0.0,0.0,0.0,0.0,0.0,0.0,0.0,0.0,0.0,0.0,0.0,0.0,0.0,0.0,0.0,0.0,0.0,0.0,0.0,0.0,0.0,0.0,0.0,0.0,0.0,0.0,0.0,0.0,0.0,0.0,0.0,0.0,0.0,0.0,0.0,0.0,0.0,0.0,0.0,0.0,0.0,0.0,0.0,0.0,0.0,0.0,0.0,0.0,0.0,0.0,0.0,-0.7316,0.0,0.0,0.0,0.0,0.0,0.0,0.0,0.0,0.0,0.0,0.0,0.0,0.0,0.0,0.0,0.0,0.0,0.0,0.0,0.0,0.0,0.0,0.0,0.0,0.0,0.0,0.0,0.0,0.0,0.0,0.0,0.0,0.0,0.0,0.0,0.0,0.0,0.0,0.0,0.0,0.0,0.0,0.0,0.0,0.0,0.0,0.0,0.0,0.0,0.0,0.0,0.0,0.0,0.0,0.0,0.0,0.0,0.0,0.0,0.0,0.0,0.0,0.0,0.0,0.0,0.0,0.0,0.0,0.0,0.0,0.0,0.0,0.0,0.0,0.0,0.0,0.0,0.0,0.0,0.0,0.0,0.0,0.0,0.0,0.0,0.0,0.0,0.0,0.0,0.0,0.0,0.0,0.0,0.0,0.0,0.0,0.0,0.0,0.0,0.0,0.0,0.0,0.0,0.0,0.0,0.0,0.0,0.0,0.0,0.0,-0.9347,-0.8999,-0.8451,-0.7956,-0.7529,0.0,0.0,0.0,0.0,0.0,0.0,0.0,0.0,0.0,0.0,0.0,0.0,0.0,0.0,0.0,0.0,0.0,0.0,0.0,0.0,0.0,0.0,0.0,0.0,0.0,0.0,0.0,0.0,0.0,0.0,0.0,0.0,0.0,0.0,0.0,0.0,0.0,0.0,0.0,0.0,0.0,0.0,0.0,0.0,0.0,0.0,0.0,0.0,0.0,0.0,0.0,0.0,0.0,0.0,0.0,0.0,0.0,0.0,0.0,0.0,0.0,0.0,0.0,0.0,0.0,0.0,0.0,0.0,0.0,0.0,0.0,0.0,0.0,0.0,0.0,0.0,0.0,0.0,0.0,0.0,0.0,0.0,0.0,0.0,0.0,0.0,0.0,0.0,0.0,0.0,0.0,0.0,0.0,0.0,0.0,0.0,0.0,0.0,0.0,0.0,0.0,0.0,0.0,0.0,0.0,0.0,0.0,0.0,0.0,0.0,0.0,0.0,-0.8677,-0.8159,-0.7873,0.0,0.0,0.0,0.0,0.0,0.0,0.0,0.0,0.0,0.0,0.0,0.0,0.0,0.0,0.0,0.0,0.0,0.0,0.0,0.0,0.0,0.0,0.0,0.0,0.0,0.0,0.0,0.0,0.0,0.0,0.0,0.0,0.0,0.0,0.0,0.0,0.0,0.0,0.0,0.0,0.0,0.0,0.0,0.0,0.0,0.0,0.0,0.0,0.0,0.0,0.0,0.0,0.0,0.0,0.0,0.0,0.0,0.0,0.0,0.0,0.0,0.0,0.0,0.0,0.0,0.0,0.0,0.0,0.0,0.0,0.0,0.0,0.0,0.0,0.0,0.0,0.0,0.0,0.0,0.0,0.0,0.0,0.0,0.0,0.0,0.0,0.0,0.0,0.0,0.0,0.0,0.0,0.0,0.0,0.0,0.0,0.0,0.0,0.0,0.0,0.0,0.0,0.0,0.0,0.0,0.0,0.0,0.0,0.0,0.0,-1.0058,-1.0523,-0.9739,0.0,-0.8354,0.0,0.0,0.0,0.0,0.0,0.0,0.0,0.0,0.0,0.0,0.0,0.0,0.0,0.0,0.0,0.0,0.0,0.0,0.0,0.0,0.0,0.0,0.0,0.0,0.0,0.0,0.0,0.0,0.0,0.0,0.0,0.0,0.0,0.0,0.0,0.0,0.0,0.0,0.0,0.0,0.0,0.0,0.0,0.0,0.0,0.0,0.0,0.0,0.0,0.0,0.0,0.0,0.0,0.0,0.0,0.0,0.0,0.0,0.0,0.0,0.0,0.0,0.0,0.0,0.0,0.0,0.0,0.0,0.0,0.0,0.0,0.0,0.0,0.0,0.0,0.0,0.0,0.0,0.0,0.0,0.0,0.0,0.0,0.0,0.0,0.0,0.0,0.0,0.0,0.0,0.0,0.0,0.0,0.0,0.0,0.0,0.0,0.0,0.0,0.0,0.0,0.0,0.0,0.0,0.0,0.0,0.0,0.0,0.0,0.0,-1.0063,-1.0453,-0.9596,-0.8736,0.0,0.0,0.0,0.0,0.0,0.0,0.0,0.0,0.0,0.0,0.0,0.0,0.0,0.0,0.0,0.0,0.0,0.0,0.0,0.0,0.0,0.0,0.0,0.0,0.0,0.0,0.0,0.0,0.0,0.0,0.0,0.0,0.0,0.0,0.0,0.0,0.0,0.0,0.0,0.0,0.0,0.0,0.0,0.0,0.0,0.0,0.0,0.0,0.0,0.0,0.0,0.0,0.0,0.0,0.0,0.0,0.0,0.0,0.0,0.0,0.0,0.0,0.0,0.0,0.0,0.0,0.0,0.0,0.0,0.0,0.0,0.0,0.0,0.0,0.0,0.0,0.0,0.0,0.0,0.0,0.0,0.0,0.0,0.0,0.0,0.0,0.0,0.0,0.0,0.0,0.0,0.0,0.0,0.0,0.0,0.0,0.0,0.0,0.0,0.0,0.0,0.0,0.0,0.0,0.0,0.0,0.0,0.0,0.0,0.0,-1.0367,-1.0196,-1.0351,-0.9346,-0.8558,-0.8089,0.0,0.0,0.0,0.0,0.0,0.0,0.0,0.0,0.0,0.0,0.0,0.0,0.0,0.0,0.0,0.0,0.0,0.0,0.0,0.0,0.0,0.0,0.0,0.0,0.0,0.0,0.0,0.0,0.0,0.0,0.0,0.0,0.0,0.0,0.0,0.0,0.0,0.0,0.0,0.0,0.0,0.0,0.0,0.0,0.0,0.0,0.0,0.0,0.0,0.0,0.0,0.0,0.0,0.0,0.0,0.0,0.0,0.0,0.0,0.0,0.0,0.0,0.0,0.0,0.0,0.0,0.0,0.0,0.0,0.0,0.0,0.0,0.0,0.0,0.0,0.0,0.0,0.0,0.0,0.0,0.0,0.0,0.0,0.0,0.0,0.0,0.0,0.0,0.0,0.0,0.0,0.0,0.0,0.0,0.0,0.0,0.0,0.0,0.0,0.0,0.0,0.0,0.0,0.0,0.0,0.0,0.0,0.0,-1.2695,-1.1248,-1.0578,-1.0751,-0.9434,-0.8716,0.0,0.0,0.0,0.0,0.0,0.0,0.0,0.0,0.0,0.0,0.0,0.0,0.0,0.0,0.0,0.0,0.0,0.0,0.0,0.0,0.0,0.0,0.0,0.0,0.0,0.0,0.0,0.0,0.0,0.0,0.0,0.0,0.0,0.0,0.0,0.0,0.0,0.0,0.0,0.0,0.0,0.0,0.0,0.0,0.0,0.0,0.0,0.0,0.0,0.0,0.0,0.0,0.0,0.0,0.0,0.0,0.0,0.0,0.0,0.0,0.0,0.0,0.0,0.0,0.0,0.0,0.0,0.0,0.0,0.0,0.0,0.0,0.0,0.0,0.0,0.0,0.0,0.0,0.0,0.0,0.0,0.0,0.0,0.0,0.0,0.0,0.0,0.0,0.0,0.0,0.0,0.0,0.0,0.0,0.0,0.0,0.0,0.0,0.0,0.0,0.0,0.0,0.0,0.0,0.0,0.0,0.0,0.0,0.0,-1.0841,-1.0642,-1.0604,-1.0705,-0.9867,-0.9568,0.0,0.0,0.0,0.0,0.0,0.0,0.0,0.0,0.0,0.0,0.0,0.0,0.0,0.0,0.0,0.0,0.0,0.0,0.0,0.0,0.0,0.0,0.0,0.0,0.0,0.0,0.0,0.0,0.0,0.0,0.0,0.0,0.0,0.0,0.0,0.0,0.0,0.0,0.0,0.0,0.0,0.0,0.0,0.0,0.0,0.0,0.0,0.0,0.0,0.0,0.0,0.0,0.0,0.0,0.0,0.0,0.0,0.0,0.0,0.0,0.0,0.0,0.0,0.0,0.0,0.0,0.0,0.0,0.0,0.0,0.0,0.0,0.0,0.0,0.0,0.0,0.0,0.0,0.0,0.0,0.0,0.0,0.0,0.0,0.0,0.0,0.0,0.0,0.0,0.0,0.0,0.0,0.0,0.0,0.0,0.0,0.0,0.0,0.0,0.0,0.0,0.0,0.0,0.0,0.0,0.0,0.0,0.0,0.0,-1.0167,0.0,-1.0885,-1.0665,-0.9971,-0.9636,0.0,0.0,0.0,0.0,0.0,0.0,0.0,0.0,0.0,0.0,0.0,0.0,0.0,0.0,0.0,0.0,0.0,0.0,0.0,0.0,0.0,0.0,0.0,0.0,0.0,0.0,0.0,0.0,0.0,0.0,0.0,0.0,0.0,0.0,0.0,0.0,0.0,0.0,0.0,0.0,0.0,0.0,0.0,0.0,0.0,0.0,0.0,0.0,0.0,0.0,0.0,0.0,0.0,0.0,0.0,0.0,0.0,0.0,0.0,0.0,0.0,0.0,0.0,0.0,0.0,0.0,0.0,0.0,0.0,0.0,0.0,0.0,0.0,0.0,0.0,0.0,0.0,0.0,0.0,0.0,0.0,0.0,0.0,0.0,0.0,0.0,0.0,0.0,0.0,0.0,0.0,0.0,0.0,0.0,0.0,0.0,0.0,0.0,0.0,0.0,0.0,0.0,0.0,0.0,0.0,0.0,0.0,0.0,-0.9839,-1.1109,-1.1452,-1.1291,-1.0624,-0.9678,-0.8915,0.0,0.0,0.0,0.0,0.0,0.0,0.0,0.0,0.0,0.0,0.0,0.0,0.0,0.0,0.0,0.0,0.0,0.0,0.0,0.0,0.0,0.0,0.0,0.0,0.0,0.0,0.0,0.0,0.0,0.0,0.0,0.0,0.0,0.0,0.0,0.0,0.0,0.0,0.0,0.0,0.0,0.0,0.0,0.0,0.0,0.0,0.0,0.0,0.0,0.0,0.0,0.0,0.0,0.0,0.0,0.0,0.0,0.0,0.0,0.0,0.0,0.0,0.0,0.0,0.0,0.0,0.0,0.0,0.0,0.0,0.0,0.0,0.0,0.0,0.0,0.0,0.0,0.0,0.0,0.0,0.0,0.0,0.0,0.0,0.0,0.0,0.0,0.0,0.0,0.0,0.0,0.0,0.0,0.0,0.0,0.0,0.0,0.0,0.0,0.0,0.0,0.0,0.0,0.0,0.0,0.0,0.0,0.0,0.0,-1.0038,-1.0651,-1.1094,-1.1183,-0.9735,-0.9381,0.0,0.0,0.0,0.0,0.0,0.0,0.0,0.0,0.0,0.0,0.0,0.0,0.0,0.0,0.0,0.0,0.0,0.0,0.0,0.0,0.0,0.0,0.0,0.0,0.0,0.0,0.0,0.0,0.0,0.0,0.0,0.0,0.0,0.0,0.0,0.0,0.0,0.0,0.0,0.0,0.0,0.0,0.0,0.0,0.0,0.0,0.0,0.0,0.0,0.0,0.0,0.0,0.0,0.0,0.0,0.0,0.0,0.0,0.0,0.0,0.0,0.0,0.0,0.0,0.0,0.0,0.0,0.0,0.0,0.0,0.0,0.0,0.0,0.0,0.0,0.0,0.0,0.0,0.0,0.0,0.0,0.0,0.0,0.0,0.0,0.0,0.0,0.0,0.0,0.0,0.0,0.0,0.0,0.0,0.0,0.0,0.0,0.0,0.0,0.0,0.0,0.0,0.0,0.0,0.0,0.0,0.0,0.0,0.0,-1.0317,-1.0985,-1.123,-1.1032,-0.9805,-0.9438,-1.0021,0.0,0.0,0.0,0.0,0.0,0.0,0.0,0.0,0.0,0.0,0.0,0.0,0.0,0.0,0.0,0.0,0.0,0.0,0.0,0.0,0.0,0.0,0.0,0.0,0.0,0.0,0.0,0.0,0.0,0.0,0.0,0.0,0.0,0.0,0.0,0.0,0.0,0.0,0.0,0.0,0.0,0.0,0.0,0.0,0.0,0.0,0.0,0.0,0.0,0.0,0.0,0.0,0.0,0.0,0.0,0.0,0.0,0.0,0.0,0.0,0.0,0.0,0.0,0.0,0.0,0.0,0.0,0.0,0.0,0.0,0.0,0.0,0.0,0.0,0.0,0.0,0.0,0.0,0.0,0.0,0.0,0.0,0.0,0.0,0.0,0.0,0.0,0.0,0.0,0.0,0.0,0.0,0.0,0.0,0.0,0.0,0.0,0.0,0.0,0.0,0.0,0.0,0.0,0.0,0.0,0.0,0.0,0.0,-1.1567,-1.2243,-1.1826,-1.0355,-0.9839,-0.9221,0.0,0.0,0.0,0.0,0.0,0.0,0.0,0.0,0.0,0.0,0.0,0.0,0.0,0.0,0.0,0.0,0.0,0.0,0.0,0.0,0.0,0.0,0.0,0.0,0.0,0.0,0.0,0.0,0.0,0.0,0.0,0.0,0.0,0.0,0.0,0.0,0.0,0.0,0.0,0.0,0.0,0.0,0.0,0.0,0.0,0.0,0.0,0.0,0.0,0.0,0.0,0.0,0.0,0.0,0.0,0.0,0.0,0.0,0.0,0.0,0.0,0.0,0.0,0.0,0.0,0.0,0.0,0.0,0.0,0.0,0.0,0.0,0.0,0.0,0.0,0.0,0.0,0.0,0.0,0.0,0.0,0.0,0.0,0.0,0.0,0.0,0.0,0.0,0.0,0.0,0.0,0.0,0.0,0.0,0.0,0.0,0.0,0.0,0.0,0.0,0.0,0.0,0.0,0.0,0.0,0.0,0.0,0.0,0.0,-1.2232,-1.3086,-1.2767,-1.1182,-0.986,-0.9206,0.0,0.0,0.0,0.0,0.0,0.0,0.0,0.0,0.0,0.0,0.0,0.0,0.0,0.0,0.0,0.0,0.0,0.0,0.0,0.0,0.0,0.0,0.0,0.0,0.0,0.0,0.0,0.0,0.0,0.0,0.0,0.0,0.0,0.0,0.0,0.0,0.0,0.0,0.0,0.0,0.0,0.0,0.0,0.0,0.0,0.0,0.0,0.0,0.0,0.0,0.0,0.0,0.0,0.0,0.0,0.0,0.0,0.0,0.0,0.0,0.0,0.0,0.0,0.0,0.0,0.0,0.0,0.0,0.0,0.0,0.0,0.0,0.0,0.0,0.0,0.0,0.0,0.0,0.0,0.0,0.0,0.0,0.0,0.0,0.0,0.0,0.0,0.0,0.0,0.0,0.0,0.0,0.0,0.0,0.0,0.0,0.0,0.0,0.0,0.0,0.0,0.0,0.0,0.0,0.0,0.0,0.0,0.0,-1.198,-1.3097,-1.3815,-1.3544,-1.2175,-1.0698,-0.9839,0.0,0.0,0.0,0.0,0.0,0.0,0.0,0.0,0.0,0.0,0.0,0.0,0.0,0.0,0.0,0.0,0.0,0.0,0.0,0.0,0.0,0.0,0.0,0.0,0.0,0.0,0.0,0.0,0.0,0.0,0.0,0.0,0.0,0.0,0.0,0.0,0.0,0.0,0.0,0.0,0.0,0.0,0.0,0.0,0.0,0.0,0.0,0.0,0.0,0.0,0.0,0.0,0.0,0.0,0.0,0.0,0.0,0.0,0.0,0.0,0.0,0.0,0.0,0.0,0.0,0.0,0.0,0.0,0.0,0.0,0.0,0.0,0.0,0.0,0.0,0.0,0.0,0.0,0.0,0.0,0.0,0.0,0.0,0.0,0.0,0.0,0.0,0.0,0.0,0.0,0.0,0.0,0.0,0.0,0.0,0.0,0.0,0.0,0.0,0.0,0.0,0.0,0.0,0.0,0.0,0.0,0.0,0.0,-1.2906,-1.3931,-1.4289,-1.4078,-1.3177,-1.1869,-1.0744,0.0,0.0,0.0,0.0,0.0,0.0,0.0,0.0,0.0,0.0,0.0,0.0,0.0,0.0,0.0,0.0,0.0,0.0,0.0,0.0,0.0,0.0,0.0,0.0,0.0,0.0,0.0,0.0,0.0,0.0,0.0,0.0,0.0,0.0,0.0,0.0,0.0,0.0,0.0,0.0,0.0,0.0,0.0,0.0,0.0,0.0,0.0,0.0,0.0,0.0,0.0,0.0,0.0,0.0,0.0,0.0,0.0,0.0,0.0,0.0,0.0,0.0,0.0,0.0,0.0,0.0,0.0,0.0,0.0,0.0,0.0,0.0,0.0,0.0,0.0,0.0,0.0,0.0,0.0,0.0,0.0,0.0,0.0,0.0,0.0,0.0,0.0,0.0,0.0,0.0,0.0,0.0,0.0,0.0,0.0,0.0,0.0,0.0,0.0,0.0,0.0,0.0,0.0,0.0,0.0,0.0,0.0,0.0,-1.2428,-1.3435,-1.4147,-1.4245,-1.3711,-1.2007,-1.0703,0.0,0.0,0.0,0.0,0.0,0.0,0.0,0.0,0.0,0.0,0.0,0.0,0.0,0.0,0.0,0.0,0.0,0.0,0.0,0.0,0.0,0.0,0.0,0.0,0.0,0.0,0.0,0.0,0.0,0.0,0.0,0.0,0.0,0.0,0.0,0.0,0.0,0.0,0.0,0.0,0.0,0.0,0.0,0.0,0.0,0.0,0.0,0.0,-1.6244,0.0,0.0,0.0,0.0,0.0,0.0,0.0,0.0,0.0,0.0,0.0,0.0,0.0,0.0,0.0,0.0,0.0,0.0,0.0,0.0,0.0,0.0,0.0,0.0,0.0,0.0,0.0,0.0,0.0,0.0,0.0,0.0,0.0,0.0,0.0,0.0,0.0,0.0,0.0,0.0,0.0,0.0,0.0,0.0,0.0,0.0,0.0,0.0,0.0,0.0,0.0,0.0,0.0,0.0,0.0,0.0,0.0,0.0,0.0,-1.2596,-1.362,-1.4185,-1.4313,-1.3855,-1.212,-1.1029,0.0,0.0,0.0,0.0,0.0,0.0,0.0,0.0,0.0,0.0,0.0,0.0,0.0,0.0,0.0,0.0,0.0,0.0,0.0,0.0,0.0,0.0,0.0,0.0,0.0,0.0,0.0,0.0,0.0,0.0,0.0,0.0,0.0,0.0,0.0,0.0,0.0,0.0,0.0,0.0,0.0,0.0,0.0,0.0,0.0,0.0,0.0,0.0,0.0,0.0,0.0,0.0,0.0,0.0,0.0,0.0,0.0,0.0,0.0,0.0,0.0,0.0,0.0,0.0,0.0,0.0,0.0,0.0,0.0,0.0,0.0,0.0,0.0,0.0,0.0,0.0,0.0,0.0,0.0,0.0,0.0,0.0,0.0,0.0,0.0,0.0,0.0,0.0,0.0,0.0,0.0,0.0,0.0,0.0,0.0,0.0,0.0,0.0,0.0,0.0,0.0,0.0,0.0,0.0,0.0,0.0,0.0,-1.2576,-1.287,-1.3879,-1.426,-1.4212,-1.3791,-1.2068,-1.1248,-1.1386,0.0,0.0,0.0,0.0,0.0,0.0,0.0,0.0,0.0,0.0,0.0,0.0,0.0,0.0,0.0,0.0,0.0,0.0,0.0,0.0,0.0,0.0,0.0,0.0,0.0,0.0,0.0,0.0,0.0,0.0,0.0,0.0,0.0,0.0,0.0,0.0,0.0,0.0,-1.6844,-1.7463,0.0,0.0,0.0,0.0,0.0,0.0,0.0,0.0,-1.7455,0.0,0.0,0.0,0.0,0.0,0.0,0.0,0.0,0.0,0.0,0.0,0.0,0.0,0.0,0.0,0.0,0.0,0.0,0.0,0.0,0.0,0.0,0.0,0.0,0.0,0.0,0.0,0.0,0.0,0.0,0.0,0.0,0.0,0.0,0.0,0.0,0.0,0.0,0.0,0.0,0.0,0.0,0.0,0.0,0.0,0.0,0.0,0.0,0.0,0.0,0.0,0.0,0.0,0.0,0.0,0.0,-1.3434,-1.2514,-1.2512,-1.3462,-1.383,-1.38,-1.336,-1.1259,-1.0337,-1.0815,0.0,0.0,0.0,0.0,0.0,0.0,0.0,0.0,0.0,0.0,0.0,0.0,0.0,0.0,0.0,0.0,0.0,0.0,0.0,0.0,0.0,0.0,0.0,0.0,0.0,0.0,0.0,0.0,0.0,0.0,0.0,0.0,0.0,0.0,0.0,0.0,0.0,0.0,0.0,-1.8485,-1.9014,0.0,0.0,0.0,0.0,0.0,0.0,0.0,0.0,-1.7075,0.0,0.0,0.0,0.0,0.0,0.0,0.0,0.0,0.0,0.0,0.0,0.0,0.0,0.0,0.0,0.0,0.0,0.0,0.0,0.0,0.0,0.0,0.0,0.0,0.0,0.0,0.0,0.0,0.0,0.0,0.0,0.0,0.0,0.0,0.0,0.0,0.0,0.0,0.0,0.0,0.0,0.0,0.0,0.0,0.0,0.0,0.0,0.0,0.0,0.0,0.0,0.0,0.0,0.0,0.0,-1.2699,-1.2478,-1.256,-1.3058,-1.3422,-1.3168,-1.2323,-1.0336,-0.9444,0.0,0.0,0.0,0.0,0.0,0.0,0.0,0.0,0.0,0.0,0.0,0.0,0.0,0.0,0.0,0.0,0.0,0.0,0.0,0.0,0.0,0.0,0.0,0.0,0.0,0.0,0.0,0.0,0.0,0.0,0.0,0.0,0.0,0.0,0.0,0.0,0.0,0.0,0.0,0.0,-1.9058,-1.9479,-1.8746,0.0,0.0,0.0,0.0,0.0,0.0,-1.8156,-1.7886,0.0,0.0,0.0,0.0,0.0,0.0,0.0,0.0,0.0,0.0,0.0,0.0,0.0,0.0,0.0,0.0,0.0,0.0,0.0,0.0,0.0,0.0,0.0,0.0,0.0,0.0,0.0,0.0,0.0,0.0,0.0,0.0,0.0,0.0,0.0,0.0,0.0,0.0,0.0,0.0,0.0,0.0,0.0,0.0,0.0,0.0,0.0,0.0,0.0,0.0,0.0,0.0,0.0,0.0,0.0,-1.2085,-1.2422,-1.2568,-1.2567,-1.2883,-1.2446,-1.1233,-0.947,-0.8617,0.0,0.0,0.0,0.0,0.0,0.0,0.0,0.0,0.0,0.0,0.0,0.0,0.0,0.0,0.0,0.0,0.0,0.0,0.0,0.0,0.0,0.0,0.0,0.0,0.0,0.0,0.0,0.0,0.0,0.0,0.0,0.0,0.0,0.0,0.0,0.0,0.0,0.0,0.0,0.0,0.0,-2.003,-1.8762,-2.0286,0.0,0.0,0.0,0.0,-2.0323,-1.937,0.0,0.0,0.0,0.0,0.0,0.0,0.0,0.0,0.0,0.0,0.0,0.0,0.0,0.0,0.0,0.0,0.0,0.0,0.0,0.0,0.0,0.0,0.0,0.0,0.0,0.0,0.0,0.0,0.0,0.0,0.0,0.0,0.0,0.0,0.0,0.0,0.0,0.0,0.0,0.0,0.0,0.0,0.0,0.0,0.0,0.0,0.0,0.0,0.0,0.0,0.0,0.0,0.0,0.0,0.0,0.0,-1.2052,-1.2173,-1.2149,-1.2172,-1.2236,-1.1683,-1.0512,-0.8731,-0.7809,0.0,0.0,0.0,0.0,0.0,0.0,0.0,0.0,0.0,0.0,0.0,0.0,0.0,0.0,0.0,0.0,0.0,0.0,0.0,0.0,0.0,0.0,0.0,0.0,0.0,0.0,0.0,0.0,0.0,0.0,0.0,0.0,0.0,0.0,0.0,0.0,0.0,0.0,0.0,0.0,0.0,-2.0951,-2.0215,-2.1402,-2.215,0.0,0.0,-2.0393,-2.0492,-2.0389,0.0,0.0,0.0,0.0,0.0,0.0,0.0,0.0,0.0,0.0,0.0,0.0,0.0,0.0,0.0,0.0,0.0,0.0,0.0,0.0,0.0,0.0,0.0,0.0,0.0,0.0,0.0,0.0,0.0,0.0,0.0,0.0,0.0,0.0,0.0,0.0,0.0,0.0,0.0,0.0,0.0,0.0,0.0,0.0,0.0,0.0,0.0,0.0,0.0,0.0,0.0,0.0,0.0,0.0,0.0,-1.1199,-1.1706,-1.1529,-1.1414,-1.1407,-1.1214,-1.0499,-0.9342,-0.7642,-0.7123,0.0,0.0,0.0,0.0,0.0,0.0,0.0,0.0,0.0,0.0,0.0,0.0,0.0,0.0,0.0,0.0,0.0,0.0,0.0,0.0,0.0,0.0,0.0,0.0,0.0,0.0,0.0,0.0,0.0,0.0,0.0,0.0,0.0,0.0,0.0,0.0,0.0,0.0,0.0,0.0,0.0,0.0,-2.0597,-2.2001,0.0,0.0,0.0,-2.1603,-2.1239,0.0,0.0,0.0,0.0,0.0,0.0,0.0,0.0,0.0,0.0,0.0,0.0,0.0,0.0,0.0,0.0,0.0,0.0,0.0,0.0,0.0,0.0,0.0,0.0,0.0,0.0,0.0,0.0,0.0,0.0,0.0,0.0,0.0,0.0,0.0,0.0,0.0,0.0,0.0,0.0,0.0,0.0,0.0,0.0,0.0,0.0,0.0,0.0,0.0,0.0,0.0,0.0,0.0,0.0,0.0,0.0,0.0,-1.1328,-1.0855,-1.0701,-1.0864,-1.0413,-0.9582,-0.8403,-0.6882,0.0,0.0,0.0,0.0,0.0,0.0,0.0,0.0,0.0,0.0,0.0,0.0,0.0,0.0,0.0,0.0,0.0,0.0,0.0,0.0,0.0,0.0,0.0,0.0,0.0,0.0,0.0,-1.3895,0.0,0.0,0.0,0.0,0.0,0.0,0.0,0.0,0.0,0.0,0.0,0.0,0.0,0.0,-2.2441,-2.1242,-2.2752,-2.349,0.0,0.0,-2.2717,-2.1873,-2.2007,-2.1911,0.0,0.0,0.0,0.0,0.0,0.0,0.0,0.0,0.0,0.0,0.0,0.0,0.0,0.0,0.0,0.0,0.0,0.0,0.0,0.0,0.0,0.0,0.0,0.0,0.0,0.0,0.0,0.0,0.0,0.0,0.0,0.0,0.0,0.0,0.0,0.0,0.0,0.0,0.0,0.0,0.0,0.0,0.0,0.0,0.0,0.0,0.0,0.0,0.0,0.0,0.0,0.0,0.0,0.0,0.0,-1.0871,-1.0175,-1.0136,-1.0827,-1.0155,-0.9181,-0.8034,-0.6715,-0.6261,0.0,0.0,0.0,0.0,0.0,0.0,0.0,0.0,0.0,0.0,0.0,0.0,0.0,0.0,0.0,0.0,0.0,0.0,0.0,0.0,0.0,0.0,0.0,0.0,0.0,0.0,0.0,0.0,0.0,0.0,0.0,0.0,0.0,0.0,0.0,0.0,0.0,0.0,0.0,0.0,0.0,-2.3391,-2.2732,-2.3902,-2.433,0.0,0.0,-2.3437,-2.2013,-2.2957,-2.3371,-2.1947,0.0,0.0,0.0,0.0,0.0,0.0,0.0,0.0,0.0,0.0,0.0,0.0,0.0,0.0,0.0,0.0,0.0,0.0,0.0,0.0,0.0,0.0,0.0,0.0,0.0,0.0,0.0,0.0,0.0,0.0,0.0,0.0,0.0,0.0,0.0,0.0,0.0,0.0,0.0,0.0,0.0,0.0,0.0,0.0,0.0,0.0,0.0,0.0,0.0,0.0,0.0,0.0,0.0,-0.9564,-1.0498,-0.9531,-0.9385,-1.0091,-0.942,-0.8576,-0.7661,-0.6563,-0.5989,0.0,0.0,0.0,0.0,0.0,0.0,0.0,0.0,0.0,0.0,0.0,0.0,0.0,0.0,0.0,0.0,0.0,0.0,0.0,0.0,0.0,0.0,0.0,0.0,0.0,0.0,0.0,0.0,-1.3505,-1.3715,-1.4824,0.0,0.0,0.0,0.0,0.0,0.0,0.0,0.0,0.0,0.0,-2.2599,-2.2843,-2.3339,0.0,0.0,-2.352,-2.3487,-2.2029,-2.2659,-2.2808,-2.135,-2.1334,0.0,0.0,0.0,0.0,0.0,0.0,0.0,0.0,0.0,0.0,0.0,0.0,0.0,0.0,0.0,0.0,0.0,0.0,0.0,0.0,0.0,0.0,0.0,0.0,0.0,0.0,0.0,0.0,0.0,0.0,0.0,0.0,0.0,0.0,0.0,0.0,0.0,0.0,0.0,0.0,0.0,0.0,0.0,0.0,0.0,0.0,0.0,0.0,0.0,0.0,0.0,0.0,-0.8989,-0.9925,-0.8677,-0.8431,-0.9336,-0.8708,-0.7948,-0.7191,-0.641,-0.5882,0.0,0.0,0.0,0.0,0.0,0.0,0.0,0.0,0.0,0.0,0.0,0.0,0.0,0.0,0.0,0.0,0.0,0.0,0.0,0.0,0.0,0.0,0.0,0.0,0.0,0.0,0.0,0.0,-1.4076,-1.4524,-1.4963,0.0,0.0,0.0,0.0,0.0,0.0,0.0,0.0,0.0,0.0,-2.2311,-2.2824,-2.3272,-2.347,-2.3255,-2.3851,-2.3818,-2.2344,-2.2559,-2.246,-2.1218,0.0,0.0,0.0,0.0,0.0,0.0,0.0,0.0,0.0,0.0,0.0,0.0,0.0,0.0,0.0,0.0,0.0,0.0,0.0,0.0,0.0,0.0,0.0,0.0,0.0,0.0,0.0,0.0,0.0,0.0,-0.5994,0.0,0.0,0.0,0.0,0.0,0.0,0.0,0.0,0.0,0.0,0.0,0.0,0.0,0.0,0.0,0.0,0.0,0.0,0.0,0.0,0.0,0.0,-0.79,-0.9097,-0.7559,-0.729,-0.8489,-0.8054,-0.7439,-0.6657,-0.6206,-0.5987,-0.5995,0.0,0.0,0.0,0.0,0.0,0.0,0.0,0.0,0.0,0.0,0.0,0.0,0.0,0.0,0.0,0.0,0.0,0.0,0.0,0.0,0.0,0.0,0.0,0.0,0.0,0.0,-1.6339,-1.5011,-1.3941,0.0,0.0,0.0,0.0,0.0,0.0,0.0,0.0,0.0,0.0,-2.1947,-2.2857,-2.2857,-2.4083,-2.4646,-2.4,-2.4547,-2.4514,-2.304,-2.2857,-2.2642,0.0,0.0,0.0,0.0,0.0,0.0,0.0,0.0,0.0,0.0,0.0,0.0,0.0,0.0,0.0,0.0,0.0,0.0,0.0,0.0,0.0,0.0,0.0,0.0,0.0,0.0,0.0,-0.5354,-0.5678,0.0,0.0,0.0,0.0,0.0,0.0,0.0,0.0,0.0,0.0,0.0,-0.6325,-0.6319,0.0,0.0,0.0,0.0,0.0,0.0,0.0,0.0,0.0,0.0,0.0,0.0,-0.8106,-0.8977,-0.7784,-0.7583,-0.8452,-0.8126,-0.7494,-0.663,-0.6026,-0.59,-0.6273,0.0,0.0,0.0,0.0,0.0,0.0,0.0,0.0,0.0,0.0,0.0,0.0,0.0,0.0,0.0,0.0,0.0,0.0,0.0,0.0,0.0,0.0,0.0,0.0,0.0,-1.564,0.0,0.0,0.0,0.0,0.0,0.0,0.0,0.0,0.0,0.0,0.0,-1.9975,-1.9975,-2.1251,-2.198,-2.1499,-2.2278,-2.2808,0.0,0.0,0.0,0.0,0.0,0.0,0.0,0.0,0.0,0.0,0.0,0.0,0.0,0.0,-2.3934,-2.2562,-2.2236,-2.2181,-2.2113,0.0,0.0,0.0,0.0,0.0,0.0,0.0,0.0,0.0,0.0,0.0,0.0,0.0,0.0,-0.4943,0.0,-0.5349,0.0,0.0,0.0,0.0,0.0,0.0,0.0,0.0,-0.6359,-0.6525,-0.6487,-0.6532,-0.6484,0.0,-0.6681,-0.6861,0.0,0.0,0.0,0.0,0.0,0.0,0.0,0.0,-0.8072,-0.8564,-0.7636,-0.7414,-0.7986,-0.7839,-0.7312,-0.6429,-0.5707,-0.5406,-0.5561,-0.5575,-0.5887,0.0,0.0,0.0,0.0,0.0,0.0,0.0,0.0,0.0,0.0,0.0,0.0,0.0,0.0,0.0,0.0,0.0,0.0,0.0,0.0,0.0,0.0,0.0,-1.5845,0.0,0.0,0.0,0.0,0.0,0.0,0.0,0.0,0.0,-1.8873,-1.9518,-1.9992,-1.9965,-2.082,-2.1317,-2.1102,0.0,0.0,0.0,0.0,0.0,0.0,0.0,-2.246,-2.2228,-2.2791,-2.3288,-2.3288,-2.4083,-2.4713,-2.4729,0.0,0.0,-2.3156,-2.2675,-2.245,-2.254,-2.2743,-2.2907,-2.2965,-2.3237,-2.3456,0.0,0.0,0.0,0.0,0.0,0.0,0.0,0.0,-0.4743,-0.4936,0.0,-0.5059,0.0,0.0,0.0,0.0,0.0,-0.6116,0.0,0.0,-0.6265,-0.6242,-0.5989,-0.6032,-0.5902,-0.5733,-0.6749,-0.6748,-0.5901,-0.6682,0.0,0.0,0.0,0.0,0.0,0.0,-0.7812,-0.7844,-0.7095,-0.6831,-0.7196,-0.7214,-0.6831,-0.602,-0.5238,-0.4592,-0.412,-0.5275,-0.5975,-0.6038,-0.7639,0.0,0.0,0.0,0.0,0.0,0.0,0.0,0.0,0.0,0.0,0.0,0.0,0.0,0.0,0.0,0.0,0.0,0.0,0.0,0.0,-1.7168,0.0,0.0,0.0,0.0,0.0,0.0,0.0,0.0,0.0,0.0,-1.9602,-2.0202,-2.0643,-2.0643,0.0,0.0,0.0,0.0,-2.2046,-2.2725,-2.3454,-2.3653,-2.2957,-2.3454,-2.3686,-2.299,0.0,0.0,-2.4067,-2.4083,-2.4149,-2.41,-2.4149,-2.4265,-2.4928,-2.3851,-2.3172,-2.3768,-2.3606,-2.3587,-2.4191,-2.4454,-2.4689,-0.1503,0.0,0.0,0.0,0.0,-0.289,-0.3398,-0.4089,-0.3933,-0.4179,-0.473,-0.4715,0.0,0.0,0.0,0.0,0.0,0.0,-0.617,-0.6379,-0.6655,-0.6788,-0.6775,-0.6775,-0.6741,-0.6667,-0.649,-0.6257,-0.6007,-0.5931,-0.6445,-0.7447,0.0,0.0,0.0,0.0,-0.8289,-0.8262,-0.7744,-0.7378,-0.7196,-0.7196,-0.6821,-0.602,-0.5506,-0.5022,-0.4612,-0.4929,-0.5538,-0.6401,-0.6989,0.0,0.0,0.0,0.0,0.0,0.0,0.0,0.0,0.0,0.0,0.0,0.0,0.0,0.0,0.0,0.0,0.0,0.0,0.0,-1.7197,-1.6427,-1.6053,0.0,0.0,0.0,0.0,0.0,0.0,0.0,0.0,0.0,-2.0367,-2.0159,-1.9967,0.0,0.0,-2.091,-2.1291,-2.1386,-2.1544,-2.2049,-2.2264,0.0,-2.2129,-2.2725,-2.3139,-2.2924,-2.3951,-2.4961,-2.5491,-2.5574,-2.559,-2.5541,-2.516,-2.4862,-2.4978,-2.4348,-2.3802,-2.3918,-2.3883,-2.3847,-2.4047,-2.4193,-2.412,-0.0907,-0.1456,-0.1513,-0.1612,-0.1805,-0.2143,-0.2662,-0.3205,-0.3476,-0.3786,-0.4125,-0.4455,-0.4457,-0.4255,-0.4526,0.0,0.0,0.0,-0.6198,-0.663,-0.6766,-0.6938,-0.7078,-0.7141,-0.7086,-0.6923,-0.6591,-0.6407,-0.6383,-0.589,-0.6191,-0.719,0.0,0.0,-0.823,-0.8331,-0.8326,-0.8236,-0.7918,-0.7625,-0.7412,-0.7073,-0.6684,-0.6222,-0.5675,-0.536,-0.5275,-0.4956,-0.536,-0.652,-0.6693,-0.7055,0.0,0.0,0.0,0.0,0.0,0.0,0.0,0.0,0.0,0.0,0.0,-1.5131,0.0,0.0,0.0,0.0,-1.415,-1.5179,-1.4907,-1.5672,0.0,0.0,0.0,0.0,0.0,0.0,0.0,-1.9677,-1.9789,-1.9978,-2.0314,-1.9986,-1.9789,-2.005,-2.0208,-2.0478,-2.0975,0.0,-2.1,-2.1521,-2.1678,-2.1738,-2.1797,-2.241,-2.299,-2.3288,-2.405,-2.4779,-2.5226,-2.5342,-2.5325,-2.5292,-2.4978,-2.4679,-2.4663,-2.4299,-2.4,-2.3984,-2.3768,-2.3653,-2.3918,-2.4232,-2.4232,-0.0576,-0.0898,-0.1456,-0.1704,-0.1707,-0.2237,-0.2509,-0.2583,-0.319,-0.355,-0.3758,-0.4292,-0.4442,-0.4313,-0.4522,0.0,-0.6211,-0.6012,-0.6192,-0.671,-0.6716,-0.688,-0.7079,-0.7252,-0.7089,-0.6762,-0.6894,-0.6923,-0.6773,-0.6287,-0.6377,-0.7133,-0.6865,-0.6983,-0.7405,-0.7895,-0.8003,-0.7751,-0.7755,-0.7732,-0.7693,-0.6951,-0.6547,-0.6484,-0.5841,-0.5662,-0.5957,-0.5247,-0.5375,-0.6529,-0.6557,-0.6988,-0.8026,0.0,0.0,0.0,0.0,0.0,0.0,0.0,0.0,0.0,0.0,0.0,0.0,0.0,0.0,0.0,-1.2716,0.0,-1.1366,-1.5096,0.0,0.0,0.0,-1.9192,-1.8708,-1.9356,-1.9808,-1.9675,0.0,0.0,-1.9726,-1.969,-1.9925,-2.0595,-2.0016,-1.9827,-2.0679,-2.0496,-2.0457,-2.1197,-2.1556,-2.1797,-2.1814,-2.241,-2.3139,-2.3785,-2.4,-2.4067,-2.4083,-2.4083,-2.4033,-2.41,-2.3967,-2.3918,-2.3918,-2.3818,-2.3818,-2.3752,-2.3404,-2.3238,-2.3868,-2.4464,-2.4663,-0.0339,-0.0561,-0.0841,-0.1004,-0.1108,-0.1439,-0.1817,-0.2182,-0.2561,-0.3072,-0.3711,-0.3813,-0.4017,-0.4418,-0.4676,-0.5157,-0.5699,-0.6059,-0.6364,-0.6673,-0.6892,-0.7031,-0.7079,-0.7139,-0.7111,-0.6993,-0.6821,-0.6804,-0.6868,-0.6357,-0.6322,-0.6648,-0.6452,-0.6732,-0.7516,-0.7601,-0.754,-0.7493,-0.7842,-0.7903,-0.7687,-0.7254,-0.6865,-0.6593,-0.6429,-0.6228,-0.6002,-0.5511,-0.5671,-0.6538,-0.6127,-0.5978,-0.624,-0.6961,0.0,0.0,0.0,0.0,0.0,0.0,0.0,0.0,0.0,-1.5866,-1.5964,0.0,-1.6174,0.0,-1.2223,-1.2775,-1.6666,-1.5975,0.0,0.0,-1.8745,-1.9281,-1.9221,-1.9383,-1.9508,-1.9487,-1.9523,-1.956,-1.9487,-1.945,-1.9472,-1.9675,-1.9626,-1.9904,-2.0727,-2.0596,-2.054,-2.0975,-2.1402,-2.1664,-2.1774,-2.2396,-2.3123,-2.3884,-2.3984,-2.4,-2.4,-2.4,-2.4,-2.3967,-2.352,-2.3205,-2.3156,-2.2708,-2.2361,-2.2394,-2.304,-2.3768,-2.3967,-2.4149,-2.405,-0.0284,-0.0393,-0.0617,-0.0729,-0.0841,-0.1066,-0.1289,-0.1512,-0.2012,-0.2432,-0.2875,-0.3148,-0.3489,-0.3739,-0.4365,-0.4778,-0.5186,-0.5783,-0.6216,-0.648,-0.6756,-0.6923,-0.6923,-0.7031,-0.7133,-0.7133,-0.695,-0.6943,-0.7026,-0.6668,-0.6636,-0.6775,-0.6503,-0.6603,-0.716,-0.7453,-0.7639,-0.7822,-0.7986,-0.7834,-0.7319,-0.7163,-0.7089,-0.7052,-0.6766,-0.6648,-0.6775,-0.6082,-0.6111,-0.7077,-0.6611,-0.599,-0.5296,-0.6094,-0.76,0.0,0.0,0.0,0.0,0.0,0.0,0.0,0.0,0.0,0.0,0.0,-1.7316,-1.6488,-1.3903,-1.4019,-1.8303,-1.7132,-1.683,-1.8629,-1.9053,-1.925,-1.9339,-1.9302,-1.9288,-1.9376,-1.9376,-1.9376,-1.9376,-1.9391,-1.9339,-1.9391,-1.9428,-1.9657,-2.0109,-2.0193,-2.0311,-2.0731,-2.1087,-2.1433,-2.1648,-2.2098,-2.2543,-2.2907,-2.3023,-2.3023,-2.3023,-2.3023,-2.3023,-2.299,-2.2675,-2.241,-2.2394,-2.2096,-2.1797,-2.1897,-2.2427,-2.294,-2.3023,-2.3272,-2.3288,-0.0232,-0.0395,-0.0562,-0.0617,-0.0617,-0.0785,-0.0897,-0.0954,-0.1512,-0.179,-0.1846,-0.2571,-0.2905,-0.3072,-0.3846,-0.4398,-0.4787,-0.5462,-0.5955,-0.6209,-0.6534,-0.6701,-0.6756,-0.6972,-0.7133,-0.7133,-0.7133,-0.7192,-0.7246,-0.7004,-0.6991,-0.7132,-0.6694,-0.655,-0.6693,-0.736,-0.7891,-0.8242,-0.8112,-0.7749,-0.7112,-0.7068,-0.7244,-0.7649,-0.7016,-0.7022,-0.7639,-0.6657,-0.6575,-0.7652,-0.7388,-0.663,-0.5451,-0.65,-0.8341,0.0,-1.213,0.0,0.0,0.0,0.0,0.0,0.0,0.0,0.0,-1.7557,-1.855,-1.9058,-1.6401,-1.5676,-1.81,-1.8187,-1.8143,-1.8317,-1.8782,-1.9139,-1.925,-1.9176,-1.9176,-1.9339,-1.9302,-1.9302,-1.9354,-1.9376,-1.9339,-1.9302,-1.925,-1.9317,-1.9376,-1.9675,-2.0019,-2.0379,-2.0747,-2.1182,-2.1617,-2.1754,-2.1847,-2.1831,-2.1897,-2.1781,-2.188,-2.1864,-2.1831,-2.1831,-2.1864,-2.1831,-2.1781,-2.1797,-2.1797,-2.1797,-2.188,-2.1897,-2.193,-2.2344,-2.251,-0.0059,-0.0116,-0.0227,-0.028,-0.0336,-0.0617,-0.0785,-0.0954,-0.1512,-0.179,-0.1846,-0.2458,-0.3072,-0.363,-0.3901,-0.4398,-0.5069,-0.5572,-0.5946,-0.6209,-0.6539,-0.6815,-0.7031,-0.7085,-0.7133,-0.7133,-0.7133,-0.7133,-0.7133,-0.6848,-0.6837,-0.6917,-0.6588,-0.6545,-0.6848,0.0,0.0,0.0,-0.7616,-0.7992,-0.86,-0.7721,-0.7559,-0.812,-0.74,0.0,-0.7287,-0.6785,-0.6748,-0.7269,-0.7232,0.0,0.0,0.0,0.0,0.0,0.0,0.0,0.0,0.0,0.0,0.0,-1.5441,-1.6239,-1.7174,-1.8258,-1.897,-1.9043,-1.7606,-1.7287,-1.8767,-1.7998,-1.7809,-1.8811,-1.9043,-1.9101,-1.9139,-1.9101,-1.9116,-1.9139,-1.9153,-1.9153,-1.9153,-1.9139,-1.9153,-1.9153,-1.9139,-1.9139,-1.9153,-1.9493,-1.9747,-1.9874,-2.0462,-2.1119,-2.1691,-2.1721,-2.1738,-2.1768,-2.1781,-2.1781,-2.1781,-2.1781,-2.1781,-2.1781,-2.1781,-2.1781,-2.1781,-2.1781,-2.1781,-2.1781,-2.1781,-2.1781,-2.1797,-2.1897,-2.1963,0.0,0.0,-0.0226,-0.028,0.0,-0.084,-0.1008,-0.0841,-0.1177,-0.1512,-0.1846,-0.246,-0.2903,-0.3294,-0.3788,-0.4229,-0.4567,-0.5238,-0.5626,-0.5782,-0.6268,-0.6539,-0.6642,-0.6972,-0.7133,-0.7133,-0.7133,-0.7133,-0.7079,-0.6961,-0.6789,-0.6662,-0.6555,-0.6475,-0.6384,-0.6952,-0.7254,-0.7243,-0.7593,-0.7824,-0.7947,-0.7391,-0.7475,-0.814,-0.7664,0.0,0.0,0.0,0.0,0.0,0.0,0.0,0.0,-1.036,0.0,-1.179,-1.2634,-1.3336,-1.3867,-1.4211,-1.4572,-1.5042,-1.5878,-1.6796,-1.7716,-1.8073,-1.8441,-1.8983,-1.7919,-1.7722,-1.8912,-1.8259,-1.8085,-1.897,-1.9116,-1.9116,-1.9116,-1.9116,-1.9116,-1.9116,-1.9116,-1.9116,-1.9116,-1.9116,-1.9116,-1.9116,-1.9116,-1.9116,-1.9116,-1.9288,-1.9472,-1.9675,-2.0413,-2.1055,-2.1354,-2.1631,-2.1738,-2.1781,-2.1781,-2.1781,-2.1781,-2.1781,-2.1781,-2.1781,-2.1781,-2.1781,-2.1781,-2.1781,-2.1781,-2.1781,-2.1781,-2.1781,-2.1781,-2.1781,-2.1781,-0.0058,-0.017,-0.0281,-0.0393,-0.056,-0.1175,-0.1231,-0.0897,0.0,0.0,0.0,-0.2402,-0.2734,-0.2903,-0.3674,-0.4064,-0.4171,-0.4929,-0.5303,-0.5358,-0.5797,-0.6065,-0.6206,-0.6694,-0.7047,-0.7139,-0.7133,-0.7139,-0.7192,-0.7192,-0.7001,-0.669,-0.6678,-0.6463,-0.6036,-0.6972,-0.7404,-0.7269,-0.7797,-0.7832,-0.7303,-0.7192,-0.7491,-0.8263,-0.7961,-0.7939,-0.8271,-0.8429,-0.8498,-0.8507,-0.8811,-0.905,-0.9272,-1.0518,-1.112,-1.093,-1.2502,-1.3505,-1.3517,-1.4477,-1.5137,-1.529,-1.6118,-1.6993,-1.7933,-1.7688,-1.7782,-1.8551,-1.7741,-1.7644,-1.8722,-1.8339,-1.8317,-1.9014,-1.9116,-1.9116,-1.9116,-1.9116,-1.9116,-1.9116,-1.9116,-1.9116,-1.9116,-1.9116,-1.9116,-1.9116,-1.9116,-1.9116,-1.9116,-1.9101,-1.9273,-1.9711,-2.033,-2.0862,-2.1071,-2.1432,-2.1721,-2.1781,-2.1781,-2.1781,-2.1781,-2.1781,-2.1781,-2.1781,-2.1781,-2.1781,-2.1781,-2.1781,-2.1781,-2.1781,-2.1781,-2.1781,-2.1781,-2.1781,-2.1781,-0.0301,-0.0757,-0.0227,-0.0728,-0.1679,-0.0896,-0.1008,-0.1623,-0.1679,-0.1734,-0.1846,-0.2458,-0.2959,-0.3514,-0.3843,-0.4284,-0.478,-0.5026,-0.5274,-0.5475,-0.5356,-0.5572,-0.6001,-0.6369,-0.6786,-0.7224,-0.7139,-0.7295,-0.7563,-0.7616,-0.7576,-0.7512,-0.7282,-0.688,-0.6477,-0.707,-0.7407,-0.7456,-0.8242,-0.8838,-0.9213,-0.8423,-0.8332,-0.888,-0.8414,-0.8174,-0.8315,-0.8438,-0.8498,-0.8507,-0.8553,-0.8809,-0.9392,-1.065,-1.1383,-1.145,-1.2738,-1.3505,-1.3517,-1.4099,-1.4795,-1.562,-1.5832,-1.6411,-1.7463,-1.7932,-1.7868,-1.7235,-1.7143,-1.7372,-1.774,-1.7547,-1.7853,-1.8927,-1.9116,-1.9116,-1.9116,-1.9116,-1.9116,-1.9116,-1.9116,-1.9116,-1.9116,-1.9116,-1.9116,-1.9116,-1.9116,-1.9116,-1.9116,-1.9116,-1.9273,-1.9696,-2.007,-2.0499,-2.0894,-2.1386,-2.1587,-2.1781,-2.1768,-2.1751,-2.1781,-2.1781,-2.1781,-2.1781,-2.1781,-2.1781,-2.1781,-2.1781,-2.1781,-2.1781,-2.1781,-2.1781,-2.1781,-2.1781,-2.1781,-0.0244,-0.0805,-0.0345,-0.0797,-0.1846,-0.1512,-0.1624,-0.2071,-0.2571,-0.2792,-0.2847,-0.3403,-0.3849,-0.407,-0.4398,-0.4618,-0.4889,-0.5055,-0.5184,-0.5284,-0.5353,-0.5455,-0.5756,-0.6288,-0.6812,-0.7283,-0.7187,-0.7295,-0.767,-0.7456,-0.7441,-0.7494,-0.7291,-0.6968,-0.6514,-0.7286,-0.7631,-0.7525,-0.8003,-0.8391,-0.8682,-0.8265,-0.8265,-0.8768,-0.8589,-0.8531,-0.8531,-0.8921,-0.905,-0.8829,-0.9041,-0.9281,-0.961,-1.0887,-1.1561,-1.1448,-1.2927,-1.3862,-1.3927,-1.4699,-1.5307,-1.5756,-1.5792,-1.5867,-1.6099,-1.6349,-1.6505,-1.6582,-1.6173,-1.6259,-1.7351,-1.7319,-1.7687,-1.891,-1.9078,-1.9116,-1.9116,-1.9116,-1.9116,-1.9116,-1.9116,-1.9116,-1.9116,-1.9116,-1.9116,-1.9116,-1.9116,-1.9116,-1.9116,-1.9116,-1.9176,-1.9406,-1.9767,-2.007,-2.0382,-2.0731,-2.1071,-2.1385,-2.1415,-2.1507,-2.1721,-2.1781,-2.1781,-2.1781,-2.1781,-2.1781,-2.1781,-2.1781,-2.1781,-2.1781,-2.1781,-2.1781,-2.1781,-2.1781,-2.1781,-0.043,-0.1093,-0.0695,-0.1089,-0.1905,-0.2503,-0.2667,-0.2577,-0.3434,-0.3819,-0.3852,-0.4294,-0.4463,-0.4515,-0.4791,-0.4901,-0.4933,-0.5055,-0.508,-0.5128,-0.5397,-0.5602,-0.576,-0.6496,-0.7105,-0.7429,-0.7422,-0.754,-0.77,-0.7481,-0.7389,-0.7437,-0.7462,-0.7166,-0.6548,-0.758,-0.8002,-0.7809,-0.8072,-0.822,-0.8296,-0.8288,-0.8416,-0.8721,-0.8861,-0.8885,-0.8855,-0.9382,-0.9575,-0.9271,-0.9538,-0.9713,-0.9872,-1.1064,-1.1648,-1.1486,-1.2954,-1.4002,-1.4156,-1.4826,-1.536,-1.5612,-1.5612,-1.5444,-1.5079,-1.4971,-1.5182,-1.5735,-1.5413,-1.5714,-1.6942,-1.7384,-1.7811,-1.8858,-1.9064,-1.9116,-1.9116,-1.9116,-1.9116,-1.9116,-1.9116,-1.9116,-1.9116,-1.9116,-1.9116,-1.9116,-1.9116,-1.9116,-1.9116,-1.9116,-1.9116,-1.9176,-1.9479,-1.9788,-1.9823,-2.0296,-2.0731,-2.107,-2.1213,-2.1446,-2.1691,-2.1781,-2.1781,-2.1781,-2.1781,-2.1781,-2.1781,-2.1781,-2.1781,-2.1781,-2.1781,-2.1781,-2.1781,-2.1781,-2.1781,-0.123,-0.1818,-0.1671,-0.174,-0.214,-0.3679,-0.3884,-0.3436,-0.4206,-0.4532,-0.4411,-0.4463,-0.4463,-0.4515,-0.4791,-0.4901,-0.4941,-0.5051,-0.508,-0.5164,-0.5508,-0.5822,-0.615,-0.7007,-0.7625,-0.8025,-0.8143,-0.809,-0.7954,-0.8155,-0.7967,-0.7524,-0.8041,-0.786,-0.7098,-0.7996,-0.8645,-0.8714,-0.9104,-0.9371,-0.9436,-0.9452,-0.9469,-0.9487,-0.9339,-0.9266,-0.9248,-0.9527,-0.9704,-0.9628,-0.9695,-0.9723,-0.9939,-1.1064,-1.1659,-1.1362,-1.262,-1.344,-1.359,-1.3662,-1.4177,-1.4953,-1.5121,-1.5097,-1.5025,-1.4995,-1.478,-1.4701,-1.5542,-1.6249,-1.6684,-1.7406,-1.818,-1.891,-1.9078,-1.9116,-1.9116,-1.9116,-1.9116,-1.9116,-1.9116,-1.9116,-1.9116,-1.9116,-1.9116,-1.9116,-1.9116,-1.9116,-1.9116,-1.9116,-1.9116,-1.9176,-1.9457,-1.9675,-1.9788,-2.0364,-2.0731,-2.1007,-2.137,-2.157,-2.1691,-2.1781,-2.1781,-2.1781,-2.1781,-2.1781,-2.1781,-2.1781,-2.1781,-2.1781,-2.1781,-2.1781,-2.1781,-2.1781,-2.1781,-0.1423,-0.2451,-0.198,-0.205,-0.2587,-0.374,-0.4068,-0.3811,-0.4307,-0.4573,-0.4522,-0.4463,-0.4463,-0.4519,-0.4791,-0.4901,-0.4944,-0.5055,-0.508,-0.5176,-0.571,-0.6076,-0.6267,-0.7286,-0.797,-0.8346,-0.8423,-0.8469,-0.8553,-0.8685,-0.8384,-0.7828,-0.825,-0.7957,-0.708,-0.8139,-0.8655,-0.8555,-0.9612,-1.0225,-1.022,-1.0035,-0.9821,-0.9615,-0.9562,-0.9468,-0.9346,-0.9506,-0.9643,-0.9683,-0.9723,-0.9723,-0.9762,-1.1277,-1.1876,-1.14,-1.2611,-1.3456,-1.3505,-1.4033,-1.4533,-1.4977,-1.5301,-1.5348,-1.5037,-1.5001,-1.4841,-1.4726,-1.5404,-1.6136,-1.6798,-1.7495,-1.8178,-1.876,-1.8979,-1.9055,-1.9055,-1.9078,-1.9116,-1.9116,-1.9116,-1.9116,-1.9116,-1.9116,-1.9116,-1.9116,-1.9116,-1.9116,-1.9116,-1.9116,-1.9116,-1.9116,-1.925,-1.9347,-1.9442,-1.9609,-2.0089,-2.0599,-2.0862,-2.1071,-2.1691,-2.1781,-2.1781,-2.1781,-2.1797,-2.1797,-2.1781,-2.1781,-2.1781,-2.1781,-2.1781,-2.1781,-2.1781,-2.1781,-2.1781,-0.1883,-0.2773,-0.2488,-0.2581,-0.2925,-0.3674,-0.3999,-0.3975,-0.4333,-0.4463,-0.4519,-0.4519,-0.4574,-0.4574,-0.4791,-0.4901,-0.4941,-0.5103,-0.5259,-0.5514,-0.6196,-0.666,-0.6941,-0.7723,-0.8364,-0.8691,-0.8646,-0.8738,-0.8956,-0.885,-0.858,-0.8146,-0.842,-0.8219,-0.7536,-0.8588,-0.9063,-0.8878,-1.0141,-1.0874,-1.0831,-1.06,-1.0274,-0.994,-0.9779,-0.9621,-0.9415,-0.943,-0.9515,-0.9643,-0.9643,-0.9713,-0.989,-1.1247,-1.1842,-1.1658,-1.2735,-1.3505,-1.3468,-1.4137,-1.4701,-1.4989,-1.5384,-1.542,-1.5121,-1.5145,-1.5215,-1.5322,-1.5737,-1.6385,-1.694,-1.758,-1.8115,-1.864,-1.8865,-1.8941,-1.8927,-1.9003,-1.9078,-1.9078,-1.9078,-1.9116,-1.9116,-1.9116,-1.9116,-1.9116,-1.9116,-1.9116,-1.9116,-1.9116,-1.9116,-1.9116,-1.9101,-1.9176,-1.925,-1.9479,-1.9803,-2.0311,-2.0747,-2.1103,-2.1631,-2.1708,-2.1768,-2.1738,-2.1768,-2.1797,-2.1797,-2.1781,-2.1781,-2.1781,-2.1781,-2.1781,-2.1781,-2.1781,-2.1781,-0.2957,-0.3046,-0.3488,-0.3506,-0.3417,-0.3793,-0.3944,-0.3834,-0.428,-0.4508,-0.4505,-0.4622,-0.4688,-0.4688,-0.4849,-0.4952,-0.5062,-0.5198,-0.5604,-0.6187,-0.6844,-0.7682,-0.8501,-0.8718,-0.8889,-0.9027,-0.8954,-0.8988,-0.9001,-0.8639,-0.8421,-0.8396,-0.8751,-0.8751,-0.8495,-0.957,-1.0136,-0.9811,-1.0671,-1.1225,-1.1283,-1.1266,-1.0994,-1.0625,-1.0028,-0.9744,-0.964,-0.9441,-0.9386,-0.9515,-0.9515,-0.9753,-1.0225,-1.074,-1.1432,-1.2155,-1.3006,-1.348,-1.3404,-1.3598,-1.4069,-1.4833,-1.5109,-1.5073,-1.5121,-1.5444,-1.5789,-1.6243,-1.6634,-1.6995,-1.7136,-1.7669,-1.8207,-1.8679,-1.8798,-1.8836,-1.8836,-1.8927,-1.8993,-1.9031,-1.904,-1.9116,-1.9116,-1.9116,-1.9116,-1.9116,-1.9116,-1.9116,-1.9116,-1.9116,-1.9116,-1.9116,-1.9139,-1.9213,-1.9566,-1.9639,-2.0104,-2.0514,-2.0747,-2.1245,-2.1481,-2.162,-2.165,-2.1664,-2.1664,-2.1678,-2.1768,-2.1781,-2.1781,-2.1781,-2.1781,-2.1781,-2.1781,-2.1781,-2.1781,-0.327,-0.363,-0.3655,-0.3657,-0.3664,-0.3733,-0.3737,-0.3846,-0.4158,-0.4393,-0.4471,-0.4591,-0.4754,-0.4963,-0.5014,-0.5008,-0.4953,-0.5004,-0.5204,-0.5664,-0.6314,-0.6868,-0.7362,-0.8062,-0.847,-0.8615,-0.8934,-0.9241,-0.9347,-0.9256,-0.9047,-0.8791,-0.8903,-0.8791,-0.8685,-0.951,-0.9976,-0.9917,-1.0804,-1.1276,-1.1276,-1.1276,-1.1208,-1.1071,-1.0591,-1.0131,-0.9726,-0.9621,-0.9521,-0.9493,-0.9484,-0.9753,-1.0318,-1.1389,-1.2324,-1.3107,-1.3705,-1.3973,-1.3891,-1.4217,-1.4581,-1.4953,-1.5325,-1.5492,-1.554,-1.5672,-1.5884,-1.6095,-1.6443,-1.6806,-1.7276,-1.7853,-1.8386,-1.8581,-1.8697,-1.8736,-1.8736,-1.8812,-1.8874,-1.8874,-1.8965,-1.904,-1.9078,-1.9116,-1.9116,-1.9116,-1.9116,-1.9116,-1.9116,-1.9116,-1.9116,-1.9116,-1.9101,-1.925,-1.9639,-1.953,-1.9624,-1.9984,-2.0296,-2.0565,-2.0795,-2.115,-2.1245,-2.1324,-2.1402,-2.1495,-2.1554,-2.1675,-2.1705,-2.1781,-2.1781,-2.1781,-2.1781,-2.1781,-2.1781,-0.3665,-0.3931,-0.3801,-0.3758,-0.3752,-0.366,-0.372,-0.3923,-0.4171,-0.4379,-0.4481,-0.4632,-0.4805,-0.4892,-0.4902,-0.4908,-0.4884,-0.4964,-0.5164,-0.5555,-0.6072,-0.6551,-0.7038,-0.7665,-0.8051,-0.8289,-0.8861,-0.9329,-0.9585,-0.9614,-0.9465,-0.9204,-0.9211,-0.9047,-0.8942,-0.9614,-1.0028,-1.0182,-1.0863,-1.1276,-1.1276,-1.1276,-1.1276,-1.1242,-1.1036,-1.0656,-1.0117,-0.9969,-0.9916,-0.9897,-0.9893,-1.022,-1.0964,-1.2362,-1.3364,-1.3721,-1.4187,-1.4421,-1.4387,-1.4726,-1.503,-1.5253,-1.5564,-1.5792,-1.5792,-1.5792,-1.5881,-1.6044,-1.6423,-1.6892,-1.7393,-1.8055,-1.8478,-1.8517,-1.8595,-1.8634,-1.8634,-1.8697,-1.876,-1.8836,-1.8889,-1.8965,-1.904,-1.9078,-1.9078,-1.9116,-1.9116,-1.9116,-1.9116,-1.9116,-1.9116,-1.9116,-1.9116,-1.9213,-1.9384,-1.9325,-1.9551,-1.9894,-1.9984,-2.0158,-2.0261,-2.0632,-2.0862,-2.0958,-2.1087,-2.1214,-2.137,-2.1507,-2.1645,-2.1751,-2.1781,-2.1781,-2.1781,-2.1781,-2.1781,-0.4165,-0.3987,-0.4023,-0.3883,-0.3723,-0.378,-0.3866,-0.4043,-0.436,-0.4452,-0.4552,-0.4746,-0.4805,-0.4661,-0.4697,-0.4658,-0.4832,-0.5178,-0.5595,-0.5998,-0.6347,-0.6877,-0.7491,-0.7522,-0.7814,-0.8254,-0.8861,-0.9321,-0.9555,-0.9599,-0.9562,-0.9562,-0.9569,-0.9517,-0.9555,-1.0095,-1.047,-1.0565,-1.1023,-1.1276,-1.1276,-1.1276,-1.1276,-1.1276,-1.1242,-1.1152,-1.0885,-1.0527,-1.0382,-1.0615,-1.0659,-1.1173,-1.206,-1.3444,-1.424,-1.3967,-1.4374,-1.4766,-1.4856,-1.4934,-1.5226,-1.5568,-1.5768,-1.5792,-1.5792,-1.5792,-1.5969,-1.6306,-1.6778,-1.7282,-1.7679,-1.8135,-1.8439,-1.8478,-1.8517,-1.8517,-1.8517,-1.8634,-1.875,-1.8798,-1.8836,-1.8851,-1.8941,-1.8979,-1.9017,-1.9078,-1.9116,-1.9116,-1.9116,-1.9116,-1.9116,-1.9116,-1.9116,-1.9176,-1.9139,-1.9139,-1.9551,-1.9894,-1.9929,-2.0,-2.0,-2.0227,-2.0348,-2.0465,-2.078,-2.0926,-2.1103,-2.126,-2.1554,-2.1691,-2.1721,-2.1781,-2.1781,-2.1781,-2.1781,-0.4285,-0.4213,-0.4076,-0.4031,-0.4017,-0.4016,-0.4072,-0.4175,-0.4426,-0.4626,-0.4786,-0.4948,-0.4996,-0.498,-0.5008,-0.4939,-0.4882,-0.5437,-0.5667,-0.5648,-0.6006,-0.6516,-0.7034,-0.7352,-0.7868,-0.8492,-0.8965,-0.9219,-0.9336,-0.9519,-0.9614,-0.9614,-0.9614,-0.9614,-0.9614,-1.0198,-1.0522,-1.0573,-1.1023,-1.1276,-1.1276,-1.1276,-1.1276,-1.1276,-1.1267,-1.1308,-1.1384,-1.0976,-1.0745,-1.0723,-1.0732,-1.1146,-1.2208,-1.3342,-1.4045,-1.4283,-1.4852,-1.5233,-1.5201,-1.5289,-1.5413,-1.568,-1.576,-1.576,-1.5792,-1.5792,-1.5881,-1.6057,-1.6436,-1.6892,-1.7352,-1.776,-1.8135,-1.8478,-1.8478,-1.8478,-1.8478,-1.8556,-1.8634,-1.8697,-1.8736,-1.8774,-1.8851,-1.8889,-1.8993,-1.9017,-1.9078,-1.9101,-1.9116,-1.9116,-1.9116,-1.9116,-1.9116,-1.9116,-1.9116,-1.9116,-1.931,-1.9551,-1.9624,-1.9696,-1.9732,-1.9803,-1.9879,-2.0039,-2.0348,-2.0583,-2.0764,-2.1039,-2.1323,-2.1615,-2.1721,-2.1751,-2.1781,-2.1781,-2.1781,-0.4394,-0.4321,-0.4342,-0.432,-0.4362,-0.4347,-0.4408,-0.4473,-0.4679,-0.4936,-0.5136,-0.5307,-0.5443,-0.5575,-0.5679,-0.5646,-0.564,-0.6176,-0.635,-0.6122,-0.6208,-0.6611,-0.7062,-0.7534,-0.8133,-0.8786,-0.9129,-0.9175,-0.919,-0.9453,-0.9563,-0.9475,-0.9555,-0.9614,-0.9614,-1.0043,-1.036,-1.0514,-1.0913,-1.1175,-1.1276,-1.1276,-1.1276,-1.1276,-1.1276,-1.1427,-1.1551,-1.1282,-1.116,-1.1221,-1.1482,-1.1984,-1.2516,-1.3564,-1.4351,-1.4501,-1.496,-1.5322,-1.5345,-1.5412,-1.548,-1.5614,-1.5671,-1.5703,-1.5748,-1.5792,-1.5792,-1.5881,-1.6219,-1.6693,-1.7157,-1.7544,-1.8002,-1.8439,-1.8478,-1.8478,-1.8478,-1.8478,-1.8517,-1.8595,-1.8634,-1.8673,-1.8774,-1.8827,-1.8917,-1.8993,-1.9017,-1.9064,-1.9078,-1.9116,-1.9101,-1.9101,-1.9116,-1.9116,-1.9116,-1.9116,-1.9116,-1.9176,-1.9213,-1.9273,-1.9347,-1.942,-1.9515,-1.9551,-1.9788,-1.9984,-2.0193,-2.0632,-2.0991,-2.1306,-2.1645,-2.1751,-2.1768,-2.1797,-2.1781,-0.4438,-0.4281,-0.4676,-0.4734,-0.4559,-0.4761,-0.4843,-0.4918,-0.5031,-0.53,-0.5611,-0.5887,-0.6069,-0.6351,-0.6514,-0.6708,-0.6933,-0.729,-0.7587,-0.7526,-0.7436,-0.748,-0.7837,-0.8187,-0.865,-0.9109,-0.916,-0.9175,-0.9239,-0.9416,-0.9468,-0.9314,-0.9511,-0.9614,-0.9673,-0.9888,-1.0154,-1.0411,-1.0769,-1.1074,-1.1226,-1.1276,-1.1276,-1.1276,-1.1276,-1.1368,-1.1469,-1.1484,-1.1584,-1.195,-1.2628,-1.2954,-1.313,-1.4247,-1.4777,-1.4605,-1.4915,-1.5198,-1.5379,-1.5334,-1.5357,-1.548,-1.5582,-1.5671,-1.5659,-1.5748,-1.5792,-1.5792,-1.6132,-1.665,-1.7115,-1.7475,-1.7935,-1.84,-1.8478,-1.8478,-1.8478,-1.8478,-1.8517,-1.8517,-1.8517,-1.8556,-1.8673,-1.8711,-1.8803,-1.8917,-1.8955,-1.9017,-1.904,-1.9026,-1.9064,-1.9064,-1.9026,-1.9078,-1.904,-1.9116,-1.9116,-1.9116,-1.9116,-1.9101,-1.9139,-1.9213,-1.925,-1.925,-1.9347,-1.9515,-1.9808,-2.0348,-2.0781,-2.115,-2.1415,-2.1631,-2.1768,-2.1797,-2.1781,-0.4521,-0.4591,-0.4682,-0.4757,-0.4787,-0.4999,-0.5046,-0.5062,-0.5214,-0.5499,-0.5965,-0.6463,-0.6619,-0.67,-0.7583,-0.7733,-0.7582,-0.813,-0.8726,-0.8951,-0.891,-0.8758,-0.8752,-0.9047,-0.9177,-0.9204,-0.9182,-0.9175,-0.9232,-0.9241,-0.9336,-0.9504,-0.9526,-0.9607,-0.9673,-0.9888,-0.9999,-1.0205,-1.0667,-1.0922,-1.1023,-1.1226,-1.1276,-1.1276,-1.1276,-1.1368,-1.1528,-1.1578,-1.1728,-1.1927,-1.2589,-1.3112,-1.3362,-1.4176,-1.4743,-1.488,-1.5017,-1.5108,-1.5198,-1.5198,-1.521,-1.5345,-1.5402,-1.5435,-1.5558,-1.5659,-1.5703,-1.5748,-1.5925,-1.6349,-1.7031,-1.7323,-1.7733,-1.8361,-1.8478,-1.8478,-1.8478,-1.8478,-1.8478,-1.8478,-1.8478,-1.8517,-1.8556,-1.8634,-1.8725,-1.8803,-1.8827,-1.8889,-1.8912,-1.8912,-1.8936,-1.895,-1.8912,-1.8979,-1.9017,-1.9078,-1.9116,-1.9116,-1.9116,-1.9116,-1.9101,-1.9139,-1.9139,-1.9139,-1.9362,-1.953,-1.9894,-2.0398,-2.0715,-2.0878,-2.1323,-2.1601,-2.1738,-2.1781,-2.1781,-0.4541,-0.4691,-0.4739,-0.4849,-0.5014,-0.5128,-0.5187,-0.5187,-0.5305,-0.578,-0.6432,-0.6997,-0.7346,-0.7602,-0.8624,-0.8849,-0.8475,-0.9001,-0.9458,-0.9638,-0.9575,-0.9404,-0.9323,-0.9503,-0.9519,-0.9358,-0.9276,-0.9094,-0.8992,-0.897,-0.9072,-0.9197,-0.9365,-0.9541,-0.9784,-0.9777,-0.9991,-1.0205,-1.0462,-1.0616,-1.0922,-1.1074,-1.1175,-1.1276,-1.1276,-1.1318,-1.1427,-1.1519,-1.1669,-1.1968,-1.2589,-1.3112,-1.3314,-1.4212,-1.4686,-1.4834,-1.4971,-1.5119,-1.5119,-1.5119,-1.5119,-1.521,-1.5255,-1.5357,-1.5435,-1.5525,-1.5614,-1.5715,-1.5703,-1.612,-1.6892,-1.7365,-1.7868,-1.8361,-1.8478,-1.8478,-1.8478,-1.8478,-1.8478,-1.8478,-1.8478,-1.8478,-1.8478,-1.8556,-1.8634,-1.8673,-1.875,-1.8812,-1.8836,-1.8784,-1.8784,-1.8798,-1.8836,-1.8889,-1.8927,-1.895,-1.904,-1.9078,-1.9116,-1.9116,-1.9116,-1.9116,-1.9116,-1.9139,-1.9325,-1.9545,-1.9788,-2.0019,-2.0208,-2.0499,-2.1071,-2.1401,-2.1493,-2.1601,-2.1631,-0.4574,-0.4746,-0.4849,-0.4959,-0.5128,-0.5242,-0.5301,-0.5301,-0.5333,-0.5971,-0.6885,-0.7514,-0.8043,-0.87,-0.9523,-0.9912,-0.9656,-0.9913,-1.005,-1.0149,-0.9962,-0.9751,-0.9626,-0.9584,-0.9599,-0.9511,-0.9285,-0.9029,-0.8846,-0.8743,-0.8677,-0.8831,-0.9065,-0.9407,-0.9709,-0.9688,-0.988,-1.0146,-1.0154,-1.036,-1.0718,-1.0922,-1.1074,-1.1276,-1.1276,-1.1276,-1.1318,-1.1418,-1.1578,-1.1678,-1.2735,-1.3074,-1.3102,-1.4294,-1.4777,-1.4697,-1.4926,-1.5119,-1.5119,-1.5119,-1.5119,-1.5119,-1.521,-1.5255,-1.53,-1.539,-1.5525,-1.5715,-1.557,-1.5944,-1.6612,-1.7475,-1.7895,-1.8135,-1.8268,-1.8439,-1.8439,-1.8478,-1.8478,-1.8439,-1.8439,-1.8478,-1.8478,-1.8517,-1.8542,-1.8595,-1.8673,-1.8659,-1.8683,-1.8683,-1.8683,-1.8721,-1.876,-1.8798,-1.8798,-1.8836,-1.8927,-1.9003,-1.9078,-1.9116,-1.9116,-1.9116,-1.9116,-1.9139,-1.925,-1.925,-1.9273,-1.9479,-1.9767,-2.0104,-2.0632,-2.0862,-2.1055,-2.1197,-2.1308,-0.4625,-0.4846,-0.4901,-0.5014,-0.5242,-0.5301,-0.5301,-0.5317,-0.5494,-0.6231,-0.7359,-0.778,-0.8561,-0.9627,-1.0153,-1.045,-1.0208,-1.0721,-1.1112,-1.0799,-1.0528,-1.0228,-0.9994,-0.9768,-0.9621,-0.949,-0.9043,-0.889,-0.8897,-0.8553,-0.8443,-0.8692,-0.8948,-0.9254,-0.9392,-0.9629,-0.9614,-0.9829,-0.994,-1.0205,-1.0514,-1.0769,-1.1023,-1.1276,-1.1276,-1.1276,-1.1326,-1.1427,-1.1528,-1.1769,-1.2295,-1.2909,-1.3351,-1.4071,-1.4651,-1.4926,-1.5017,-1.5119,-1.5119,-1.5119,-1.5119,-1.5119,-1.5108,-1.5153,-1.5153,-1.5255,-1.548,-1.5659,-1.5603,-1.5768,-1.6299,-1.6866,-1.7297,-1.7489,-1.7747,-1.7935,-1.8016,-1.8268,-1.8347,-1.8175,-1.8307,-1.8478,-1.8478,-1.8478,-1.8517,-1.8556,-1.8556,-1.8542,-1.8581,-1.8581,-1.862,-1.862,-1.8659,-1.8697,-1.8721,-1.876,-1.8851,-1.8927,-1.8988,-1.9078,-1.9078,-1.9078,-1.9078,-1.9078,-1.9116,-1.9101,-1.9101,-1.9384,-1.9732,-1.9965,-2.0124,-2.0398,-2.0665,-2.0828,-2.0991,-0.4684,-0.4901,-0.4901,-0.5069,-0.5301,-0.5301,-0.5341,-0.5406,-0.5422,-0.6156,-0.7111,-0.748,-0.8246,-0.9475,-1.0013,-1.0178,-1.0354,-1.0659,-1.077,-1.0565,-1.0404,-1.0346,-1.0309,-0.998,-0.9724,-0.9409,-0.8933,-0.8765,-0.8582,-0.8312,-0.8136,-0.8465,-0.8787,-0.9119,-0.9395,-0.9621,-0.9769,-0.9829,-0.9947,-1.0102,-1.0308,-1.0565,-1.0922,-1.1226,-1.1276,-1.1276,-1.1326,-1.1377,-1.1528,-1.1769,-1.2236,-1.2754,-1.3409,-1.4046,-1.4605,-1.5028,-1.5119,-1.5119,-1.5119,-1.5119,-1.5119,-1.5119,-1.5119,-1.5119,-1.5108,-1.5153,-1.53,-1.548,-1.548,-1.5546,-1.6225,-1.6539,-1.6837,-1.7201,-1.7338,-1.738,-1.738,-1.7935,-1.8439,-1.8214,-1.8347,-1.8478,-1.8478,-1.8478,-1.8478,-1.8517,-1.8517,-1.8517,-1.8517,-1.8556,-1.8517,-1.8556,-1.8595,-1.8595,-1.862,-1.8697,-1.8774,-1.8851,-1.8874,-1.8965,-1.9017,-1.904,-1.9026,-1.9064,-1.9116,-1.9116,-1.9139,-1.942,-1.9515,-1.9551,-1.9732,-2.005,-2.0277,-2.0431,-2.0599,-0.4625,-0.4901,-0.4901,-0.5069,-0.5301,-0.5301,-0.5369,-0.5523,-0.5394,-0.5975,-0.6691,-0.6926,-0.7824,-0.8872,-0.9413,-0.9826,-1.0303,-1.0258,-1.028,-1.0572,-1.047,-1.047,-1.047,-1.025,-0.9863,-0.927,-0.8955,-0.8677,-0.8348,-0.7975,-0.799,-0.818,-0.8458,-0.8845,-0.9373,-0.9748,-0.9828,-0.9821,-0.9888,-0.9947,-1.0102,-1.036,-1.0777,-1.1175,-1.1276,-1.1377,-1.1427,-1.1477,-1.1578,-1.1877,-1.2236,-1.2725,-1.3304,-1.3988,-1.4605,-1.5062,-1.5119,-1.5119,-1.5119,-1.5119,-1.5119,-1.5119,-1.5119,-1.5119,-1.5108,-1.5108,-1.5244,-1.5345,-1.5435,-1.5647,-1.6262,-1.6349,-1.6595,-1.6921,-1.6921,-1.6795,-1.6752,-1.7598,-1.8175,-1.8228,-1.8307,-1.8478,-1.8478,-1.8478,-1.8478,-1.8478,-1.8478,-1.8478,-1.8478,-1.8478,-1.8478,-1.8478,-1.8517,-1.8595,-1.8634,-1.862,-1.875,-1.8774,-1.8798,-1.8836,-1.8941,-1.8979,-1.9003,-1.9078,-1.9116,-1.9116,-1.9116,-1.9213,-1.925,-1.9176,-1.931,-1.9624,-1.9823,-2.0004,-2.0261,-0.4629,-0.4901,-0.4901,-0.5069,-0.5301,-0.5301,-0.5325,-0.5361,-0.5519,-0.6046,-0.6793,-0.689,-0.7786,-0.8995,-0.9253,-0.9897,-1.0414,-1.0319,-1.0477,-1.0967,-1.0931,-1.0821,-1.0667,-1.0565,-1.017,-0.9621,-0.9277,-0.8999,-0.8604,-0.8297,-0.8114,-0.796,-0.8202,-0.8584,-0.8949,-0.9193,-0.9548,-0.9703,-0.9725,-0.9836,-0.9999,-1.0308,-1.0777,-1.1226,-1.1276,-1.1477,-1.1728,-1.1778,-1.1819,-1.1927,-1.2372,-1.2745,-1.3218,-1.3941,-1.4605,-1.4926,-1.5074,-1.5062,-1.5108,-1.5119,-1.5119,-1.5119,-1.5119,-1.5119,-1.5119,-1.5119,-1.5198,-1.5468,-1.5703,-1.5925,-1.5768,-1.5869,-1.578,-1.5901,-1.6194,-1.6398,-1.6527,-1.7173,-1.7774,-1.7693,-1.8069,-1.8478,-1.8478,-1.8478,-1.8478,-1.8478,-1.8478,-1.8478,-1.8478,-1.8478,-1.8478,-1.8478,-1.8478,-1.8595,-1.8673,-1.8673,-1.8697,-1.8721,-1.8745,-1.876,-1.8851,-1.8955,-1.9031,-1.9055,-1.9078,-1.9116,-1.9116,-1.9116,-1.9116,-1.9139,-1.9213,-1.9236,-1.9442,-1.9717,-2.0054,-0.4684,-0.4901,-0.4959,-0.5128,-0.5301,-0.5301,-0.5406,-0.5596,-0.5862,-0.6253,-0.6641,-0.6908,-0.7597,-0.8624,-0.8745,-0.9314,-1.0053,-1.0243,-1.047,-1.0946,-1.1041,-1.1128,-1.1004,-1.0924,-1.0689,-1.036,-1.0053,-0.9519,-0.8992,-0.8802,-0.8494,-0.8377,-0.8546,-0.8794,-0.9026,-0.9435,-0.9555,-0.9651,-0.9725,-0.9777,-0.9888,-1.0257,-1.0769,-1.1175,-1.1326,-1.1528,-1.1828,-1.1927,-1.2116,-1.2501,-1.2977,-1.3362,-1.3742,-1.4222,-1.4789,-1.488,-1.488,-1.4971,-1.5062,-1.5119,-1.5119,-1.5119,-1.5119,-1.5119,-1.5119,-1.5119,-1.5198,-1.5334,-1.5468,-1.5647,-1.5635,-1.5513,-1.548,-1.5603,-1.5869,-1.6032,-1.6312,-1.6993,-1.7186,-1.7282,-1.7949,-1.84,-1.8478,-1.8478,-1.8478,-1.8478,-1.8478,-1.8478,-1.8478,-1.8478,-1.8478,-1.8478,-1.8478,-1.8517,-1.8595,-1.8634,-1.8634,-1.8659,-1.8683,-1.8683,-1.8736,-1.8827,-1.8955,-1.9017,-1.9055,-1.9078,-1.9116,-1.9116,-1.9116,-1.9116,-1.9139,-1.9176,-1.925,-1.942,-1.9788,-0.4798,-0.4901,-0.5014,-0.5187,-0.5301,-0.5301,-0.545,-0.5798,-0.5914,-0.617,-0.6533,-0.6794,-0.7318,-0.8055,-0.8469,-0.8934,-0.9782,-1.0126,-1.0477,-1.0887,-1.1099,-1.138,-1.1311,-1.1245,-1.1004,-1.0872,-1.0609,-1.0126,-0.9409,-0.9226,-0.9077,-0.8852,-0.8989,-0.918,-0.9338,-0.963,-0.9724,-0.9829,-0.994,-0.9991,-1.0035,-1.0352,-1.0828,-1.1226,-1.1326,-1.1528,-1.2026,-1.2076,-1.2353,-1.288,-1.3399,-1.3779,-1.4118,-1.4547,-1.4743,-1.4662,-1.4662,-1.4834,-1.4937,-1.5028,-1.5028,-1.5062,-1.5119,-1.5119,-1.5119,-1.5119,-1.5153,-1.5198,-1.5244,-1.5379,-1.5558,-1.5379,-1.5379,-1.548,-1.5614,-1.5792,-1.6044,-1.6466,-1.6976,-1.7352,-1.7975,-1.8189,-1.8242,-1.8282,-1.8242,-1.8282,-1.8282,-1.8361,-1.8361,-1.8478,-1.8478,-1.8478,-1.8478,-1.8478,-1.8517,-1.8517,-1.8556,-1.8556,-1.8581,-1.8581,-1.8634,-1.8725,-1.8827,-1.8903,-1.8965,-1.8988,-1.9026,-1.9116,-1.9116,-1.9116,-1.9116,-1.9116,-1.9176,-1.9347,-1.9681,-0.4798,-0.4901,-0.5069,-0.5187,-0.5301,-0.5301,-0.5317,-0.5369,-0.5487,-0.5582,-0.6087,-0.6481,-0.707,-0.7726,-0.8665,-0.954,-1.0192,-1.047,-1.0741,-1.115,-1.137,-1.1355,-1.1262,-1.1174,-1.1196,-1.1144,-1.0792,-1.0221,-0.9746,-0.9607,-0.9465,-0.9197,-0.9056,-0.9063,-0.97,-0.9795,-0.9768,-0.9997,-1.0257,-1.0514,-1.0659,-1.0769,-1.0972,-1.1226,-1.1318,-1.1619,-1.2175,-1.2323,-1.2598,-1.2967,-1.342,-1.3457,-1.3304,-1.3552,-1.3999,-1.4326,-1.4558,-1.4697,-1.48,-1.4846,-1.4937,-1.5062,-1.5062,-1.5119,-1.5074,-1.5119,-1.5198,-1.5546,-1.5501,-1.5457,-1.5501,-1.5546,-1.5424,-1.539,-1.539,-1.5435,-1.5603,-1.6219,-1.6693,-1.6905,-1.7365,-1.7706,-1.7868,-1.7922,-1.7963,-1.8043,-1.8123,-1.8202,-1.8242,-1.8321,-1.8439,-1.84,-1.8439,-1.8439,-1.8478,-1.8478,-1.8478,-1.8478,-1.8517,-1.8517,-1.8556,-1.8634,-1.8673,-1.8774,-1.8836,-1.8912,-1.8988,-1.9064,-1.9078,-1.9116,-1.9116,-1.9116,-1.9116,-1.9347,-1.9536,-0.4959,-0.5014,-0.5183,-0.5242,-0.5301,-0.5301,-0.5357,-0.5497,-0.5608,-0.5834,-0.6304,-0.6918,-0.7617,-0.8352,-0.8859,-0.9307,-0.9987,-1.0419,-1.0711,-1.1099,-1.1341,-1.152,-1.1468,-1.1417,-1.1409,-1.1202,-1.1011,-1.0689,-1.0243,-1.0026,-0.9926,-1.0127,-0.9764,-0.9837,-1.0179,-1.016,-1.0199,-1.0285,-1.0411,-1.0624,-1.082,-1.0922,-1.1023,-1.1276,-1.1276,-1.1628,-1.2076,-1.2431,-1.2657,-1.3025,-1.3515,-1.3763,-1.3716,-1.3858,-1.414,-1.4104,-1.4244,-1.4477,-1.4846,-1.488,-1.4971,-1.4971,-1.4971,-1.488,-1.488,-1.5017,-1.5108,-1.5289,-1.5322,-1.5322,-1.5334,-1.5334,-1.5244,-1.5198,-1.53,-1.5379,-1.5513,-1.5957,-1.6436,-1.6565,-1.6748,-1.7031,-1.7378,-1.7584,-1.7706,-1.7868,-1.7909,-1.8003,-1.8043,-1.8043,-1.8163,-1.8268,-1.8307,-1.8347,-1.8439,-1.8478,-1.8478,-1.8478,-1.8478,-1.8517,-1.8517,-1.8556,-1.8634,-1.8673,-1.8736,-1.8851,-1.8912,-1.9003,-1.9055,-1.9078,-1.9064,-1.9078,-1.9116,-1.9139,-1.9406,-0.5128,-0.5183,-0.5242,-0.5301,-0.5301,-0.5301,-0.5333,-0.5485,-0.5677,-0.5998,-0.6542,-0.7175,-0.8105,-0.8861,-0.8849,-0.9023,-0.9672,-1.0231,-1.0536,-1.0792,-1.1085,-1.1311,-1.1231,-1.1253,-1.1314,-1.1319,-1.0843,-1.0711,-1.0616,-1.0394,-1.0342,-1.0898,-1.028,-1.0401,-1.0735,-1.0717,-1.06,-1.071,-1.0769,-1.0871,-1.0972,-1.1015,-1.1124,-1.1226,-1.1326,-1.1477,-1.1877,-1.2283,-1.2657,-1.3025,-1.3515,-1.381,-1.381,-1.3905,-1.4057,-1.402,-1.4067,-1.4302,-1.4662,-1.4834,-1.4983,-1.4971,-1.488,-1.4789,-1.4834,-1.4971,-1.5062,-1.5108,-1.5153,-1.5108,-1.5119,-1.5119,-1.5119,-1.5198,-1.5289,-1.5412,-1.5546,-1.5856,-1.6044,-1.6175,-1.6306,-1.6448,-1.6778,-1.7157,-1.7406,-1.7652,-1.7747,-1.7828,-1.7842,-1.7842,-1.8003,-1.8149,-1.8228,-1.8268,-1.8425,-1.8478,-1.8478,-1.8478,-1.8478,-1.8478,-1.8517,-1.8517,-1.8556,-1.8595,-1.8634,-1.8659,-1.8736,-1.8865,-1.8993,-1.9017,-1.904,-1.9078,-1.9116,-1.9116,-1.9213,-0.5187,-0.5301,-0.5297,-0.5301,-0.5297,-0.5301,-0.5209,-0.5218,-0.5357,-0.5724,-0.6348,-0.7132,-0.8105,-0.869,-0.8796,-0.8967,-0.9613,-1.019,-1.0486,-1.0711,-1.0902,-1.0967,-1.0902,-1.0828,-1.0733,-1.0682,-1.0477,-1.0609,-1.0741,-1.0316,-1.0342,-1.0446,-1.053,-1.0663,-1.0877,-1.1044,-1.1031,-1.1091,-1.1124,-1.1124,-1.1226,-1.1217,-1.1276,-1.1276,-1.1326,-1.1477,-1.1877,-1.2224,-1.2618,-1.2929,-1.3372,-1.3668,-1.3716,-1.3752,-1.3821,-1.3915,-1.3926,-1.415,-1.443,-1.4558,-1.4697,-1.4891,-1.4891,-1.4754,-1.4789,-1.4743,-1.4834,-1.5017,-1.5017,-1.5062,-1.5074,-1.5119,-1.5119,-1.5165,-1.5198,-1.5244,-1.5334,-1.5457,-1.5635,-1.5724,-1.5856,-1.6001,-1.6231,-1.6607,-1.6989,-1.7227,-1.7529,-1.757,-1.7706,-1.776,-1.7909,-1.8029,-1.8163,-1.8242,-1.8425,-1.8478,-1.8478,-1.8478,-1.8478,-1.8478,-1.8478,-1.8517,-1.8517,-1.8517,-1.8556,-1.8556,-1.8542,-1.875,-1.8917,-1.8993,-1.9017,-1.9078,-1.9153,-1.9213,-1.9213,-0.5132,-0.5198,-0.5249,-0.5301,-0.5289,-0.5234,-0.5145,-0.512,-0.5217,-0.5751,-0.6588,-0.7412,-0.8278,-0.8837,-0.906,-0.9264,-0.9877,-1.0079,-1.0428,-1.0726,-1.0828,-1.0821,-1.0748,-1.0653,-1.0587,-1.0492,-1.0265,-1.0155,-1.0353,-1.0265,-1.0387,-1.0505,-1.0677,-1.1302,-1.1559,-1.1519,-1.1378,-1.1251,-1.1276,-1.1276,-1.1276,-1.1276,-1.1276,-1.1276,-1.1276,-1.1377,-1.1578,-1.1927,-1.2323,-1.2706,-1.3074,-1.3314,-1.3563,-1.361,-1.3668,-1.3763,-1.3763,-1.3915,-1.415,-1.428,-1.443,-1.4373,-1.4569,-1.4662,-1.4605,-1.4477,-1.4605,-1.4743,-1.4834,-1.488,-1.5062,-1.5119,-1.5119,-1.5119,-1.5119,-1.5119,-1.5153,-1.5277,-1.5322,-1.5468,-1.5457,-1.5501,-1.578,-1.6088,-1.6479,-1.685,-1.7102,-1.7352,-1.7447,-1.7584,-1.7706,-1.7855,-1.7949,-1.8123,-1.8307,-1.84,-1.8478,-1.8478,-1.8478,-1.8439,-1.8439,-1.8478,-1.8478,-1.8478,-1.8478,-1.8517,-1.8556,-1.8725,-1.8788,-1.8865,-1.8979,-1.904,-1.9153,-1.925,-1.925,-0.4947,-0.5007,-0.5028,-0.5128,-0.5247,-0.5291,-0.5268,-0.5253,-0.5469,-0.6133,-0.7096,-0.7795,-0.8323,-0.8831,-0.9067,-0.9226,-0.9533,-0.9802,-1.0224,-1.0441,-1.0455,-1.0528,-1.0572,-1.047,-1.0199,-1.025,-1.0236,-1.0133,-1.0177,-1.0302,-1.0448,-1.0637,-1.0927,-1.1515,-1.1979,-1.1906,-1.1548,-1.1362,-1.1226,-1.1276,-1.1276,-1.1276,-1.1276,-1.1276,-1.1276,-1.1326,-1.1427,-1.1778,-1.2135,-1.252,-1.2852,-1.3218,-1.3467,-1.361,-1.361,-1.361,-1.3621,-1.3716,-1.3905,-1.414,-1.4291,-1.4337,-1.4291,-1.4337,-1.4244,-1.4244,-1.4384,-1.4569,-1.4616,-1.4708,-1.4926,-1.4937,-1.5017,-1.5017,-1.5119,-1.5119,-1.5119,-1.5198,-1.5153,-1.5198,-1.5198,-1.5289,-1.5468,-1.578,-1.6207,-1.6595,-1.685,-1.7018,-1.706,-1.724,-1.7406,-1.757,-1.7693,-1.7895,-1.8149,-1.8149,-1.8202,-1.8361,-1.8361,-1.8347,-1.8347,-1.8439,-1.8478,-1.8478,-1.8478,-1.8478,-1.8556,-1.8634,-1.8711,-1.8736,-1.8889,-1.9017,-1.8988,-1.9101,-1.9265,-0.4717,-0.4788,-0.461,-0.4738,-0.5108,-0.5591,-0.5625,-0.5495,-0.6103,-0.6787,-0.7555,-0.7981,-0.8202,-0.8429,-0.8765,-0.896,-0.9038,-0.9322,-0.9734,-1.0089,-0.9848,-0.9877,-0.9921,-0.987,-0.9643,-0.9716,-0.991,-1.0089,-1.0124,-1.0543,-1.0701,-1.076,-1.092,-1.1282,-1.1908,-1.1589,-1.1383,-1.1277,-1.1023,-1.0973,-1.1167,-1.1183,-1.114,-1.1226,-1.1276,-1.1276,-1.1377,-1.1578,-1.1977,-1.2471,-1.2745,-1.3122,-1.3515,-1.361,-1.361,-1.361,-1.361,-1.361,-1.3658,-1.414,-1.4233,-1.4186,-1.415,-1.4104,-1.4244,-1.4197,-1.4114,-1.4337,-1.4384,-1.4523,-1.4616,-1.4754,-1.4834,-1.4926,-1.4971,-1.5028,-1.4983,-1.5028,-1.4983,-1.5074,-1.5119,-1.5165,-1.5244,-1.5457,-1.5988,-1.6324,-1.6582,-1.6752,-1.6808,-1.6976,-1.7227,-1.7269,-1.7434,-1.7598,-1.7814,-1.7868,-1.7949,-1.8123,-1.8202,-1.8228,-1.8307,-1.8425,-1.8478,-1.8478,-1.8478,-1.8478,-1.8478,-1.8517,-1.8595,-1.8659,-1.8865,-1.8979,-1.895,-1.8974,-1.9176,-0.4491,-0.4538,-0.4646,-0.4719,-0.4775,-0.5202,-0.5519,-0.5881,-0.6579,-0.7127,-0.7428,-0.7954,-0.8202,-0.8303,-0.8565,-0.8834,-0.9014,-0.8853,-0.927,-0.9943,-0.9372,-0.9431,-0.949,-0.9336,-0.9058,-0.9193,-0.9607,-1.0077,-1.0012,-1.0609,-1.0762,-1.0809,-1.0579,-1.0811,-1.0872,-1.0717,-1.0589,-1.0638,-1.0368,-1.0189,-1.0671,-1.0773,-1.0847,-1.1015,-1.1175,-1.1276,-1.1267,-1.1477,-1.1828,-1.2372,-1.2657,-1.2939,-1.342,-1.3515,-1.3573,-1.3573,-1.3573,-1.361,-1.3621,-1.381,-1.3847,-1.3905,-1.3952,-1.3915,-1.3905,-1.381,-1.3905,-1.4046,-1.415,-1.4244,-1.4419,-1.4523,-1.4558,-1.4558,-1.4605,-1.4697,-1.4743,-1.48,-1.4846,-1.5028,-1.5119,-1.5198,-1.5277,-1.5142,-1.549,-1.5888,-1.6182,-1.6625,-1.6808,-1.6976,-1.7157,-1.7102,-1.7186,-1.7297,-1.7421,-1.7557,-1.7828,-1.8083,-1.8109,-1.8055,-1.8175,-1.8347,-1.8478,-1.8478,-1.8478,-1.8478,-1.8478,-1.8478,-1.8517,-1.8595,-1.875,-1.8851,-1.8836,-1.8936,-1.9147,-0.4405,-0.4329,-0.4525,-0.465,-0.4742,-0.5204,-0.579,-0.6453,-0.716,-0.7416,-0.7525,-0.7968,-0.8121,-0.818,-0.848,-0.8641,-0.8831,-0.8663,-0.8912,-0.9585,-0.8933,-0.9014,-0.9109,-0.9018,-0.9104,-0.9232,-0.9854,-1.038,-1.0319,-1.0745,-1.0685,-1.0394,-1.0035,-0.9811,-0.9786,-0.9864,-1.0073,-1.017,-0.9979,-0.9874,-1.0244,-1.0424,-1.0565,-1.0762,-1.0922,-1.1023,-1.1167,-1.1368,-1.1628,-1.2126,-1.2471,-1.2715,-1.3094,-1.3238,-1.3286,-1.3324,-1.3525,-1.3563,-1.3621,-1.3621,-1.3658,-1.3658,-1.3763,-1.3763,-1.3668,-1.3658,-1.3716,-1.381,-1.3868,-1.401,-1.4197,-1.4244,-1.4291,-1.4291,-1.4373,-1.4466,-1.4523,-1.4616,-1.4708,-1.4891,-1.4926,-1.5096,-1.5187,-1.5051,-1.5006,-1.5355,-1.5744,-1.6194,-1.6625,-1.6765,-1.685,-1.6765,-1.6892,-1.7089,-1.7214,-1.7297,-1.7598,-1.8043,-1.7989,-1.7801,-1.8069,-1.8242,-1.8361,-1.8478,-1.8478,-1.8478,-1.8478,-1.8478,-1.8478,-1.8517,-1.8634,-1.8697,-1.8683,-1.886,-1.9035,-0.4408,-0.4104,-0.4276,-0.4591,-0.5004,-0.5485,-0.6357,-0.7321,-0.7539,-0.7664,-0.7692,-0.7983,-0.8012,-0.7902,-0.8363,-0.8451,-0.8282,-0.8209,-0.859,-0.8816,-0.8458,-0.8714,-0.8802,-0.8783,-0.8882,-0.9706,-1.04,-1.0532,-1.0643,-1.096,-1.0706,-0.9917,-0.9104,-0.9081,-0.9283,-0.9402,-0.9688,-0.9719,-0.9531,-0.9585,-0.994,-1.0198,-1.0327,-1.0482,-1.0573,-1.0769,-1.0913,-1.1226,-1.1528,-1.1927,-1.2215,-1.2431,-1.2529,-1.2529,-1.2706,-1.2977,-1.3324,-1.342,-1.3515,-1.3515,-1.3563,-1.3563,-1.3621,-1.361,-1.361,-1.361,-1.3668,-1.3668,-1.3716,-1.3821,-1.3926,-1.401,-1.4057,-1.415,-1.428,-1.4337,-1.4384,-1.443,-1.4523,-1.4569,-1.4558,-1.4605,-1.4651,-1.4558,-1.464,-1.4869,-1.513,-1.5266,-1.5712,-1.6207,-1.625,-1.6262,-1.6423,-1.6808,-1.6921,-1.6964,-1.7338,-1.7733,-1.7639,-1.7557,-1.7814,-1.8083,-1.8163,-1.8282,-1.8386,-1.8425,-1.8321,-1.8321,-1.84,-1.8439,-1.8386,-1.8503,-1.8542,-1.8644,-1.8808,-0.436,-0.4016,-0.4574,-0.4705,-0.4587,-0.512,-0.5983,-0.6976,-0.7314,-0.7408,-0.7342,-0.7687,-0.7772,-0.7748,-0.7909,-0.7924,-0.7902,-0.7909,-0.8121,-0.8173,-0.8114,-0.8224,-0.8253,-0.8268,-0.8427,-0.9117,-0.9898,-1.0561,-1.0436,-1.0774,-1.0963,-1.054,-0.8944,-0.8997,-0.9064,-0.9048,-0.9169,-0.9245,-0.8984,-0.9242,-0.9589,-0.9849,-1.0007,-1.0151,-1.036,-1.0514,-1.082,-1.082,-1.1175,-1.1778,-1.1769,-1.1927,-1.2529,-1.2529,-1.2618,-1.2618,-1.2764,-1.29,-1.3122,-1.316,-1.3266,-1.3467,-1.3515,-1.361,-1.361,-1.3563,-1.3563,-1.361,-1.361,-1.3716,-1.3773,-1.381,-1.3858,-1.3905,-1.3999,-1.4046,-1.4057,-1.415,-1.4244,-1.4326,-1.428,-1.4337,-1.4291,-1.4326,-1.4408,-1.4512,-1.4558,-1.464,-1.4869,-1.5412,-1.5724,-1.568,-1.6001,-1.6423,-1.6479,-1.6479,-1.6934,-1.7352,-1.7256,-1.7338,-1.7652,-1.7882,-1.8003,-1.8083,-1.8202,-1.8163,-1.8043,-1.8123,-1.8202,-1.8123,-1.8083,-1.8242,-1.84,-1.8503,-1.8482,-0.4884,-0.4574,-0.5048,-0.5178,-0.5178,-0.5486,-0.6136,-0.6813,-0.6905,-0.6996,-0.7223,-0.7433,-0.7594,-0.767,-0.7699,-0.7699,-0.7699,-0.7756,-0.788,-0.7909,-0.7814,-0.7887,-0.7873,-0.7886,-0.8353,-0.8928,-0.9684,-1.0428,-1.0389,-1.0076,-1.0143,-0.9935,-0.8712,-0.8837,-0.8853,-0.8625,-0.8607,-0.8776,-0.8853,-0.8992,-0.9274,-0.9582,-0.9709,-0.9879,-1.0138,-1.0352,-1.0616,-1.0514,-1.0913,-1.1377,-1.1276,-1.1569,-1.1977,-1.1977,-1.2076,-1.2116,-1.2246,-1.2393,-1.257,-1.256,-1.2822,-1.3035,-1.3074,-1.2919,-1.316,-1.3208,-1.3457,-1.361,-1.361,-1.3621,-1.361,-1.361,-1.361,-1.361,-1.3668,-1.3668,-1.3763,-1.3821,-1.3915,-1.4046,-1.4093,-1.4104,-1.4104,-1.4093,-1.4082,-1.4035,-1.4035,-1.4093,-1.4362,-1.4823,-1.5096,-1.5142,-1.5603,-1.6044,-1.6057,-1.6188,-1.6607,-1.6976,-1.6964,-1.7102,-1.7502,-1.7706,-1.7788,-1.7868,-1.7963,-1.7922,-1.7882,-1.7922,-1.7963,-1.7882,-1.7882,-1.8043,-1.8202,-1.8321,-1.8246,-0.5707,-0.526,-0.5567,-0.5782,-0.6209,-0.6215,-0.6398,-0.6738,-0.6404,-0.6641,-0.7125,-0.7258,-0.7468,-0.7677,-0.767,-0.777,-0.777,-0.777,-0.7785,-0.7756,-0.7741,-0.7763,-0.7756,-0.7768,-0.8302,-0.9248,-1.0013,-1.0355,-1.0563,-1.0238,-0.9527,-0.8874,-0.8561,-0.8543,-0.8446,-0.8438,-0.8575,-0.8948,-0.9158,-0.9298,-0.945,-0.9562,-0.9666,-0.9814,-0.9925,-0.9984,-1.0249,-1.0446,-1.0635,-1.0863,-1.1074,-1.1377,-1.1377,-1.1377,-1.1528,-1.1519,-1.1701,-1.2039,-1.2138,-1.2227,-1.2286,-1.2344,-1.2246,-1.2227,-1.2511,-1.2929,-1.319,-1.317,-1.3122,-1.3266,-1.3314,-1.3409,-1.3409,-1.3515,-1.3621,-1.3668,-1.3668,-1.3716,-1.3763,-1.3858,-1.3905,-1.3915,-1.3858,-1.3847,-1.3847,-1.3705,-1.3705,-1.3716,-1.3905,-1.4373,-1.4605,-1.4731,-1.5198,-1.5691,-1.6057,-1.6231,-1.6349,-1.6552,-1.668,-1.6879,-1.7269,-1.7447,-1.757,-1.7611,-1.7666,-1.776,-1.776,-1.772,-1.7706,-1.7706,-1.7747,-1.7868,-1.7989,-1.8095,-1.8046,-0.5707,-0.5308,-0.5221,-0.5437,-0.5739,-0.5265,-0.5437,-0.583,-0.5916,-0.6435,-0.7125,-0.7468,-0.7594,-0.7677,-0.767,-0.7807,-0.799,-0.7814,-0.7887,-0.7909,-0.7865,-0.7748,-0.7726,-0.7839,-0.8328,-0.8973,-0.9647,-1.0315,-1.0794,-1.0265,-0.9721,-0.9644,-0.9095,-0.8551,-0.8721,-0.8741,-0.8897,-0.9289,-0.9466,-0.9758,-1.0058,-1.0199,-1.0344,-1.0592,-1.0744,-1.0795,-1.1006,-1.1049,-1.136,-1.1678,-1.1728,-1.1678,-1.1427,-1.1377,-1.1377,-1.1318,-1.1209,-1.161,-1.2008,-1.2098,-1.2107,-1.2236,-1.2227,-1.2021,-1.212,-1.2501,-1.2706,-1.2589,-1.2677,-1.2919,-1.3064,-1.3112,-1.3266,-1.342,-1.3563,-1.3563,-1.361,-1.361,-1.361,-1.3668,-1.3668,-1.3668,-1.3621,-1.361,-1.361,-1.361,-1.361,-1.3668,-1.3716,-1.4046,-1.4373,-1.4547,-1.4926,-1.5379,-1.578,-1.6001,-1.6088,-1.6479,-1.6765,-1.6934,-1.7102,-1.7269,-1.7406,-1.7323,-1.7337,-1.7461,-1.7502,-1.7378,-1.7378,-1.7368,-1.7462,-1.7571,-1.7639,-1.7706,-1.7765,-0.6477,-0.6209,-0.5996,-0.6033,-0.6209,-0.5953,-0.6039,-0.6343,-0.6556,-0.6901,-0.7335,-0.7461,-0.7545,-0.767,-0.767,-0.7887,-0.8099,-0.7858,-0.7946,-0.8034,-0.8091,-0.7943,-0.7898,-0.799,-0.8419,-0.8956,-0.9582,-1.0274,-1.0903,-1.0784,-1.0373,-1.0145,-0.9435,-0.9177,-0.9389,-0.9287,-0.9432,-0.9726,-0.99,-1.0277,-1.0651,-1.0651,-1.0557,-1.0804,-1.1108,-1.1209,-1.1108,-1.1099,-1.141,-1.1669,-1.1669,-1.1927,-1.1728,-1.1678,-1.1528,-1.1427,-1.1377,-1.1377,-1.1927,-1.2076,-1.1868,-1.195,-1.1792,-1.1392,-1.0939,-1.1309,-1.1801,-1.1841,-1.2403,-1.2706,-1.2579,-1.2628,-1.2919,-1.317,-1.3266,-1.3314,-1.3467,-1.361,-1.361,-1.3621,-1.3668,-1.3621,-1.361,-1.361,-1.361,-1.361,-1.361,-1.361,-1.3668,-1.3773,-1.4093,-1.4316,-1.4651,-1.4971,-1.539,-1.5558,-1.5603,-1.612,-1.668,-1.6905,-1.6976,-1.7115,-1.7212,-1.7199,-1.7199,-1.7253,-1.7253,-1.7212,-1.6963,-1.6862,-1.7019,-1.719,-1.73,-1.7423,-1.7584,-0.7454,-0.7496,-0.7105,-0.6972,-0.7021,-0.7118,-0.7196,-0.7286,-0.7503,-0.7628,-0.7635,-0.7384,-0.7468,-0.7628,-0.7685,-0.7953,-0.8012,-0.7829,-0.7946,-0.8143,-0.831,-0.8104,-0.8145,-0.833,-0.864,-0.923,-0.9926,-1.0312,-1.0742,-1.084,-1.0858,-1.0483,-1.0215,-1.0035,-0.9837,-0.993,-1.0156,-1.026,-1.0455,-1.0779,-1.0854,-1.0804,-1.0753,-1.0863,-1.1057,-1.1108,-1.1057,-1.1099,-1.141,-1.161,-1.1868,-1.2017,-1.2026,-1.1927,-1.1828,-1.1678,-1.1519,-1.1678,-1.1977,-1.1977,-1.1678,-1.1418,-1.1074,-1.0769,-1.036,-1.0403,-1.0897,-1.1301,-1.1868,-1.2224,-1.2098,-1.2187,-1.2482,-1.2977,-1.3074,-1.3218,-1.342,-1.361,-1.3621,-1.3621,-1.3621,-1.3621,-1.3563,-1.3563,-1.361,-1.361,-1.361,-1.361,-1.3668,-1.3763,-1.3952,-1.4093,-1.428,-1.4605,-1.5108,-1.5244,-1.5379,-1.5591,-1.6107,-1.6509,-1.6863,-1.6989,-1.7115,-1.7199,-1.7199,-1.7157,-1.7212,-1.7212,-1.6898,-1.6624,-1.6872,-1.7175,-1.7165,-1.7342,-1.7558,-0.7987,-0.807,-0.7335,-0.6994,-0.6952,-0.6641,-0.6562,-0.6852,-0.7202,-0.7426,-0.7635,-0.767,-0.767,-0.767,-0.767,-0.7887,-0.815,-0.7908,-0.7946,-0.8195,-0.8235,-0.8134,-0.8139,-0.843,-0.878,-0.9527,-1.0414,-1.1027,-1.1187,-1.1449,-1.1426,-1.1001,-1.0872,-1.073,-1.0647,-1.0723,-1.0776,-1.0888,-1.1039,-1.1309,-1.151,-1.151,-1.1469,-1.1769,-1.2274,-1.2421,-1.2471,-1.2529,-1.2578,-1.2637,-1.2578,-1.2471,-1.2323,-1.2166,-1.2126,-1.2026,-1.1819,-1.2026,-1.2175,-1.2175,-1.1927,-1.141,-1.1158,-1.0804,-1.0454,-1.0205,-1.0446,-1.0336,-1.0854,-1.1418,-1.146,-1.156,-1.1859,-1.2686,-1.3122,-1.3314,-1.3515,-1.3573,-1.3573,-1.3573,-1.3573,-1.3525,-1.3467,-1.3467,-1.3515,-1.3515,-1.3515,-1.3563,-1.3563,-1.3658,-1.381,-1.3952,-1.4046,-1.464,-1.5277,-1.5244,-1.5277,-1.54,-1.5668,-1.6281,-1.668,-1.6863,-1.6989,-1.7115,-1.7115,-1.7115,-1.7115,-1.717,-1.7027,-1.6831,-1.7029,-1.7201,-1.7152,-1.714,-1.7316]}]]